[[{"header":{"parameterUnit":"m.s-1","parameterCategory":1,"la1":31.0,"la2":29.5877,"lo1":-88.7671,"lo2":-86.6584,"dy":0.0162,"dx":0.0185,"nx":115,"ny":88,"refTime":"2024-03-02T18:00:00:Z","depth":0,"parameterNumber":2,"parameterNumberName":"U-component_of_WINDS"},"data":[0.0,0.0,0.0,0.0,0.0,0.0,0.0,0.0,0.0,0.0,0.0,0.0,0.0,0.0,0.0,0.0,0.0,0.0,0.0,0.0,0.0,0.0,0.0,0.0,0.0,0.0,0.0,0.0,0.0,0.0,0.0,0.0,0.0,0.0,0.0,0.0,0.0,0.0,0.0,0.0,0.0,0.0,0.0,0.0,0.0,0.0,0.0,0.0,0.0,0.0,0.0,0.0,0.0,0.0,0.0,0.0,0.0,0.0,0.0,0.0,0.0,0.0,0.0,0.0,0.0,0.0,0.0,0.0,0.0,0.0,0.0,0.0,0.0,0.0,0.0,0.0,0.0,0.0,0.0,0.0,0.0,0.0,0.0,0.0,0.0,0.0,0.0,0.0,0.0,0.0,0.0,0.0,0.0,0.0,0.0,0.0,0.0,0.0,0.0,0.0,0.0,0.0,0.0,0.0,0.0,0.0,0.0,0.0,0.0,0.0,0.0,0.0,0.0,0.0,0.0,0.0,0.0,0.0,0.0,0.0,0.0,0.0,0.0,0.0,0.0,0.0,0.0,0.0,0.0,0.0,0.0,0.0,0.0,0.0,0.0,0.0,0.0,0.0,0.0,0.0,0.0,0.0,0.0,0.0,0.0,0.0,0.0,0.0,0.0,0.0,0.0,0.0,0.0,0.0,0.0,0.0,0.0,0.0,0.0,0.0,0.0,0.0,0.0,0.0,0.0,0.0,0.0,0.0,0.0,0.0,0.0,0.0,0.0,0.0,0.0,0.0,0.0,0.0,0.0,0.0,0.0,0.0,0.0,0.0,0.0,0.0,0.0,0.0,0.0,0.0,0.0,0.0,0.0,0.0,0.0,0.0,0.0,0.0,0.0,0.0,0.0,0.0,0.0,0.0,0.0,0.0,0.0,0.0,0.0,0.0,0.0,0.0,0.0,0.0,0.0,0.0,0.0,0.0,0.0,0.0,0.0,0.0,0.0,0.0,0.0,0.0,0.0,0.0,0.0,0.0,0.0,0.0,0.0,0.0,0.0,0.0,0.0,0.0,0.0,0.0,0.0,0.0,0.0,0.0,0.0,0.0,0.0,0.0,0.0,0.0,0.0,0.0,0.0,0.0,0.0,0.0,0.0,0.0,0.0,0.0,0.0,0.0,0.0,0.0,0.0,0.0,0.0,0.0,0.0,0.0,0.0,0.0,0.0,0.0,0.0,0.0,0.0,0.0,0.0,0.0,0.0,0.0,0.0,0.0,0.0,0.0,0.0,0.0,0.0,0.0,0.0,0.0,0.0,0.0,0.0,0.0,0.0,0.0,0.0,0.0,0.0,0.0,0.0,0.0,0.0,0.0,0.0,0.0,0.0,0.0,0.0,0.0,0.0,0.0,0.0,0.0,0.0,0.0,0.0,0.0,0.0,0.0,0.0,0.0,0.0,0.0,0.0,0.0,0.0,0.0,0.0,0.0,0.0,0.0,0.0,0.0,0.0,0.0,0.0,0.0,0.0,0.0,0.0,0.0,0.0,0.0,0.0,0.0,0.0,0.0,0.0,0.0,0.0,0.0,0.0,0.0,0.0,0.0,0.0,0.0,0.0,0.0,0.0,0.0,0.0,0.0,0.0,0.0,0.0,0.0,0.0,0.0,0.0,0.0,0.0,0.0,0.0,0.0,0.0,0.0,0.0,0.0,0.0,0.0,0.0,0.0,0.0,0.0,0.0,0.0,0.0,0.0,0.0,0.0,0.0,0.0,0.0,0.0,0.0,0.0,0.0,0.0,0.0,0.0,0.0,0.0,0.0,0.0,0.0,0.0,0.0,0.0,0.0,0.0,0.0,0.0,0.0,0.0,0.0,0.0,0.0,0.0,0.0,0.0,0.0,0.0,0.0,0.0,0.0,0.0,0.0,0.0,0.0,0.0,0.0,0.0,0.0,0.0,0.0,0.0,0.0,0.0,0.0,0.0,0.0,0.0,0.0,0.0,0.0,0.0,0.0,0.0,0.0,0.0,0.0,0.0,0.0,0.0,0.0,0.0,0.0,0.0,0.0,0.0,0.0,0.0,0.0,0.0,0.0,0.0,0.0,0.0,0.0,0.0,0.0,0.0,0.0,0.0,0.0,0.0,0.0,0.0,0.0,0.0,0.0,0.0,0.0,0.0,0.0,0.0,0.0,0.0,0.0,0.0,0.0,0.0,0.0,0.0,0.0,0.0,0.0,0.0,0.0,0.0,0.0,0.0,0.0,0.0,0.0,0.0,0.0,0.0,0.0,0.0,0.0,0.0,0.0,0.0,0.0,0.0,0.0,0.0,0.0,0.0,0.0,0.0,0.0,0.0,0.0,0.0,0.0,0.0,0.0,0.0,0.0,0.0,0.0,0.0,0.0,0.0,0.0,0.0,0.0,0.0,0.0,0.0,0.0,0.0,0.0,0.0,0.0,0.0,0.0,0.0,0.0,0.0,0.0,0.0,0.0,0.0,0.0,0.0,0.0,0.0,0.0,0.0,0.0,0.0,0.0,0.0,0.0,0.0,0.0,0.0,0.0,0.0,0.0,0.0,0.0,0.0,0.0,0.0,0.0,0.0,0.0,0.0,0.0,0.0,0.0,0.0,0.0,0.0,0.0,0.0,0.0,0.0,0.0,0.0,0.0,0.0,0.0,0.0,0.0,0.0,0.0,0.0,0.0,0.0,0.0,0.0,0.0,0.0,0.0,0.0,0.0,0.0,0.0,0.0,0.0,0.0,0.0,0.0,0.0,0.0,0.0,0.0,0.0,0.0,0.0,0.0,0.0,0.0,0.0,0.0,0.0,0.0,0.0,0.0,0.0,0.0,0.0,0.0,0.0,0.0,0.0,0.0,0.0,0.0,0.0,0.0,0.0,0.0,0.0,0.0,0.0,0.0,0.0,0.0,0.0,0.0,0.0,0.0,0.0,0.0,0.0,0.0,0.0,0.0,0.0,0.0,0.0,0.0,0.0,0.0,0.0,0.0,0.0,0.0,0.0,0.0,0.0,0.0,0.0,0.0,0.0,0.0,0.0,0.0,0.0,0.0,0.0,0.0,0.0,0.0,0.0,0.0,0.0,0.0,0.0,0.0,0.0,0.0,0.0,0.0,0.0,0.0,0.0,0.0,0.0,0.0,0.0,0.0,0.0,0.0,0.0,0.0,0.0,0.0,0.0,0.0,0.0,0.0,0.0,0.0,0.0,0.0,0.0,0.0,0.0,0.0,0.0,0.0,0.0,0.0,0.0,0.0,0.0,0.0,0.0,0.0,0.0,0.0,0.0,0.0,0.0,0.0,0.0,0.0,0.0,0.0,0.0,0.0,0.0,0.0,0.0,0.0,0.0,0.0,0.0,0.0,0.0,0.0,0.0,0.0,0.0,0.0,0.0,0.0,0.0,0.0,0.0,0.0,0.0,0.0,0.0,0.0,0.0,0.0,0.0,0.0,0.0,0.0,0.0,0.0,0.0,0.0,0.0,0.0,0.0,0.0,0.0,0.0,0.0,0.0,0.0,0.0,0.0,0.0,0.0,0.0,0.0,0.0,0.0,0.0,0.0,0.0,0.0,0.0,0.0,0.0,0.0,0.0,0.0,0.0,0.0,0.0,0.0,0.0,0.0,0.0,0.0,0.0,0.0,0.0,0.0,0.0,0.0,0.0,0.0,0.0,0.0,0.0,0.0,0.0,0.0,0.0,0.0,0.0,0.0,0.0,0.0,0.0,0.0,0.0,0.0,0.0,0.0,0.0,0.0,0.0,0.0,0.0,0.0,0.0,0.0,0.0,0.0,0.0,0.0,0.0,0.0,0.0,0.0,0.0,0.0,0.0,0.0,0.0,0.0,0.0,0.0,0.0,0.0,0.0,0.0,0.0,0.0,0.0,0.0,0.0,0.0,0.0,0.0,0.0,0.0,0.0,0.0,0.0,0.0,0.0,0.0,0.0,0.0,0.0,0.0,0.0,0.0,0.0,0.0,0.0,0.0,0.0,0.0,0.0,0.0,0.0,0.0,0.0,0.0,0.0,0.0,0.0,0.0,0.0,0.0,0.0,0.0,0.0,0.0,0.0,0.0,0.0,0.0,0.0,0.0,0.0,0.0,0.0,0.0,0.0,0.0,0.0,0.0,0.0,0.0,0.0,0.0,0.0,0.0,0.0,0.0,0.0,0.0,0.0,0.0,0.0,0.0,0.0,0.0,0.0,0.0,0.0,0.0,0.0,0.0,0.0,0.0,0.0,0.0,0.0,0.0,0.0,0.0,0.0,0.0,0.0,-2.9047,0.0,0.0,0.0,0.0,0.0,0.0,0.0,0.0,0.0,0.0,0.0,0.0,0.0,0.0,0.0,0.0,0.0,0.0,0.0,0.0,0.0,0.0,0.0,0.0,0.0,0.0,0.0,0.0,0.0,0.0,0.0,0.0,0.0,0.0,0.0,0.0,0.0,0.0,0.0,0.0,0.0,0.0,0.0,0.0,0.0,0.0,0.0,0.0,0.0,0.0,0.0,0.0,0.0,0.0,0.0,0.0,0.0,0.0,0.0,0.0,0.0,0.0,0.0,0.0,0.0,0.0,0.0,0.0,0.0,0.0,0.0,0.0,0.0,0.0,0.0,0.0,0.0,0.0,0.0,0.0,0.0,0.0,0.0,0.0,0.0,0.0,0.0,0.0,0.0,0.0,0.0,0.0,0.0,0.0,0.0,0.0,0.0,0.0,0.0,0.0,0.0,0.0,0.0,0.0,0.0,0.0,0.0,0.0,0.0,0.0,-2.7918,-2.9192,-2.9638,-2.982,-2.9906,0.0,0.0,0.0,0.0,0.0,0.0,0.0,0.0,0.0,0.0,0.0,0.0,0.0,0.0,0.0,0.0,0.0,0.0,0.0,0.0,0.0,0.0,0.0,0.0,0.0,0.0,0.0,0.0,0.0,0.0,0.0,0.0,0.0,0.0,0.0,0.0,0.0,0.0,0.0,0.0,0.0,0.0,0.0,0.0,0.0,0.0,0.0,0.0,0.0,0.0,0.0,0.0,0.0,0.0,0.0,0.0,0.0,0.0,0.0,0.0,0.0,0.0,0.0,0.0,0.0,0.0,0.0,0.0,0.0,0.0,0.0,0.0,0.0,0.0,0.0,0.0,0.0,0.0,0.0,0.0,0.0,0.0,0.0,0.0,0.0,0.0,0.0,0.0,0.0,0.0,0.0,0.0,0.0,0.0,0.0,0.0,0.0,0.0,0.0,0.0,0.0,0.0,0.0,0.0,0.0,0.0,0.0,0.0,0.0,0.0,0.0,0.0,-3.0408,-3.0447,-3.0485,0.0,0.0,0.0,0.0,0.0,0.0,0.0,0.0,0.0,0.0,0.0,0.0,0.0,0.0,0.0,0.0,0.0,0.0,0.0,0.0,0.0,0.0,0.0,0.0,0.0,0.0,0.0,0.0,0.0,0.0,0.0,0.0,0.0,0.0,0.0,0.0,0.0,0.0,0.0,0.0,0.0,0.0,0.0,0.0,0.0,0.0,0.0,0.0,0.0,0.0,0.0,0.0,0.0,0.0,0.0,0.0,0.0,0.0,0.0,0.0,0.0,0.0,0.0,0.0,0.0,0.0,0.0,0.0,0.0,0.0,0.0,0.0,0.0,0.0,0.0,0.0,0.0,0.0,0.0,0.0,0.0,0.0,0.0,0.0,0.0,0.0,0.0,0.0,0.0,0.0,0.0,0.0,0.0,0.0,0.0,0.0,0.0,0.0,0.0,0.0,0.0,0.0,0.0,0.0,0.0,0.0,0.0,0.0,0.0,0.0,-2.8698,-3.0346,-3.0385,0.0,-3.0485,0.0,0.0,0.0,0.0,0.0,0.0,0.0,0.0,0.0,0.0,0.0,0.0,0.0,0.0,0.0,0.0,0.0,0.0,0.0,0.0,0.0,0.0,0.0,0.0,0.0,0.0,0.0,0.0,0.0,0.0,0.0,0.0,0.0,0.0,0.0,0.0,0.0,0.0,0.0,0.0,0.0,0.0,0.0,0.0,0.0,0.0,0.0,0.0,0.0,0.0,0.0,0.0,0.0,0.0,0.0,0.0,0.0,0.0,0.0,0.0,0.0,0.0,0.0,0.0,0.0,0.0,0.0,0.0,0.0,0.0,0.0,0.0,0.0,0.0,0.0,0.0,0.0,0.0,0.0,0.0,0.0,0.0,0.0,0.0,0.0,0.0,0.0,0.0,0.0,0.0,0.0,0.0,0.0,0.0,0.0,0.0,0.0,0.0,0.0,0.0,0.0,0.0,0.0,0.0,0.0,0.0,0.0,0.0,0.0,0.0,-2.8698,-3.0385,-3.0425,-3.0463,0.0,0.0,0.0,0.0,0.0,0.0,0.0,0.0,0.0,0.0,0.0,0.0,0.0,0.0,0.0,0.0,0.0,0.0,0.0,0.0,0.0,0.0,0.0,0.0,0.0,0.0,0.0,0.0,0.0,0.0,0.0,0.0,0.0,0.0,0.0,0.0,0.0,0.0,0.0,0.0,0.0,0.0,0.0,0.0,0.0,0.0,0.0,0.0,0.0,0.0,0.0,0.0,0.0,0.0,0.0,0.0,0.0,0.0,0.0,0.0,0.0,0.0,0.0,0.0,0.0,0.0,0.0,0.0,0.0,0.0,0.0,0.0,0.0,0.0,0.0,0.0,0.0,0.0,0.0,0.0,0.0,0.0,0.0,0.0,0.0,0.0,0.0,0.0,0.0,0.0,0.0,0.0,0.0,0.0,0.0,0.0,0.0,0.0,0.0,0.0,0.0,0.0,0.0,0.0,0.0,0.0,0.0,0.0,0.0,0.0,-2.8093,-2.8896,-3.0287,-3.0463,-3.05,-3.0472,0.0,0.0,0.0,0.0,0.0,0.0,0.0,0.0,0.0,0.0,0.0,0.0,0.0,0.0,0.0,0.0,0.0,0.0,0.0,0.0,0.0,0.0,0.0,0.0,0.0,0.0,0.0,0.0,0.0,0.0,0.0,0.0,0.0,0.0,0.0,0.0,0.0,0.0,0.0,0.0,0.0,0.0,0.0,0.0,0.0,0.0,0.0,0.0,0.0,0.0,0.0,0.0,0.0,0.0,0.0,0.0,0.0,0.0,0.0,0.0,0.0,0.0,0.0,0.0,0.0,0.0,0.0,0.0,0.0,0.0,0.0,0.0,0.0,0.0,0.0,0.0,0.0,0.0,0.0,0.0,0.0,0.0,0.0,0.0,0.0,0.0,0.0,0.0,0.0,0.0,0.0,0.0,0.0,0.0,0.0,0.0,0.0,0.0,0.0,0.0,0.0,0.0,0.0,0.0,0.0,0.0,0.0,0.0,-2.78,-2.8631,-2.9484,-3.0353,-3.0446,-3.0472,0.0,0.0,0.0,0.0,0.0,0.0,0.0,0.0,0.0,0.0,0.0,0.0,0.0,0.0,0.0,0.0,0.0,0.0,0.0,0.0,0.0,0.0,0.0,0.0,0.0,0.0,0.0,0.0,0.0,0.0,0.0,0.0,0.0,0.0,0.0,0.0,0.0,0.0,0.0,0.0,0.0,0.0,0.0,0.0,0.0,0.0,0.0,0.0,0.0,0.0,0.0,0.0,0.0,0.0,0.0,0.0,0.0,0.0,0.0,0.0,0.0,0.0,0.0,0.0,0.0,0.0,0.0,0.0,0.0,0.0,0.0,0.0,0.0,0.0,0.0,0.0,0.0,0.0,0.0,0.0,0.0,0.0,0.0,0.0,0.0,0.0,0.0,0.0,0.0,0.0,0.0,0.0,0.0,0.0,0.0,0.0,0.0,0.0,0.0,0.0,0.0,0.0,0.0,0.0,0.0,0.0,0.0,0.0,0.0,-2.8535,-2.9477,-3.0106,-3.0425,-3.049,-3.051,0.0,0.0,0.0,0.0,0.0,0.0,0.0,0.0,0.0,0.0,0.0,0.0,0.0,0.0,0.0,0.0,0.0,0.0,0.0,0.0,0.0,0.0,0.0,0.0,0.0,0.0,0.0,0.0,0.0,0.0,0.0,0.0,0.0,0.0,0.0,0.0,0.0,0.0,0.0,0.0,0.0,0.0,0.0,0.0,0.0,0.0,0.0,0.0,0.0,0.0,0.0,0.0,0.0,0.0,0.0,0.0,0.0,0.0,0.0,0.0,0.0,0.0,0.0,0.0,0.0,0.0,0.0,0.0,0.0,0.0,0.0,0.0,0.0,0.0,0.0,0.0,0.0,0.0,0.0,0.0,0.0,0.0,0.0,0.0,0.0,0.0,0.0,0.0,0.0,0.0,0.0,0.0,0.0,0.0,0.0,0.0,0.0,0.0,0.0,0.0,0.0,0.0,0.0,0.0,0.0,0.0,0.0,0.0,0.0,-2.978,0.0,-3.0958,-3.129,-3.1069,-3.094,0.0,0.0,0.0,0.0,0.0,0.0,0.0,0.0,0.0,0.0,0.0,0.0,0.0,0.0,0.0,0.0,0.0,0.0,0.0,0.0,0.0,0.0,0.0,0.0,0.0,0.0,0.0,0.0,0.0,0.0,0.0,0.0,0.0,0.0,0.0,0.0,0.0,0.0,0.0,0.0,0.0,0.0,0.0,0.0,0.0,0.0,0.0,0.0,0.0,0.0,0.0,0.0,0.0,0.0,0.0,0.0,0.0,0.0,0.0,0.0,0.0,0.0,0.0,0.0,0.0,0.0,0.0,0.0,0.0,0.0,0.0,0.0,0.0,0.0,0.0,0.0,0.0,0.0,0.0,0.0,0.0,0.0,0.0,0.0,0.0,0.0,0.0,0.0,0.0,0.0,0.0,0.0,0.0,0.0,0.0,0.0,0.0,0.0,0.0,0.0,0.0,0.0,0.0,0.0,0.0,0.0,0.0,0.0,-2.9059,-3.1463,-3.1718,-3.2152,-3.2949,-3.2237,-3.1839,0.0,0.0,0.0,0.0,0.0,0.0,0.0,0.0,0.0,0.0,0.0,0.0,0.0,0.0,0.0,0.0,0.0,0.0,0.0,0.0,0.0,0.0,0.0,0.0,0.0,0.0,0.0,0.0,0.0,0.0,0.0,0.0,0.0,0.0,0.0,0.0,0.0,0.0,0.0,0.0,0.0,0.0,0.0,0.0,0.0,0.0,0.0,0.0,0.0,0.0,0.0,0.0,0.0,0.0,0.0,0.0,0.0,0.0,0.0,0.0,0.0,0.0,0.0,0.0,0.0,0.0,0.0,0.0,0.0,0.0,0.0,0.0,0.0,0.0,0.0,0.0,0.0,0.0,0.0,0.0,0.0,0.0,0.0,0.0,0.0,0.0,0.0,0.0,0.0,0.0,0.0,0.0,0.0,0.0,0.0,0.0,0.0,0.0,0.0,0.0,0.0,0.0,0.0,0.0,0.0,0.0,0.0,0.0,0.0,-3.3216,-3.3325,-3.3525,-3.3801,-3.3619,-3.3004,0.0,0.0,0.0,0.0,0.0,0.0,0.0,0.0,0.0,0.0,0.0,0.0,0.0,0.0,0.0,0.0,0.0,0.0,0.0,0.0,0.0,0.0,0.0,0.0,0.0,0.0,0.0,0.0,0.0,0.0,0.0,0.0,0.0,0.0,0.0,0.0,0.0,0.0,0.0,0.0,0.0,0.0,0.0,0.0,0.0,0.0,0.0,0.0,0.0,0.0,0.0,0.0,0.0,0.0,0.0,0.0,0.0,0.0,0.0,0.0,0.0,0.0,0.0,0.0,0.0,0.0,0.0,0.0,0.0,0.0,0.0,0.0,0.0,0.0,0.0,0.0,0.0,0.0,0.0,0.0,0.0,0.0,0.0,0.0,0.0,0.0,0.0,0.0,0.0,0.0,0.0,0.0,0.0,0.0,0.0,0.0,0.0,0.0,0.0,0.0,0.0,0.0,0.0,0.0,0.0,0.0,0.0,0.0,0.0,-3.5806,-3.5345,-3.5249,-3.5591,-3.5059,-3.4254,-3.3252,0.0,0.0,0.0,0.0,0.0,0.0,0.0,0.0,0.0,0.0,0.0,0.0,0.0,0.0,0.0,0.0,0.0,0.0,0.0,0.0,0.0,0.0,0.0,0.0,0.0,0.0,0.0,0.0,0.0,0.0,0.0,0.0,0.0,0.0,0.0,0.0,0.0,0.0,0.0,0.0,0.0,0.0,0.0,0.0,0.0,0.0,0.0,0.0,0.0,0.0,0.0,0.0,0.0,0.0,0.0,0.0,0.0,0.0,0.0,0.0,0.0,0.0,0.0,0.0,0.0,0.0,0.0,0.0,0.0,0.0,0.0,0.0,0.0,0.0,0.0,0.0,0.0,0.0,0.0,0.0,0.0,0.0,0.0,0.0,0.0,0.0,0.0,0.0,0.0,0.0,0.0,0.0,0.0,0.0,0.0,0.0,0.0,0.0,0.0,0.0,0.0,0.0,0.0,0.0,0.0,0.0,0.0,0.0,-3.9073,-3.7671,-3.7262,-3.8012,-3.651,-3.5695,0.0,0.0,0.0,0.0,0.0,0.0,0.0,0.0,0.0,0.0,0.0,0.0,0.0,0.0,0.0,0.0,0.0,0.0,0.0,0.0,0.0,0.0,0.0,0.0,0.0,0.0,0.0,0.0,0.0,0.0,0.0,0.0,0.0,0.0,0.0,0.0,0.0,0.0,0.0,0.0,0.0,0.0,0.0,0.0,0.0,0.0,0.0,0.0,0.0,0.0,0.0,0.0,0.0,0.0,0.0,0.0,0.0,0.0,0.0,0.0,0.0,0.0,0.0,0.0,0.0,0.0,0.0,0.0,0.0,0.0,0.0,0.0,0.0,0.0,0.0,0.0,0.0,0.0,0.0,0.0,0.0,0.0,0.0,0.0,0.0,0.0,0.0,0.0,0.0,0.0,0.0,0.0,0.0,0.0,0.0,0.0,0.0,0.0,0.0,0.0,0.0,0.0,0.0,0.0,0.0,0.0,0.0,0.0,0.0,-3.9092,-3.94,-3.93,-3.89,-3.8491,-3.7448,0.0,0.0,0.0,0.0,0.0,0.0,0.0,0.0,0.0,0.0,0.0,0.0,0.0,0.0,0.0,0.0,0.0,0.0,0.0,0.0,0.0,0.0,0.0,0.0,0.0,0.0,0.0,0.0,0.0,0.0,0.0,0.0,0.0,0.0,0.0,0.0,0.0,0.0,0.0,0.0,0.0,0.0,0.0,0.0,0.0,0.0,0.0,0.0,0.0,0.0,0.0,0.0,0.0,0.0,0.0,0.0,0.0,0.0,0.0,0.0,0.0,0.0,0.0,0.0,0.0,0.0,0.0,0.0,0.0,0.0,0.0,0.0,0.0,0.0,0.0,0.0,0.0,0.0,0.0,0.0,0.0,0.0,0.0,0.0,0.0,0.0,0.0,0.0,0.0,0.0,0.0,0.0,0.0,0.0,0.0,0.0,0.0,0.0,0.0,0.0,0.0,0.0,0.0,0.0,0.0,0.0,0.0,0.0,-3.8009,-3.9715,-4.0615,-4.0808,-4.0315,-3.9631,-3.8467,0.0,0.0,0.0,0.0,0.0,0.0,0.0,0.0,0.0,0.0,0.0,0.0,0.0,0.0,0.0,0.0,0.0,0.0,0.0,0.0,0.0,0.0,0.0,0.0,0.0,0.0,0.0,0.0,0.0,0.0,0.0,0.0,0.0,0.0,0.0,0.0,0.0,0.0,0.0,0.0,0.0,0.0,0.0,0.0,0.0,0.0,0.0,0.0,0.0,0.0,0.0,0.0,0.0,0.0,0.0,0.0,0.0,0.0,0.0,0.0,0.0,0.0,0.0,0.0,0.0,0.0,0.0,0.0,0.0,0.0,0.0,0.0,0.0,0.0,0.0,0.0,0.0,0.0,0.0,0.0,0.0,0.0,0.0,0.0,0.0,0.0,0.0,0.0,0.0,0.0,0.0,0.0,0.0,0.0,0.0,0.0,0.0,0.0,0.0,0.0,0.0,0.0,0.0,0.0,0.0,0.0,0.0,0.0,-3.8977,-4.0593,-4.147,-4.1931,-4.1885,-4.0469,-3.9215,0.0,0.0,0.0,0.0,0.0,0.0,0.0,0.0,0.0,0.0,0.0,0.0,0.0,0.0,0.0,0.0,0.0,0.0,0.0,0.0,0.0,0.0,0.0,0.0,0.0,0.0,0.0,0.0,0.0,0.0,0.0,0.0,0.0,0.0,0.0,0.0,0.0,0.0,0.0,0.0,0.0,0.0,0.0,0.0,0.0,0.0,0.0,0.0,0.0,0.0,0.0,0.0,0.0,0.0,0.0,0.0,0.0,0.0,0.0,0.0,0.0,0.0,0.0,0.0,0.0,0.0,0.0,0.0,0.0,0.0,0.0,0.0,0.0,0.0,0.0,0.0,0.0,0.0,0.0,0.0,0.0,0.0,0.0,0.0,0.0,0.0,0.0,0.0,0.0,0.0,0.0,0.0,0.0,0.0,0.0,0.0,0.0,0.0,0.0,0.0,0.0,0.0,0.0,0.0,0.0,0.0,0.0,0.0,-4.0423,-4.1508,-4.2354,-4.2816,-4.2816,-4.247,-4.1554,0.0,0.0,0.0,0.0,0.0,0.0,0.0,0.0,0.0,0.0,0.0,0.0,0.0,0.0,0.0,0.0,0.0,0.0,0.0,0.0,0.0,0.0,0.0,0.0,0.0,0.0,0.0,0.0,0.0,0.0,0.0,0.0,0.0,0.0,0.0,0.0,0.0,0.0,0.0,0.0,0.0,0.0,0.0,0.0,0.0,0.0,0.0,0.0,-4.2794,0.0,0.0,0.0,0.0,0.0,0.0,0.0,0.0,0.0,0.0,0.0,0.0,0.0,0.0,0.0,0.0,0.0,0.0,0.0,0.0,0.0,0.0,0.0,0.0,0.0,0.0,0.0,0.0,0.0,0.0,0.0,0.0,0.0,0.0,0.0,0.0,0.0,0.0,0.0,0.0,0.0,0.0,0.0,0.0,0.0,0.0,0.0,0.0,0.0,0.0,0.0,0.0,0.0,0.0,0.0,0.0,0.0,0.0,0.0,-4.0891,-4.1758,-4.2979,-4.3593,-4.3632,-4.3593,-4.262,0.0,0.0,0.0,0.0,0.0,0.0,0.0,0.0,0.0,0.0,0.0,0.0,0.0,0.0,0.0,0.0,0.0,0.0,0.0,0.0,0.0,0.0,0.0,0.0,0.0,0.0,0.0,0.0,0.0,0.0,0.0,0.0,0.0,0.0,0.0,0.0,0.0,0.0,0.0,0.0,0.0,0.0,0.0,0.0,0.0,0.0,0.0,0.0,0.0,0.0,0.0,0.0,0.0,0.0,0.0,0.0,0.0,0.0,0.0,0.0,0.0,0.0,0.0,0.0,0.0,0.0,0.0,0.0,0.0,0.0,0.0,0.0,0.0,0.0,0.0,0.0,0.0,0.0,0.0,0.0,0.0,0.0,0.0,0.0,0.0,0.0,0.0,0.0,0.0,0.0,0.0,0.0,0.0,0.0,0.0,0.0,0.0,0.0,0.0,0.0,0.0,0.0,0.0,0.0,0.0,0.0,0.0,-3.9498,-4.1178,-4.1902,-4.3512,-4.4384,-4.4384,-4.4231,-4.3127,-4.0946,0.0,0.0,0.0,0.0,0.0,0.0,0.0,0.0,0.0,0.0,0.0,0.0,0.0,0.0,0.0,0.0,0.0,0.0,0.0,0.0,0.0,0.0,0.0,0.0,0.0,0.0,0.0,0.0,0.0,0.0,0.0,0.0,0.0,0.0,0.0,0.0,0.0,0.0,-3.767,-4.1494,0.0,0.0,0.0,0.0,0.0,0.0,0.0,0.0,-5.0629,0.0,0.0,0.0,0.0,0.0,0.0,0.0,0.0,0.0,0.0,0.0,0.0,0.0,0.0,0.0,0.0,0.0,0.0,0.0,0.0,0.0,0.0,0.0,0.0,0.0,0.0,0.0,0.0,0.0,0.0,0.0,0.0,0.0,0.0,0.0,0.0,0.0,0.0,0.0,0.0,0.0,0.0,0.0,0.0,0.0,0.0,0.0,0.0,0.0,0.0,0.0,0.0,0.0,0.0,0.0,0.0,-3.7685,-4.0846,-4.2554,-4.2661,-4.4307,-4.5168,-4.5118,-4.4469,-4.358,-4.2411,0.0,0.0,0.0,0.0,0.0,0.0,0.0,0.0,0.0,0.0,0.0,0.0,0.0,0.0,0.0,0.0,0.0,0.0,0.0,0.0,0.0,0.0,0.0,0.0,0.0,0.0,0.0,0.0,0.0,0.0,0.0,0.0,0.0,0.0,0.0,0.0,0.0,0.0,0.0,-4.4837,-4.7278,0.0,0.0,0.0,0.0,0.0,0.0,0.0,0.0,-5.2693,0.0,0.0,0.0,0.0,0.0,0.0,0.0,0.0,0.0,0.0,0.0,0.0,0.0,0.0,0.0,0.0,0.0,0.0,0.0,0.0,0.0,0.0,0.0,0.0,0.0,0.0,0.0,0.0,0.0,0.0,0.0,0.0,0.0,0.0,0.0,0.0,0.0,0.0,0.0,0.0,0.0,0.0,0.0,0.0,0.0,0.0,0.0,0.0,0.0,0.0,0.0,0.0,0.0,0.0,0.0,-3.7818,-4.1093,-4.2766,-4.2754,-4.4357,-4.5224,-4.5192,-4.4374,-4.3375,0.0,0.0,0.0,0.0,0.0,0.0,0.0,0.0,0.0,0.0,0.0,0.0,0.0,0.0,0.0,0.0,0.0,0.0,0.0,0.0,0.0,0.0,0.0,0.0,0.0,0.0,0.0,0.0,0.0,0.0,0.0,0.0,0.0,0.0,0.0,0.0,0.0,0.0,0.0,0.0,-4.7346,-4.9873,-5.158,0.0,0.0,0.0,0.0,0.0,0.0,-5.5935,-5.5809,0.0,0.0,0.0,0.0,0.0,0.0,0.0,0.0,0.0,0.0,0.0,0.0,0.0,0.0,0.0,0.0,0.0,0.0,0.0,0.0,0.0,0.0,0.0,0.0,0.0,0.0,0.0,0.0,0.0,0.0,0.0,0.0,0.0,0.0,0.0,0.0,0.0,0.0,0.0,0.0,0.0,0.0,0.0,0.0,0.0,0.0,0.0,0.0,0.0,0.0,0.0,0.0,0.0,0.0,0.0,-3.7871,-4.1033,-4.2671,-4.2656,-4.4216,-4.508,-4.503,-4.4243,-4.3047,0.0,0.0,0.0,0.0,0.0,0.0,0.0,0.0,0.0,0.0,0.0,0.0,0.0,0.0,0.0,0.0,0.0,0.0,0.0,0.0,0.0,0.0,0.0,0.0,0.0,0.0,0.0,0.0,0.0,0.0,0.0,0.0,0.0,0.0,0.0,0.0,0.0,0.0,0.0,0.0,0.0,-5.2143,-5.3695,-5.4233,0.0,0.0,0.0,0.0,-5.7737,-5.8498,0.0,0.0,0.0,0.0,0.0,0.0,0.0,0.0,0.0,0.0,0.0,0.0,0.0,0.0,0.0,0.0,0.0,0.0,0.0,0.0,0.0,0.0,0.0,0.0,0.0,0.0,0.0,0.0,0.0,0.0,0.0,0.0,0.0,0.0,0.0,0.0,0.0,0.0,0.0,0.0,0.0,0.0,0.0,0.0,0.0,0.0,0.0,0.0,0.0,0.0,0.0,0.0,0.0,0.0,0.0,0.0,-3.866,-4.1269,-4.258,-4.259,-4.4148,-4.4998,-4.49,-4.4201,-4.2997,0.0,0.0,0.0,0.0,0.0,0.0,0.0,0.0,0.0,0.0,0.0,0.0,0.0,0.0,0.0,0.0,0.0,0.0,0.0,0.0,0.0,0.0,0.0,0.0,0.0,0.0,0.0,0.0,0.0,0.0,0.0,0.0,0.0,0.0,0.0,0.0,0.0,0.0,0.0,0.0,0.0,-5.3654,-5.4545,-5.6009,-5.7016,0.0,0.0,-5.8563,-5.8745,-5.8835,0.0,0.0,0.0,0.0,0.0,0.0,0.0,0.0,0.0,0.0,0.0,0.0,0.0,0.0,0.0,0.0,0.0,0.0,0.0,0.0,0.0,0.0,0.0,0.0,0.0,0.0,0.0,0.0,0.0,0.0,0.0,0.0,0.0,0.0,0.0,0.0,0.0,0.0,0.0,0.0,0.0,0.0,0.0,0.0,0.0,0.0,0.0,0.0,0.0,0.0,0.0,0.0,0.0,0.0,0.0,-3.6139,-3.8601,-4.1135,-4.2375,-4.2392,-4.4006,-4.4827,-4.4764,-4.4045,-4.2607,0.0,0.0,0.0,0.0,0.0,0.0,0.0,0.0,0.0,0.0,0.0,0.0,0.0,0.0,0.0,0.0,0.0,0.0,0.0,0.0,0.0,0.0,0.0,0.0,0.0,0.0,0.0,0.0,0.0,0.0,0.0,0.0,0.0,0.0,0.0,0.0,0.0,0.0,0.0,0.0,0.0,0.0,-5.5917,-5.685,0.0,0.0,0.0,-5.9638,-6.0194,0.0,0.0,0.0,0.0,0.0,0.0,0.0,0.0,0.0,0.0,0.0,0.0,0.0,0.0,0.0,0.0,0.0,0.0,0.0,0.0,0.0,0.0,0.0,0.0,0.0,0.0,0.0,0.0,0.0,0.0,0.0,0.0,0.0,0.0,0.0,0.0,0.0,0.0,0.0,0.0,0.0,0.0,0.0,0.0,0.0,0.0,0.0,0.0,0.0,0.0,0.0,0.0,0.0,0.0,0.0,0.0,0.0,-3.8788,-4.1111,-4.2245,-4.2259,-4.3895,-4.4764,-4.4712,-4.3693,0.0,0.0,0.0,0.0,0.0,0.0,0.0,0.0,0.0,0.0,0.0,0.0,0.0,0.0,0.0,0.0,0.0,0.0,0.0,0.0,0.0,0.0,0.0,0.0,0.0,0.0,0.0,-3.2564,0.0,0.0,0.0,0.0,0.0,0.0,0.0,0.0,0.0,0.0,0.0,0.0,0.0,0.0,-5.4264,-5.6802,-5.7381,-5.8075,0.0,0.0,-6.0395,-6.115,-6.1298,-6.1084,0.0,0.0,0.0,0.0,0.0,0.0,0.0,0.0,0.0,0.0,0.0,0.0,0.0,0.0,0.0,0.0,0.0,0.0,0.0,0.0,0.0,0.0,0.0,0.0,0.0,0.0,0.0,0.0,0.0,0.0,0.0,0.0,0.0,0.0,0.0,0.0,0.0,0.0,0.0,0.0,0.0,0.0,0.0,0.0,0.0,0.0,0.0,0.0,0.0,0.0,0.0,0.0,0.0,0.0,-3.7117,-3.9569,-4.1316,-4.2184,-4.2259,-4.3844,-4.4712,-4.4674,-4.3127,-4.182,0.0,0.0,0.0,0.0,0.0,0.0,0.0,0.0,0.0,0.0,0.0,0.0,0.0,0.0,0.0,0.0,0.0,0.0,0.0,0.0,0.0,0.0,0.0,0.0,0.0,0.0,0.0,0.0,0.0,0.0,0.0,0.0,0.0,0.0,0.0,0.0,0.0,0.0,0.0,0.0,0.0,-5.4136,-5.6637,-5.7638,-5.8517,0.0,-6.0292,-6.0905,-6.1079,-6.1173,-6.0924,-6.015,0.0,0.0,0.0,0.0,0.0,0.0,0.0,0.0,0.0,0.0,0.0,0.0,0.0,0.0,0.0,0.0,0.0,0.0,0.0,0.0,0.0,0.0,0.0,0.0,0.0,0.0,0.0,0.0,0.0,0.0,0.0,0.0,0.0,0.0,0.0,0.0,0.0,0.0,0.0,0.0,0.0,0.0,0.0,0.0,0.0,0.0,0.0,0.0,0.0,0.0,0.0,0.0,0.0,-3.7347,-4.0327,-4.1531,-4.236,-4.2899,-4.4054,-4.4619,-4.4565,-4.2948,-4.1656,0.0,0.0,0.0,0.0,0.0,0.0,0.0,0.0,0.0,0.0,0.0,0.0,0.0,0.0,0.0,0.0,0.0,0.0,0.0,0.0,0.0,0.0,0.0,0.0,0.0,0.0,0.0,0.0,-4.1742,-4.2468,-4.3709,0.0,0.0,0.0,0.0,0.0,0.0,0.0,0.0,0.0,0.0,-5.5258,-5.7325,-5.8296,0.0,0.0,-6.0973,-6.1547,-6.1627,-6.2116,-6.2256,-6.1475,-6.0433,0.0,0.0,0.0,0.0,0.0,0.0,0.0,0.0,0.0,0.0,0.0,0.0,0.0,0.0,0.0,0.0,0.0,0.0,0.0,0.0,0.0,0.0,0.0,0.0,0.0,0.0,0.0,0.0,0.0,0.0,0.0,0.0,0.0,0.0,0.0,0.0,0.0,0.0,0.0,0.0,0.0,0.0,0.0,0.0,0.0,0.0,0.0,0.0,0.0,0.0,0.0,0.0,-3.7629,-4.0714,-4.1578,-4.2417,-4.3188,-4.4069,-4.4482,-4.4388,-4.3025,-4.1924,0.0,0.0,0.0,0.0,0.0,0.0,0.0,0.0,0.0,0.0,0.0,0.0,0.0,0.0,0.0,0.0,0.0,0.0,0.0,0.0,0.0,0.0,0.0,0.0,0.0,0.0,0.0,0.0,-4.3606,-4.4002,-4.4498,0.0,0.0,0.0,0.0,0.0,0.0,0.0,0.0,0.0,0.0,-5.5908,-5.7922,-5.8727,-5.9546,-6.075,-6.1428,-6.1927,-6.2272,-6.2834,-6.311,-6.2618,0.0,0.0,0.0,0.0,0.0,0.0,0.0,0.0,0.0,0.0,0.0,0.0,0.0,0.0,0.0,0.0,0.0,0.0,0.0,0.0,0.0,0.0,0.0,0.0,0.0,0.0,0.0,-2.3864,0.0,0.0,-2.3923,0.0,0.0,0.0,0.0,0.0,0.0,0.0,0.0,0.0,0.0,0.0,0.0,0.0,0.0,0.0,0.0,0.0,0.0,0.0,0.0,0.0,0.0,-3.8103,-4.0568,-4.139,-4.2212,-4.3034,-4.387,-4.4281,-4.4281,-4.3445,-4.2585,-4.1726,0.0,0.0,0.0,0.0,0.0,0.0,0.0,0.0,0.0,0.0,0.0,0.0,0.0,0.0,0.0,0.0,0.0,0.0,0.0,0.0,0.0,0.0,0.0,0.0,0.0,0.0,-4.4162,-4.5475,-4.5793,0.0,0.0,0.0,0.0,0.0,0.0,0.0,0.0,0.0,-5.2976,-5.4254,-5.5746,-5.8304,-5.8836,-5.9558,-6.1209,-6.1549,-6.1955,-6.2935,-6.3168,-6.3258,0.0,0.0,0.0,0.0,0.0,0.0,0.0,0.0,0.0,0.0,0.0,0.0,0.0,0.0,0.0,0.0,0.0,0.0,0.0,0.0,0.0,0.0,0.0,0.0,0.0,0.0,0.0,-2.751,-2.802,0.0,0.0,0.0,0.0,0.0,0.0,0.0,0.0,0.0,0.0,0.0,-3.5975,-3.6012,0.0,0.0,0.0,0.0,0.0,0.0,0.0,0.0,0.0,0.0,0.0,0.0,-3.8762,-4.1124,-4.1533,-4.2344,-4.3692,-4.4043,-4.4222,-4.4281,-4.343,-4.2356,-4.0971,0.0,0.0,0.0,0.0,0.0,0.0,0.0,0.0,0.0,0.0,0.0,0.0,0.0,0.0,0.0,0.0,0.0,0.0,0.0,0.0,0.0,0.0,0.0,0.0,0.0,-4.0367,0.0,0.0,0.0,0.0,0.0,0.0,0.0,0.0,0.0,0.0,-4.9475,-5.1928,-5.3779,-5.5777,-5.7439,-5.8419,-5.9566,-6.0524,0.0,0.0,0.0,0.0,0.0,0.0,0.0,0.0,0.0,0.0,0.0,0.0,0.0,-5.9378,-5.8713,-5.7099,-5.7052,-5.7744,-5.9237,0.0,0.0,0.0,0.0,0.0,0.0,0.0,0.0,0.0,0.0,0.0,0.0,0.0,0.0,-2.9525,-3.0449,-3.0174,0.0,0.0,0.0,0.0,0.0,0.0,0.0,0.0,-3.6235,-3.6857,-3.7588,-3.7562,-3.7559,-3.7482,-3.7438,-3.6909,0.0,0.0,0.0,0.0,0.0,0.0,0.0,0.0,-3.9386,-4.1779,-4.189,-4.2588,-4.3949,-4.4023,-4.4039,-4.4101,-4.3267,-4.2158,-4.0814,-3.9305,-3.8028,0.0,0.0,0.0,0.0,0.0,0.0,0.0,0.0,0.0,0.0,0.0,0.0,0.0,0.0,0.0,0.0,0.0,0.0,0.0,0.0,0.0,0.0,0.0,-4.1615,0.0,0.0,0.0,0.0,0.0,0.0,0.0,0.0,0.0,-4.914,-5.1361,-5.3554,-5.5137,-5.6892,-5.8164,-5.8626,0.0,0.0,0.0,0.0,0.0,0.0,0.0,-6.4981,-6.4611,-6.4436,-6.3961,-6.2692,-6.2193,-6.1998,-6.2034,0.0,0.0,-6.0532,-6.0495,-6.1115,-6.2321,-6.2762,-6.3081,-6.3416,-6.3698,-6.4367,0.0,0.0,0.0,0.0,-3.0203,0.0,0.0,0.0,-2.9577,-3.0136,0.0,-3.0736,0.0,0.0,0.0,0.0,-3.4678,-3.3963,0.0,0.0,-3.8051,-3.8407,-3.9045,-3.9036,-3.903,-3.903,-3.8995,-3.8966,-3.8855,-3.74,0.0,0.0,0.0,0.0,0.0,0.0,-4.0132,-4.2369,-4.2495,-4.2901,-4.3767,-4.3804,-4.3804,-4.3767,-4.2975,-4.2126,-4.1366,-4.0425,-3.9319,-3.7843,-3.685,0.0,0.0,0.0,0.0,0.0,0.0,0.0,0.0,0.0,0.0,0.0,0.0,0.0,0.0,0.0,0.0,0.0,0.0,0.0,0.0,-4.1547,0.0,0.0,0.0,0.0,0.0,0.0,0.0,0.0,0.0,-5.0827,-5.1825,-5.2831,-5.4338,-5.6932,0.0,0.0,0.0,0.0,-6.0849,-6.1789,-6.2598,-6.354,-6.4519,-6.4741,-6.49,-6.5128,0.0,0.0,-6.3386,-6.3515,-6.3647,-6.3593,-6.3757,-6.3606,-6.2988,-6.3489,-6.4033,-6.4237,-6.4958,-6.5791,-6.6654,-6.7266,-6.8135,-3.1546,0.0,0.0,0.0,0.0,-3.24,-3.2745,-3.3729,-3.4094,-3.4437,-3.4813,-3.5145,0.0,0.0,0.0,0.0,0.0,0.0,-3.7268,-3.8089,-3.8556,-3.8883,-3.9058,-3.96,-3.9815,-3.9808,-4.0287,-4.0535,-4.0498,-4.0031,-3.9126,-3.788,0.0,0.0,0.0,0.0,-4.1103,-4.2279,-4.2353,-4.2791,-4.3614,-4.3667,-4.3684,-4.3788,-4.289,-4.2304,-4.2099,-4.0678,-3.9727,-3.9265,-3.7904,0.0,0.0,0.0,0.0,0.0,0.0,0.0,0.0,0.0,0.0,0.0,0.0,0.0,0.0,0.0,0.0,0.0,0.0,0.0,-4.1665,-4.4032,-4.5832,0.0,0.0,0.0,0.0,0.0,0.0,0.0,0.0,0.0,-5.3927,-5.4984,-5.5955,0.0,0.0,-5.8455,-5.9361,-6.039,-6.1355,-6.218,-6.3245,0.0,-6.4385,-6.4652,-6.4941,-6.504,-6.507,-6.5078,-6.5064,-6.5127,-6.5211,-6.5313,-6.5919,-6.6301,-6.6203,-6.5918,-6.6047,-6.6666,-6.752,-6.8177,-6.85,-6.8791,-6.9229,-3.3654,-3.4198,-3.3524,-3.3708,-3.445,-3.4448,-3.4658,-3.5092,-3.5607,-3.6103,-3.6591,-3.6429,-3.669,-3.723,-3.633,0.0,0.0,0.0,-3.8277,-3.8471,-3.8859,-3.905,-3.9067,-3.9786,-4.0095,-4.0087,-4.082,-4.1192,-4.1192,-4.1458,-4.1123,-4.0299,0.0,-4.1066,-4.0919,-4.1348,-4.1956,-4.2727,-4.2763,-4.3054,-4.3529,-4.3566,-4.36,-4.3651,-4.3139,-4.27,-4.2369,-4.1364,-4.0708,-4.0377,-3.9129,-3.8117,0.0,0.0,0.0,0.0,0.0,0.0,0.0,0.0,0.0,0.0,0.0,-3.3149,-3.5872,0.0,0.0,0.0,-3.9685,-4.0989,-4.389,-4.5094,0.0,0.0,0.0,0.0,0.0,0.0,0.0,-4.8627,-5.1128,-5.3267,-5.4605,-5.5874,-5.6794,-5.7042,-5.7735,-5.8504,-5.9382,0.0,-6.1453,-6.2271,-6.3307,-6.4058,-6.4142,-6.4366,-6.4652,-6.4903,-6.5236,-6.5479,-6.5622,-6.5947,-6.632,-6.6533,-6.7209,-6.7884,-6.8032,-6.7919,-6.795,-6.828,-6.9031,-6.9623,-6.9712,-7.0024,-7.0445,-3.5106,-3.6373,-3.4912,-3.4737,-3.5348,-3.5292,-3.5258,-3.5202,-3.5201,-3.6013,-3.7236,-3.5834,-3.5953,-3.7212,-3.6366,0.0,-3.8166,-3.8115,-3.8486,-3.9188,-3.905,-3.8993,-3.9001,-3.9755,-4.0083,-4.0105,-4.0924,-4.1279,-4.1368,-4.2066,-4.2396,-4.2359,-4.1645,-4.1662,-4.2359,-4.2396,-4.2763,-4.3461,-4.3461,-4.3497,-4.3497,-4.3497,-4.3497,-4.3497,-4.3497,-4.3147,-4.2433,-4.2323,-4.1956,-4.1205,-4.0414,-3.9643,-3.8909,0.0,0.0,0.0,0.0,0.0,0.0,0.0,0.0,0.0,0.0,0.0,0.0,0.0,0.0,-4.0198,-4.2015,0.0,-4.5067,-4.5304,0.0,0.0,0.0,-4.7345,-4.8859,-4.9096,-4.955,-5.0604,0.0,0.0,-5.4353,-5.5816,-5.6959,-5.7486,-5.7786,-5.828,-5.9148,-6.0245,-6.1263,-6.2174,-6.3029,-6.3632,-6.3851,-6.4042,-6.4344,-6.4781,-6.5161,-6.5352,-6.5566,-6.6265,-6.6918,-6.7179,-6.7937,-6.8602,-6.876,-6.943,-6.9902,-6.9419,-6.9916,-7.0401,-7.0526,-7.1076,-7.1644,-3.6429,-3.7394,-3.7566,-3.7357,-3.6862,-3.6871,-3.6811,-3.6804,-3.736,-3.7845,-3.8154,-3.8284,-3.8213,-3.7854,-3.703,-3.7156,-3.8039,-3.8026,-3.8393,-3.9013,-3.9007,-3.8935,-3.8907,-4.0262,-4.0861,-4.0944,-4.2249,-4.2964,-4.2947,-4.3094,-4.3221,-4.3221,-4.302,-4.302,-4.3221,-4.3221,-4.3294,-4.3497,-4.3497,-4.3497,-4.3497,-4.3497,-4.3497,-4.3497,-4.3497,-4.3441,-4.3221,-4.2616,-4.2213,-4.2029,-4.1258,-4.0728,-4.0545,-3.9019,0.0,0.0,0.0,0.0,0.0,0.0,0.0,0.0,0.0,-3.8268,-4.0492,0.0,-4.1981,0.0,-4.4448,-4.5635,-4.658,-4.671,0.0,0.0,-4.8425,-4.8022,-4.8434,-4.903,-4.9794,-5.0786,-5.2431,-5.3896,-5.5023,-5.6044,-5.6786,-5.7087,-5.7289,-5.7971,-5.9517,-6.0212,-6.1087,-6.2509,-6.3248,-6.3602,-6.3691,-6.4016,-6.4344,-6.4577,-6.4833,-6.5251,-6.6048,-6.6475,-6.6987,-6.7745,-6.8677,-6.9284,-6.945,-7.0254,-7.1042,-7.1485,-7.1435,-7.1249,-7.1326,-7.1521,-7.1683,-3.747,-3.8204,-3.8591,-3.8612,-3.8375,-3.8077,-3.7862,-3.7766,-3.7853,-3.7833,-3.7739,-3.8128,-3.8215,-3.8027,-3.7554,-3.775,-3.8414,-3.8451,-3.8619,-3.895,-3.8921,-3.8862,-3.8862,-4.042,-4.1144,-4.1132,-4.2727,-4.3497,-4.3497,-4.3497,-4.3497,-4.3497,-4.3497,-4.3497,-4.3497,-4.3497,-4.3497,-4.3497,-4.3497,-4.3497,-4.3497,-4.3497,-4.3497,-4.3497,-4.3497,-4.3497,-4.3497,-4.3057,-4.2837,-4.28,-4.2066,-4.1609,-4.1609,-4.0451,-3.9323,0.0,0.0,0.0,0.0,0.0,0.0,0.0,0.0,0.0,0.0,0.0,-4.389,-4.5399,-4.604,-4.6752,-4.7811,-4.7969,-4.8537,-4.9804,-4.9245,-4.887,-4.9191,-4.9637,-5.0305,-5.1341,-5.2604,-5.3855,-5.4963,-5.5892,-5.6492,-5.6707,-5.7153,-5.8037,-5.9572,-6.0188,-6.0981,-6.261,-6.3194,-6.3465,-6.3579,-6.3995,-6.4324,-6.4424,-6.4708,-6.5189,-6.6091,-6.6755,-6.7452,-6.8411,-6.9321,-7.0028,-7.0219,-7.0632,-7.1363,-7.209,-7.1899,-7.1619,-7.1988,-7.1827,-7.163,-3.828,-3.8955,-3.8881,-3.918,-3.9644,-3.8871,-3.8463,-3.8237,-3.7537,-3.7129,-3.7044,-3.6982,-3.7303,-3.7947,-3.7782,-3.8123,-3.883,-3.883,-3.8861,-3.8877,-3.8818,-3.8773,-3.8869,-4.0373,-4.1095,-4.1168,-4.2727,-4.3497,-4.3497,-4.3497,-4.3497,-4.3497,-4.3497,-4.3497,-4.3497,-4.3497,-4.3497,-4.3497,-4.3497,-4.3497,-4.3497,-4.3497,-4.3497,-4.3497,-4.3497,-4.3497,-4.3497,-4.3497,-4.3497,-4.3478,-4.2837,-4.247,-4.2416,-4.1702,-4.0886,0.0,-3.9887,0.0,0.0,0.0,0.0,0.0,0.0,0.0,0.0,-4.343,-4.5304,-4.6993,-4.6951,-4.7361,-4.8672,-4.8888,-4.9284,-5.0039,-4.9597,-4.9542,-5.0237,-5.0446,-5.0878,-5.1927,-5.2755,-5.364,-5.4762,-5.5638,-5.6169,-5.6427,-5.7163,-5.8188,-5.9424,-6.0124,-6.1031,-6.2547,-6.2978,-6.3265,-6.3534,-6.3953,-6.4244,-6.4284,-6.4728,-6.529,-6.6141,-6.7154,-6.8164,-6.9115,-6.9868,-7.0455,-7.0801,-7.0948,-7.1427,-7.2442,-7.2001,-7.1722,-7.2334,-7.2066,-7.1611,-3.9089,-3.983,-3.9635,-3.9637,-3.9632,-3.8722,-3.8312,-3.819,-3.7991,-3.7853,-3.7724,-3.7697,-3.7742,-3.7692,-3.705,-3.7221,-3.7946,-3.7946,-3.8235,-3.8803,-3.8788,-3.878,-3.883,-4.0341,-4.1095,-4.1205,-4.2727,-4.3497,-4.3497,-4.3497,-4.3497,-4.3497,-4.3497,-4.3497,-4.3497,0.0,0.0,0.0,-4.3497,-4.3497,-4.3497,-4.3497,-4.3497,-4.3497,-4.3497,0.0,-4.3497,-4.3497,-4.3497,-4.3497,-4.3351,0.0,0.0,0.0,0.0,0.0,0.0,0.0,0.0,0.0,0.0,0.0,-4.3194,-4.3549,-4.3696,-4.4284,-4.5252,-4.6558,-4.7202,-4.79,-4.8706,-4.8838,-4.9177,-4.9902,-4.9343,-4.9205,-4.9994,-5.0581,-5.1331,-5.2299,-5.3058,-5.3973,-5.5121,-5.5555,-5.5799,-5.624,-5.7041,-5.8021,-5.9059,-6.0078,-6.1121,-6.224,-6.2805,-6.3123,-6.3382,-6.3742,-6.3979,-6.4096,-6.4948,-6.588,-6.673,-6.7807,-6.8805,-6.9675,-7.0154,-7.0419,-7.0515,-7.1266,-7.2182,-7.3083,-7.2675,-7.2357,-7.2622,-7.2016,-7.1455,-3.9688,-4.0086,-3.9856,-3.9754,0.0,-3.9076,-3.8565,-3.8116,-3.7642,-3.7378,-3.7283,-3.7243,-3.741,-3.7659,-3.7267,-3.7497,-3.8243,-3.8243,-3.842,-3.8728,-3.875,-3.8735,-3.8762,-4.0325,-4.1095,-4.1168,-4.2727,-4.3497,-4.3497,-4.3497,-4.3497,-4.3497,-4.3497,-4.3497,-4.3497,-4.3497,-4.3497,-4.3497,-4.3497,-4.3497,-4.3497,-4.3497,-4.3497,-4.3497,-4.3497,0.0,0.0,0.0,0.0,0.0,0.0,0.0,0.0,-4.4035,0.0,-4.3864,-4.348,-4.3386,-4.3721,-4.345,-4.3461,-4.3909,-4.4589,-4.4869,-4.4589,-4.4579,-4.5346,-4.7084,-4.7465,-4.807,-4.9108,-4.9188,-4.9296,-4.9674,-4.9399,-4.9497,-5.0307,-5.0754,-5.1533,-5.2809,-5.3359,-5.4001,-5.5134,-5.5294,-5.5648,-5.6294,-5.7204,-5.8188,-5.9252,-6.0231,-6.1207,-6.2303,-6.278,-6.3075,-6.3265,-6.3587,-6.3888,-6.4011,-6.4861,-6.5968,-6.6935,-6.7941,-6.8943,-6.9795,-7.0164,-7.0417,-7.0992,-7.162,-7.2506,-7.3538,-7.3162,-7.2686,-7.301,-7.2263,-7.1396,-4.0106,-4.0086,-3.9785,-3.9708,-3.9696,-3.9502,-3.8949,-3.8201,-3.7353,0.0,0.0,-3.686,-3.7261,-3.7889,-3.7889,-3.8228,-3.8758,-3.8795,-3.8765,-3.8689,-3.8689,-3.8799,-3.8982,-4.0398,-4.1185,-4.1389,-4.28,-4.3497,-4.3497,-4.3497,-4.3497,-4.3497,-4.3497,-4.3497,-4.3497,-4.3497,-4.3588,-4.3698,-4.3571,-4.3588,-4.3698,-4.3718,-4.3791,-4.3938,-4.3884,-4.3884,-4.392,-4.3832,-4.409,-4.4748,-4.4637,-4.4834,-4.5335,-4.5332,-4.5244,-4.5042,-4.495,-4.4804,-4.4539,-4.3872,-4.3863,-4.4858,-4.5291,-4.53,-4.4764,-4.4808,-4.5658,-4.761,-4.7698,-4.8209,-4.9512,-4.956,-4.9471,-4.9471,-4.9471,-4.9868,-5.0678,-5.0982,-5.1691,-5.3142,-5.3552,-5.3956,-5.4765,-5.5162,-5.5588,-5.6465,-5.749,-5.8643,-5.9886,-6.068,-6.1388,-6.2329,-6.278,-6.3002,-6.3194,-6.3557,-6.3839,-6.4193,-6.5078,-6.6073,-6.7103,-6.8071,-6.8963,-6.9758,-7.0039,-7.0563,-7.1422,-7.1931,-7.2755,-7.4326,-7.3542,-7.2752,-7.3393,-7.2507,-7.1422,-4.0106,-4.0086,-3.9785,-3.9708,-3.9696,-3.9452,-3.9192,-3.8827,-3.8021,-3.7581,-3.7514,-3.8177,-3.8501,-3.8573,-3.8573,-3.8646,-3.8704,-3.8704,-3.8689,-3.8689,-3.8689,-3.9093,-3.9753,-4.0671,-4.1462,-4.2176,-4.3057,-4.3497,-4.3497,-4.3497,-4.3497,-4.3497,-4.3497,-4.3497,-4.3497,-4.3497,-4.3828,-4.4488,-4.3864,-4.3828,-4.4507,-4.4525,-4.4856,-4.5516,-4.548,-4.548,-4.5462,-4.535,-4.5311,-4.542,-4.5324,-4.5263,-4.5292,-4.5127,-4.5186,-4.5614,-4.5427,-4.5481,-4.589,-4.5698,-4.5486,-4.5278,-4.482,-4.4475,-4.4431,-4.5519,-4.6522,-4.7261,-4.7854,-4.8612,-4.9398,-4.95,-4.9505,-4.9505,-4.9505,-4.9842,-5.0594,-5.1244,-5.1959,-5.2912,-5.353,-5.4068,-5.4494,-5.5107,-5.5744,-5.6501,-5.7864,-5.9359,-6.0629,-6.1407,-6.1833,-6.2344,-6.2654,-6.2904,-6.3171,-6.3534,-6.404,-6.4887,-6.5828,-6.6783,-6.7755,-6.8729,-6.9472,-6.97,-6.991,-7.04,-7.1324,-7.2244,-7.321,-7.4289,-7.3812,-7.3325,-7.3574,-7.2351,-7.1347,-4.0137,-4.0048,-3.9856,-3.9743,-3.9696,-3.9489,-3.9239,-3.8913,-3.8566,-3.836,-3.8273,-3.8581,-3.8735,-3.8689,-3.8689,-3.8689,-3.8689,-3.8689,-3.8689,-3.8689,-3.8689,-3.9129,-3.99,-4.0728,-4.1499,-4.2323,-4.313,-4.3497,-4.3497,-4.3497,-4.3497,-4.3497,-4.3497,-4.3497,-4.3497,-4.3938,-4.4342,-4.4654,-4.4342,-4.4525,-4.5333,-4.5315,-4.548,-4.5847,-4.5735,-4.5715,-4.5678,-4.5525,-4.5665,-4.6045,-4.5879,-4.5873,-4.6219,-4.6024,-4.598,-4.6023,-4.5917,-4.5842,-4.587,-4.5701,-4.5295,-4.4654,-4.4662,-4.4643,-4.4563,-4.561,-4.6508,-4.7147,-4.7846,-4.8537,-4.9252,-4.926,-4.9263,-4.9233,-4.9539,-5.0178,-5.0989,-5.1739,-5.252,-5.3299,-5.3741,-5.4045,-5.4207,-5.4991,-5.5805,-5.67,-5.8468,-6.0088,-6.0897,-6.1415,-6.1868,-6.2328,-6.2552,-6.283,-6.316,-6.3419,-6.3981,-6.4905,-6.5902,-6.6919,-6.7894,-6.895,-6.9544,-6.9699,-6.9873,-7.0553,-7.1765,-7.2553,-7.3543,-7.4702,-7.4136,-7.3563,-7.338,-7.2314,-7.1506,-4.0166,-4.0096,-3.9889,-3.9754,-3.9625,-3.9476,-3.9212,-3.8906,-3.8892,-3.8848,-3.878,-3.8719,-3.8689,-3.8689,-3.8689,-3.8689,-3.8689,-3.8689,-3.8689,-3.8726,-3.8872,-3.9386,-4.0194,-4.1001,-4.1809,-4.2543,-4.3221,-4.3497,-4.3497,-4.3497,-4.3497,-4.3497,-4.3497,-4.3571,-4.3791,-4.4343,-4.4856,-4.5168,-4.5187,-4.548,-4.614,-4.6084,-4.6101,-4.6283,-4.6149,-4.6071,-4.6051,-4.5872,-4.6024,-4.6597,-4.6356,-4.6422,-4.6858,-4.6754,-4.6518,-4.6204,-4.6045,-4.5879,-4.5468,-4.5257,-4.4856,-4.4182,-4.4626,-4.4981,-4.5082,-4.5784,-4.6488,-4.7101,-4.7869,-4.8561,-4.9036,-4.9046,-4.9018,-4.9052,-4.9661,-5.0401,-5.1308,-5.2089,-5.2869,-5.3713,-5.3882,-5.395,-5.4322,-5.5035,-5.6157,-5.7615,-5.9338,-6.0508,-6.0818,-6.1241,-6.1728,-6.2195,-6.2511,-6.2755,-6.3123,-6.3349,-6.3942,-6.5001,-6.5859,-6.6896,-6.7953,-6.8993,-6.9481,-6.9677,-7.0043,-7.0839,-7.228,-7.2996,-7.3858,-7.508,-7.4328,-7.3236,-7.2827,-7.2019,-7.1522,-4.0166,-4.0086,-3.99,-3.9661,-3.9438,-3.9399,-3.9212,-3.8943,-3.8929,-3.884,-3.8704,-3.8689,-3.8689,-3.8689,-3.8689,-3.8689,-3.8689,-3.8689,-3.8726,-3.8836,-3.946,-4.0194,-4.1022,-4.1809,-4.2616,-4.3277,-4.3461,-4.3497,-4.3497,-4.3497,-4.3497,-4.3497,-4.3497,-4.3864,-4.4507,-4.4619,-4.5333,-4.6724,-4.6664,-4.6701,-4.687,-4.6774,-4.7044,-4.7793,-4.7591,-4.7503,-4.7409,-4.7255,-4.7118,-4.7115,-4.6945,-4.6799,-4.6661,-4.6398,-4.6204,-4.5995,-4.5701,-4.5336,-4.5069,-4.5015,-4.4899,-4.4763,-4.4735,-4.5054,-4.5557,-4.6302,-4.6743,-4.7081,-4.8135,-4.8914,-4.9015,-4.9018,-4.9018,-4.9154,-4.9729,-5.0371,-5.1216,-5.186,-5.2671,-5.3416,-5.3551,-5.3923,-5.4768,-5.5687,-5.7052,-5.8828,-5.9765,-6.0485,-6.0757,-6.1087,-6.153,-6.1942,-6.2344,-6.273,-6.3075,-6.3326,-6.4156,-6.5649,-6.6164,-6.7046,-6.8309,-6.901,-6.931,-6.9635,-7.0322,-7.1237,-7.2263,-7.3193,-7.4139,-7.4962,-7.427,-7.2854,-7.1709,-7.121,-7.1502,-4.0186,-4.0058,-3.9922,-3.9684,-3.9412,-3.9386,-3.9212,-3.8943,-3.8929,-3.884,-3.8689,-3.8689,-3.8689,-3.8689,-3.8689,-3.8689,-3.8689,-3.8689,-3.8982,-3.9386,-3.9753,-4.0561,-4.1772,-4.2139,-4.2727,-4.3441,-4.3497,-4.3497,-4.3497,-4.3497,-4.3497,-4.3551,-4.3938,-4.438,-4.4693,-4.5571,-4.632,-4.6847,-4.7239,-4.7434,-4.7413,-4.7373,-4.7497,-4.7767,-4.7615,-4.745,-4.7428,-4.7232,-4.7133,-4.7066,-4.6731,-4.6495,-4.6374,-4.6105,-4.5879,-4.5641,-4.5336,-4.5103,-4.4886,-4.4886,-4.4831,-4.4665,-4.4699,-4.4976,-4.5635,-4.6346,-4.6955,-4.7496,-4.8409,-4.9018,-4.9018,-4.9018,-4.9154,-4.9627,-5.0304,-5.1048,-5.1792,-5.2536,-5.3179,-5.3484,-5.3518,-5.389,-5.494,-5.6336,-5.7805,-5.9311,-5.9946,-6.0329,-6.0635,-6.0974,-6.1357,-6.1812,-6.2132,-6.25,-6.2916,-6.3627,-6.452,-6.5686,-6.6593,-6.7537,-6.8496,-6.9094,-6.9289,-6.9574,-7.0451,-7.1367,-7.2339,-7.3232,-7.4181,-7.4722,-7.427,-7.2784,-7.1258,-7.0992,-7.1633,-4.0196,-4.0086,-3.99,-3.9649,-3.9386,-3.936,-3.9161,-3.8943,-3.8929,-3.884,-3.8689,-3.8689,-3.8689,-3.8689,-3.8689,-3.8799,-3.9019,-3.9019,-3.946,-4.0194,-4.0451,-4.1185,-4.2249,-4.2543,-4.291,-4.3404,-4.3497,-4.3497,-4.3497,-4.3497,-4.3608,-4.3866,-4.438,-4.4839,-4.5296,-4.6391,-4.6954,-4.709,-4.757,-4.7735,-4.7615,-4.7572,-4.7572,-4.7572,-4.7385,-4.7254,-4.7209,-4.703,-4.687,-4.6754,-4.6423,-4.6154,-4.603,-4.5803,-4.5546,-4.5257,-4.5042,-4.4886,-4.4782,-4.472,-4.4692,-4.4615,-4.4581,-4.4993,-4.5872,-4.6481,-4.7225,-4.8108,-4.868,-4.9018,-4.9018,-4.9018,-4.9323,-5.0033,-5.0777,-5.1488,-5.2198,-5.301,-5.3484,-5.3518,-5.3721,-5.4296,-5.5519,-5.7157,-5.8663,-5.9382,-5.9816,-6.0139,-6.0454,-6.0793,-6.1146,-6.1587,-6.1914,-6.2318,-6.2778,-6.3653,-6.4733,-6.5753,-6.6685,-6.7668,-6.8605,-6.8945,-6.9407,-6.9821,-7.0671,-7.1648,-7.2734,-7.3591,-7.3973,-7.434,-7.3926,-7.2716,-7.1203,-7.1016,-7.1776,-4.0166,-4.0065,-3.9739,-3.9539,-3.9386,-3.9256,-3.9106,-3.8929,-3.8929,-3.8825,-3.8689,-3.8689,-3.8689,-3.8762,-3.8799,-3.9129,-3.9753,-3.9827,-4.0267,-4.1075,-4.1772,-4.2213,-4.2323,-4.3057,-4.3424,-4.3497,-4.3497,-4.3497,-4.3497,-4.3534,-4.3849,-4.451,-4.4675,-4.5351,-4.6404,-4.669,-4.7025,-4.7518,-4.7521,-4.745,-4.7341,-4.7267,-4.7267,-4.7298,-4.7245,-4.7133,-4.702,-4.687,-4.6637,-4.6242,-4.6228,-4.603,-4.5684,-4.5494,-4.523,-4.4913,-4.4831,-4.4748,-4.4643,-4.4581,-4.4581,-4.4615,-4.4682,-4.5224,-4.6481,-4.6819,-4.7462,-4.8781,-4.8951,-4.9018,-4.9018,-4.9018,-4.9357,-5.0101,-5.0777,-5.1488,-5.2266,-5.3078,-5.345,-5.3619,-5.4161,-5.5247,-5.6986,-5.8427,-5.901,-5.9351,-5.9617,-5.9911,-6.0202,-6.0543,-6.0938,-6.1357,-6.1756,-6.2185,-6.2789,-6.3836,-6.4832,-6.5766,-6.6738,-6.7662,-6.8301,-6.8926,-6.9469,-7.0195,-7.1148,-7.2147,-7.3237,-7.3797,-7.3897,-7.3944,-7.3576,-7.2456,-7.1118,-7.0989,-7.175,-4.0068,-3.99,-3.967,-3.9527,-3.9373,-3.9215,-3.9064,-3.8892,-3.8848,-3.8758,-3.8704,-3.8689,-3.8982,-3.9496,-3.946,-3.9606,-3.9937,-4.0414,-4.1111,-4.1846,-4.2176,-4.258,-4.3057,-4.3387,-4.3497,-4.3497,-4.3497,-4.3497,-4.3571,-4.3959,-4.4345,-4.473,-4.5588,-4.6239,-4.6626,-4.713,-4.7368,-4.7414,-4.7385,-4.732,-4.7245,-4.7201,-4.7133,-4.6985,-4.6939,-4.6952,-4.6906,-4.659,-4.635,-4.6228,-4.598,-4.5701,-4.5468,-4.5177,-4.4968,-4.4803,-4.4692,-4.4671,-4.4615,-4.4581,-4.4581,-4.4649,-4.506,-4.5669,-4.6616,-4.7259,-4.7936,-4.8748,-4.9018,-4.9018,-4.9018,-4.9018,-4.9492,-5.0574,-5.1048,-5.1725,-5.2773,-5.3348,-5.3518,-5.372,-5.4737,-5.6167,-5.7261,-5.8393,-5.9149,-5.9285,-5.952,-5.9748,-6.0075,-6.0419,-6.0818,-6.1241,-6.1644,-6.2214,-6.3179,-6.4248,-6.5248,-6.5952,-6.6827,-6.7813,-6.8589,-6.8805,-6.9251,-7.0278,-7.1363,-7.2385,-7.3363,-7.4232,-7.4239,-7.3285,-7.2924,-7.2416,-7.1029,-7.0892,-7.1734,-4.0007,-3.9789,-3.9623,-3.9502,-3.9373,-3.9161,-3.9007,-3.8929,-3.9113,-3.9133,-3.9145,-3.935,-3.979,-4.0267,-4.0561,-4.0671,-4.0708,-4.1258,-4.1919,-4.2616,-4.269,-4.2983,-4.3441,-4.3497,-4.3497,-4.3534,-4.3754,-4.3884,-4.3922,-4.4638,-4.5077,-4.5367,-4.6292,-4.6771,-4.6897,-4.734,-4.7486,-4.7298,-4.7254,-4.7223,-4.7088,-4.7066,-4.6975,-4.6754,-4.6684,-4.6661,-4.6661,-4.6374,-4.6154,-4.603,-4.5727,-4.5415,-4.5203,-4.4968,-4.4776,-4.472,-4.4671,-4.4581,-4.4581,-4.4581,-4.4581,-4.4649,-4.5263,-4.6007,-4.6752,-4.7496,-4.8176,-4.8815,-4.9018,-4.9018,-4.9052,-4.9221,-4.9864,-5.0982,-5.142,-5.2063,-5.3281,-5.3484,-5.3754,-5.433,-5.5349,-5.6542,-5.7602,-5.8393,-5.8944,-5.9149,-5.9419,-5.9685,-5.9914,-6.0329,-6.0666,-6.1087,-6.1473,-6.2257,-6.3211,-6.427,-6.5478,-6.6259,-6.7124,-6.8074,-6.8578,-6.8721,-6.9332,-7.0398,-7.1426,-7.245,-7.3439,-7.4422,-7.3991,-7.2946,-7.2688,-7.2412,-7.149,-7.0752,-7.1766,-3.9943,-3.972,-3.9601,-3.9552,-3.9509,-3.9328,-3.9061,-3.9224,-3.9725,-3.9963,-3.9974,-4.0655,-4.0912,-4.1242,-4.1735,-4.2176,-4.2213,-4.2286,-4.269,-4.3314,-4.3387,-4.3387,-4.3497,-4.3497,-4.3571,-4.3644,-4.4287,-4.4619,-4.4638,-4.5388,-4.6024,-4.6504,-4.6529,-4.6876,-4.7436,-4.7349,-4.7276,-4.7201,-4.7178,-4.7066,-4.6824,-4.6801,-4.6731,-4.659,-4.6471,-4.6423,-4.6363,-4.6253,-4.6055,-4.5803,-4.5546,-4.5203,-4.4913,-4.4803,-4.472,-4.4643,-4.4615,-4.4615,-4.4581,-4.4581,-4.4581,-4.4716,-4.5297,-4.6109,-4.6752,-4.7564,-4.8308,-4.8849,-4.9018,-4.9018,-4.912,-4.9661,-5.0371,-5.115,-5.1758,-5.2536,-5.3247,-5.3518,-5.4059,-5.5244,-5.5892,-5.6711,-5.7978,-5.8667,-5.8875,-5.9047,-5.9352,-5.9621,-5.9753,-6.0202,-6.0605,-6.0878,-6.1364,-6.2145,-6.3166,-6.423,-6.5469,-6.6614,-6.7492,-6.8334,-6.8506,-6.8724,-6.9551,-7.056,-7.1914,-7.2965,-7.3829,-7.4568,-7.3989,-7.3137,-7.292,-7.2312,-7.1357,-7.0777,-7.1694,-3.9943,-3.9757,-4.0202,-4.0326,-4.028,-4.0459,-4.0569,-4.0539,-4.073,-4.0761,-4.0781,-4.0985,-4.1389,-4.1882,-4.2213,-4.2616,-4.3094,-4.3147,-4.3258,-4.3461,-4.3497,-4.3497,-4.3497,-4.3497,-4.3791,-4.4287,-4.4527,-4.4913,-4.5461,-4.6115,-4.6504,-4.6581,-4.6985,-4.7176,-4.7312,-4.7245,-4.7178,-4.7066,-4.6939,-4.6883,-4.6778,-4.6708,-4.6566,-4.635,-4.6266,-4.6204,-4.6005,-4.593,-4.5803,-4.5546,-4.5363,-4.5096,-4.4858,-4.4692,-4.4671,-4.4581,-4.4581,-4.4581,-4.4581,-4.4615,-4.4615,-4.4852,-4.5737,-4.6447,-4.6887,-4.7936,-4.8714,-4.8984,-4.9018,-4.9018,-4.9221,-5.0168,-5.0913,-5.1183,-5.186,-5.2638,-5.3348,-5.3518,-5.4194,-5.5378,-5.5857,-5.6746,-5.8046,-5.8666,-5.884,-5.8978,-5.9319,-5.9588,-5.972,-6.0171,-6.064,-6.0818,-6.1407,-6.2241,-6.3518,-6.4649,-6.5693,-6.6806,-6.7737,-6.8309,-6.8457,-6.8913,-6.9716,-7.0952,-7.2309,-7.3327,-7.4234,-7.4409,-7.3909,-7.3231,-7.2717,-7.187,-7.0784,-7.0891,-7.1605,-4.0865,-4.0674,-4.1067,-4.1151,-4.1064,-4.1312,-4.136,-4.1314,-4.1519,-4.1568,-4.1589,-4.1882,-4.2249,-4.2653,-4.2727,-4.302,-4.3461,-4.3497,-4.3497,-4.3497,-4.3497,-4.3497,-4.3571,-4.3828,-4.4378,-4.5058,-4.537,-4.5717,-4.6172,-4.6782,-4.7057,-4.6985,-4.7255,-4.7341,-4.7178,-4.7088,-4.702,-4.6893,-4.6778,-4.6684,-4.6637,-4.6518,-4.635,-4.6154,-4.608,-4.593,-4.5761,-4.571,-4.5572,-4.5389,-4.5177,-4.4968,-4.472,-4.4637,-4.4581,-4.4581,-4.4581,-4.4581,-4.4581,-4.4581,-4.475,-4.5156,-4.6109,-4.6921,-4.7327,-4.8376,-4.8984,-4.9018,-4.9018,-4.912,-4.9526,-5.0439,-5.1251,-5.1623,-5.2334,-5.2942,-5.345,-5.3754,-5.4397,-5.5446,-5.6059,-5.6947,-5.8009,-5.8561,-5.8736,-5.8944,-5.9319,-5.9621,-5.9753,-6.0171,-6.0516,-6.096,-6.1664,-6.2724,-6.4106,-6.5131,-6.6006,-6.6959,-6.7919,-6.8259,-6.8432,-6.9013,-6.978,-7.1488,-7.296,-7.3619,-7.4432,-7.4568,-7.432,-7.3494,-7.2472,-7.1707,-7.0879,-7.0512,-7.1091,-4.242,-4.2184,-4.212,-4.1975,-4.1848,-4.1817,-4.1739,-4.1662,-4.2157,-4.2443,-4.2523,-4.2983,-4.3368,-4.3424,-4.3368,-4.3424,-4.3497,-4.3497,-4.3571,-4.3644,-4.3698,-4.3718,-4.3992,-4.4525,-4.5186,-4.5938,-4.6523,-4.683,-4.6934,-4.7413,-4.7756,-4.7421,-4.7327,-4.7254,-4.7156,-4.6952,-4.6801,-4.6801,-4.6661,-4.6542,-4.6423,-4.6277,-4.613,-4.599,-4.5863,-4.5701,-4.5581,-4.5415,-4.5363,-4.531,-4.4995,-4.4748,-4.4643,-4.4581,-4.4581,-4.4581,-4.4581,-4.4581,-4.4581,-4.4581,-4.4919,-4.5568,-4.6312,-4.7124,-4.78,-4.8511,-4.9018,-4.9018,-4.9018,-4.9289,-4.9965,-5.0744,-5.1488,-5.23,-5.2976,-5.3382,-5.3551,-5.4093,-5.4837,-5.5581,-5.6325,-5.7141,-5.8069,-5.8419,-5.8596,-5.884,-5.9217,-5.9521,-5.972,-6.0075,-6.0485,-6.1067,-6.1712,-6.2882,-6.4129,-6.5174,-6.6089,-6.7136,-6.7926,-6.8132,-6.8643,-6.9298,-7.0177,-7.1874,-7.325,-7.3911,-7.4358,-7.4498,-7.3968,-7.2861,-7.2091,-7.1579,-7.1096,-7.0582,-7.0821,-4.242,-4.2259,-4.2761,-4.2865,-4.2781,-4.3125,-4.323,-4.3139,-4.3188,-4.3179,-4.3258,-4.3404,-4.3497,-4.3497,-4.3497,-4.3497,-4.3497,-4.3534,-4.3864,-4.4342,-4.4378,-4.4745,-4.5149,-4.548,-4.5993,-4.669,-4.6868,-4.7136,-4.7644,-4.7617,-4.7551,-4.7363,-4.729,-4.7178,-4.7043,-4.6883,-4.6801,-4.6754,-4.6566,-4.6398,-4.6277,-4.6105,-4.5965,-4.5736,-4.5572,-4.5441,-4.5283,-4.5103,-4.4968,-4.4968,-4.4776,-4.4643,-4.4615,-4.4581,-4.4581,-4.4581,-4.4581,-4.4581,-4.4581,-4.4581,-4.4925,-4.5669,-4.6413,-4.7124,-4.7868,-4.8578,-4.8951,-4.9018,-4.9018,-4.9323,-5.0033,-5.0845,-5.1792,-5.2942,-5.3382,-5.3518,-5.3619,-5.416,-5.4871,-5.5615,-5.6359,-5.7245,-5.7931,-5.8384,-5.8561,-5.8771,-5.9081,-5.9488,-5.9652,-6.001,-6.0388,-6.0975,-6.173,-6.2902,-6.408,-6.5162,-6.6161,-6.7212,-6.782,-6.8015,-6.8752,-6.9657,-7.0785,-7.2224,-7.3217,-7.3971,-7.4197,-7.4358,-7.3344,-7.2473,-7.2162,-7.1826,-7.091,-7.0341,-7.085,-4.3459,-4.3265,-4.3625,-4.3662,-4.3579,-4.3862,-4.3945,-4.3816,-4.3718,-4.3634,-4.3566,-4.3515,-4.3497,-4.3497,-4.3497,-4.3497,-4.3551,-4.3864,-4.4268,-4.4745,-4.5388,-4.5938,-4.6324,-4.6434,-4.6819,-4.7497,-4.7397,-4.7574,-4.7858,-4.7663,-4.7428,-4.7298,-4.7178,-4.7043,-4.6929,-4.6708,-4.6637,-4.659,-4.6374,-4.6179,-4.6105,-4.593,-4.5727,-4.552,-4.5389,-4.523,-4.5049,-4.4886,-4.4776,-4.4754,-4.4643,-4.4581,-4.4581,-4.4581,-4.4581,-4.4581,-4.4581,-4.4581,-4.4581,-4.4615,-4.5122,-4.5974,-4.6616,-4.7327,-4.8173,-4.8781,-4.9018,-4.9018,-4.9018,-4.9526,-5.0507,-5.1522,-5.2503,-5.3281,-5.3518,-5.3518,-5.3518,-5.4465,-5.5141,-5.5818,-5.6596,-5.741,-5.8029,-5.8243,-5.8455,-5.8666,-5.8944,-5.9285,-5.9553,-5.9943,-6.0396,-6.0954,-6.193,-6.3179,-6.4295,-6.5345,-6.6211,-6.7259,-6.7767,-6.7936,-6.9067,-7.0101,-7.1255,-7.2385,-7.3243,-7.3864,-7.4033,-7.4033,-7.3461,-7.2822,-7.2515,-7.1767,-7.0781,-7.0238,-7.0751,-4.4902,-4.4685,-4.451,-4.4368,-4.4229,-4.4116,-4.3992,-4.3881,-4.38,-4.3701,-4.3617,-4.3549,-4.3515,-4.3497,-4.3497,-4.3534,-4.3681,-4.4305,-4.4819,-4.5461,-4.6379,-4.7186,-4.7186,-4.7223,-4.7553,-4.8084,-4.8055,-4.7975,-4.7911,-4.7642,-4.7428,-4.7298,-4.7098,-4.6952,-4.6778,-4.6542,-4.6423,-4.635,-4.6105,-4.593,-4.5854,-4.5649,-4.5468,-4.5336,-4.5203,-4.5049,-4.4858,-4.4748,-4.472,-4.4581,-4.4581,-4.4581,-4.4581,-4.4581,-4.4581,-4.4581,-4.4581,-4.4581,-4.4649,-4.475,-4.5326,-4.6447,-4.6853,-4.7496,-4.8578,-4.8984,-4.9018,-4.9018,-4.9086,-4.9898,-5.1183,-5.2604,-5.3247,-5.3518,-5.3518,-5.3518,-5.3856,-5.4871,-5.5681,-5.5818,-5.7002,-5.7712,-5.7954,-5.8063,-5.8277,-5.8455,-5.8771,-5.9115,-5.9453,-5.9814,-6.0375,-6.0968,-6.2124,-6.3458,-6.4513,-6.5567,-6.6359,-6.721,-6.766,-6.8131,-6.9605,-7.0665,-7.1672,-7.2643,-7.3303,-7.3715,-7.3888,-7.3705,-7.3364,-7.2746,-7.2159,-7.1267,-7.0422,-7.0191,-7.0463,-4.4938,-4.4699,-4.4659,-4.451,-4.4333,-4.4237,-4.4101,-4.3897,-4.3881,-4.3767,-4.3634,-4.36,-4.3549,-4.3497,-4.3588,-4.3828,-4.4378,-4.4782,-4.5278,-4.6672,-4.7553,-4.7993,-4.803,-4.8012,-4.8122,-4.8248,-4.8092,-4.8012,-4.7911,-4.7684,-4.7428,-4.7298,-4.7075,-4.6952,-4.6754,-4.6447,-4.6217,-4.6168,-4.5905,-4.5649,-4.5546,-4.5389,-4.523,-4.5096,-4.4968,-4.4803,-4.4699,-4.4643,-4.4609,-4.4615,-4.4581,-4.4581,-4.4581,-4.4581,-4.4581,-4.4581,-4.4615,-4.4615,-4.4716,-4.5162,-4.5838,-4.6718,-4.7361,-4.8007,-4.8849,-4.9018,-4.9018,-4.912,-4.9526,-5.0439,-5.1826,-5.2909,-5.3416,-5.3518,-5.3518,-5.3721,-5.4329,-5.5141,-5.5649,-5.6055,-5.6968,-5.7881,-5.7918,-5.8063,-5.8205,-5.8312,-5.8596,-5.8978,-5.9319,-5.965,-6.032,-6.0988,-6.2249,-6.3551,-6.4669,-6.5682,-6.6569,-6.7292,-6.7698,-6.8345,-6.9821,-7.0813,-7.1648,-7.251,-7.3272,-7.3564,-7.3678,-7.3651,-7.3391,-7.2568,-7.1723,-7.0973,-7.0343,-7.0176,-7.0132,-4.4912,-4.4751,-4.4646,-4.451,-4.434,-4.4289,-4.4131,-4.3976,-4.3913,-4.3816,-4.3701,-4.3634,-4.3529,-4.3551,-4.3901,-4.4342,-4.4856,-4.5553,-4.6452,-4.7516,-4.814,-4.8306,-4.8306,-4.8306,-4.8287,-4.8287,-4.8151,-4.8052,-4.7931,-4.7726,-4.7508,-4.7298,-4.703,-4.6824,-4.6661,-4.6301,-4.613,-4.603,-4.5727,-4.5468,-4.5389,-4.5203,-4.5049,-4.4913,-4.4776,-4.4671,-4.4615,-4.4581,-4.4581,-4.4581,-4.4581,-4.4581,-4.4581,-4.4581,-4.4581,-4.4581,-4.4615,-4.4818,-4.5128,-4.55,-4.6177,-4.7225,-4.7699,-4.8274,-4.8781,-4.9018,-4.9018,-4.9154,-4.9729,-5.0676,-5.2131,-5.301,-5.345,-5.3518,-5.3518,-5.3822,-5.4532,-5.5243,-5.5886,-5.6292,-5.7205,-5.7712,-5.7954,-5.8027,-5.8099,-5.8241,-5.8419,-5.8806,-5.9149,-5.9554,-6.0301,-6.1114,-6.2376,-6.3569,-6.4787,-6.582,-6.6765,-6.7429,-6.7936,-6.8788,-6.9917,-7.0735,-7.1443,-7.2334,-7.3225,-7.332,-7.3464,-7.3404,-7.3052,-7.2145,-7.1313,-7.0717,-7.0282,-7.0024,-7.0021,-4.495,-4.4802,-4.4605,-4.4482,-4.4397,-4.4252,-4.4131,-4.4039,-4.3945,-4.3881,-4.382,-4.3684,-4.3617,-4.3679,-4.4305,-4.4728,-4.5461,-4.6489,-4.7626,-4.8122,-4.8269,-4.8306,-4.8306,-4.8306,-4.8306,-4.8287,-4.8226,-4.8148,-4.7972,-4.7824,-4.7593,-4.7298,-4.703,-4.6801,-4.6566,-4.6204,-4.598,-4.5939,-4.5546,-4.5336,-4.5257,-4.5042,-4.4858,-4.4776,-4.4699,-4.4615,-4.4615,-4.4615,-4.4587,-4.4587,-4.4553,-4.4553,-4.4553,-4.4615,-4.4581,-4.4581,-4.4581,-4.4953,-4.5466,-4.5872,-4.6515,-4.7804,-4.8041,-4.8345,-4.8849,-4.9052,-4.912,-4.9526,-5.0101,-5.1183,-5.2334,-5.3078,-5.345,-5.3518,-5.3518,-5.3957,-5.4769,-5.5446,-5.5953,-5.6664,-5.7306,-5.7814,-5.7881,-5.7954,-5.8027,-5.8135,-5.8384,-5.8596,-5.8944,-5.9526,-6.0309,-6.1265,-6.2496,-6.3997,-6.5218,-6.6083,-6.6996,-6.7494,-6.8083,-6.9064,-6.9991,-7.0744,-7.1517,-7.2355,-7.3027,-7.3135,-7.3071,-7.288,-7.2348,-7.1532,-7.0954,-7.0417,-7.0084,-6.9853,-7.0004,-4.4984,-4.4889,-4.4738,-4.4592,-4.4454,-4.4362,-4.4244,-4.4169,-4.4039,-4.3945,-4.3865,-4.3767,-4.3684,-4.3858,-4.4359,-4.5388,-4.6562,-4.7553,-4.8122,-4.8306,-4.8306,-4.8306,-4.8306,-4.8306,-4.8287,-4.8267,-4.8246,-4.8148,-4.7992,-4.7886,-4.7657,-4.7341,-4.7178,-4.6975,-4.6566,-4.6228,-4.593,-4.5812,-4.5363,-4.5123,-4.5076,-4.4831,-4.4665,-4.4609,-4.4587,-4.4559,-4.4587,-4.4587,-4.4559,-4.4412,-4.4497,-4.4497,-4.444,-4.4497,-4.4587,-4.4615,-4.4682,-4.506,-4.5737,-4.6346,-4.6989,-4.7834,-4.8409,-4.8748,-4.8984,-4.9052,-4.9323,-5.0101,-5.1048,-5.2266,-5.3179,-5.3416,-5.3484,-5.3518,-5.3687,-5.4329,-5.5716,-5.6156,-5.6325,-5.7171,-5.7645,-5.7881,-5.7881,-5.7881,-5.7954,-5.8099,-5.8348,-5.8525,-5.8736,-5.9494,-6.0417,-6.1478,-6.2611,-6.4251,-6.5782,-6.6496,-6.721,-6.7522,-6.8165,-6.9174,-7.0036,-7.077,-7.1553,-7.2429,-7.2807,-7.289,-7.2721,-7.2425,-7.1875,-7.1218,-7.0649,-7.0113,-6.9846,-6.964,-6.9891,-4.508,-4.4912,-4.4852,-4.4712,-4.4537,-4.4397,-4.4304,-4.4184,-4.4055,-4.3976,-4.3881,-4.3837,-4.3959,-4.4353,-4.5001,-4.6214,-4.748,-4.803,-4.8306,-4.8306,-4.8306,-4.8306,-4.8287,-4.8287,-4.8267,-4.8265,-4.8207,-4.8128,-4.8012,-4.7951,-4.7684,-4.7385,-4.7245,-4.6998,-4.6613,-4.6228,-4.5955,-4.5736,-4.5318,-4.5022,-4.4968,-4.4637,-4.4468,-4.444,-4.4384,-4.4327,-4.4327,-4.4327,-4.4298,-4.4241,-4.427,-4.427,-4.427,-4.4332,-4.4446,-4.4626,-4.4925,-4.5466,-4.6244,-4.6955,-4.7733,-4.8376,-4.8849,-4.8984,-4.9018,-4.9086,-4.956,-5.0608,-5.1522,-5.2638,-5.3382,-5.3484,-5.3518,-5.3585,-5.3822,-5.4905,-5.6224,-5.6697,-5.7374,-5.7949,-5.8084,-5.8118,-5.7881,-5.7881,-5.7881,-5.8027,-5.8243,-5.8421,-5.8597,-5.9564,-6.0591,-6.2005,-6.3244,-6.4638,-6.6059,-6.6671,-6.7182,-6.7485,-6.8384,-6.9394,-7.022,-7.1027,-7.1688,-7.2435,-7.2638,-7.2695,-7.2365,-7.2066,-7.1458,-7.0858,-7.0148,-6.9589,-6.9493,-6.9519,-6.9777,-4.5136,-4.5022,-4.4938,-4.4802,-4.4619,-4.4468,-4.4325,-4.4192,-4.4085,-4.4119,-4.4172,-4.4149,-4.4472,-4.5124,-4.5901,-4.6911,-4.8269,-4.8287,-4.8306,-4.8306,-4.8306,-4.8287,-4.8267,-4.8267,-4.8229,-4.8168,-4.8148,-4.8052,-4.7931,-4.7891,-4.7663,-4.732,-4.7178,-4.6952,-4.6518,-4.6179,-4.5955,-4.5624,-4.5291,-4.5022,-4.4769,-4.4463,-4.4236,-4.4236,-4.4155,-4.4126,-4.4126,-4.4155,-4.4097,-4.4068,-4.4097,-4.4097,-4.4102,-4.4202,-4.4447,-4.4749,-4.5307,-4.6017,-4.6862,-4.7462,-4.8105,-4.8815,-4.8951,-4.9018,-4.9187,-4.9458,-5.0101,-5.1251,-5.2164,-5.2807,-5.3382,-5.3518,-5.3518,-5.3653,-5.4194,-5.5175,-5.6596,-5.7577,-5.8524,-5.8829,-5.866,-5.849,-5.8355,-5.7881,-5.7881,-5.7991,-5.8207,-5.8419,-5.8735,-5.984,-6.1043,-6.2599,-6.3978,-6.5268,-6.6264,-6.6736,-6.7126,-6.7311,-6.8531,-6.9825,-7.0587,-7.1358,-7.1945,-7.2524,-7.2524,-7.2508,-7.2106,-7.1664,-7.1078,-7.0423,-6.9567,-6.9177,-6.9235,-6.9436,-6.9719,-4.5159,-4.508,-4.4962,-4.4827,-4.4685,-4.4537,-4.4435,-4.4304,-4.4251,-4.4585,-4.4994,-4.4959,-4.5281,-4.6007,-4.6673,-4.7498,-4.8086,-4.8306,-4.8287,-4.8287,-4.8287,-4.8248,-4.8226,-4.8207,-4.8148,-4.8068,-4.8012,-4.7927,-4.7783,-4.7741,-4.7508,-4.7156,-4.7043,-4.6778,-4.635,-4.607,-4.5794,-4.5468,-4.5123,-4.4803,-4.4468,-4.4241,-4.4126,-4.4097,-4.4068,-4.4039,-4.4039,-4.4039,-4.401,-4.3956,-4.4044,-4.4044,-4.4085,-4.4708,-4.5005,-4.519,-4.5446,-4.6039,-4.7218,-4.7815,-4.8244,-4.8852,-4.8984,-4.9018,-4.9357,-5.0168,-5.1082,-5.2063,-5.2841,-5.3247,-5.345,-5.3518,-5.3518,-5.3856,-5.4363,-5.575,-5.7205,-5.8592,-5.9539,-5.9945,-5.9877,-5.937,-5.9032,-5.8389,-5.7918,-5.8027,-5.8171,-5.8384,-5.8941,-6.0116,-6.1736,-6.3434,-6.443,-6.5653,-6.63,-6.6838,-6.7097,-6.721,-6.864,-7.011,-7.0624,-7.1284,-7.2092,-7.2496,-7.2532,-7.2459,-7.2251,-7.1729,-7.086,-7.0161,-6.9532,-6.9211,-6.9027,-6.9353,-6.9717,-4.5192,-4.5103,-4.5045,-4.4902,-4.4699,-4.4592,-4.4477,-4.4393,-4.4714,-4.5031,-4.5345,-4.5625,-4.6079,-4.6782,-4.7444,-4.7939,-4.8269,-4.8287,-4.8304,-4.8265,-4.8246,-4.817,-4.8092,-4.8052,-4.8012,-4.7947,-4.7845,-4.7684,-4.7593,-4.7572,-4.7464,-4.7066,-4.6975,-4.6731,-4.6168,-4.6005,-4.5727,-4.5389,-4.4961,-4.4547,-4.4207,-4.4039,-4.3981,-4.4015,-4.3864,-4.3835,-4.3835,-4.3805,-4.3805,-4.3817,-4.4105,-4.4404,-4.4574,-4.5103,-4.5666,-4.6165,-4.6352,-4.6776,-4.7404,-4.8029,-4.8492,-4.879,-4.899,-4.9187,-4.9695,-5.0574,-5.1555,-5.2232,-5.3044,-5.345,-5.3518,-5.3518,-5.3518,-5.3856,-5.4803,-5.6224,-5.778,-5.937,-6.0419,-6.0757,-6.0926,-6.0182,-5.9505,-5.8896,-5.829,-5.7991,-5.8275,-5.8557,-5.9286,-6.0393,-6.2296,-6.4442,-6.5158,-6.5863,-6.633,-6.6809,-6.7069,-6.7457,-6.8851,-7.0008,-7.044,-7.1101,-7.2055,-7.2532,-7.2532,-7.2459,-7.2378,-7.1628,-7.0629,-7.0087,-6.9645,-6.9253,-6.9005,-6.9353,-6.9737,-4.5224,-4.5125,-4.5114,-4.4962,-4.4712,-4.4646,-4.4496,-4.4393,-4.5065,-4.5509,-4.5828,-4.6439,-4.7058,-4.7407,-4.7976,-4.8269,-4.8306,-4.8267,-4.8265,-4.8207,-4.8148,-4.8088,-4.8028,-4.7988,-4.7927,-4.784,-4.7699,-4.7572,-4.7428,-4.7399,-4.7267,-4.6893,-4.6801,-4.6542,-4.6154,-4.5829,-4.552,-4.5062,-4.4659,-4.4293,-4.4068,-4.3864,-4.3805,-4.378,-4.3658,-4.3539,-4.3539,-4.3509,-4.3446,-4.3998,-4.4296,-4.4658,-4.505,-4.5711,-4.6275,-4.6739,-4.7032,-4.7361,-4.7755,-4.818,-4.8639,-4.8803,-4.9167,-4.9632,-5.0338,-5.1048,-5.1826,-5.2638,-5.3112,-5.345,-5.3518,-5.3518,-5.3687,-5.4397,-5.548,-5.6833,-5.822,-5.981,-6.1028,-6.1434,-6.1332,-6.0554,-5.9911,-5.937,-5.8727,-5.8157,-5.8239,-5.8696,-5.9735,-6.0982,-6.261,-6.4723,-6.5338,-6.5867,-6.6269,-6.6691,-6.6983,-6.764,-6.9006,-6.9879,-7.0246,-7.1183,-7.2275,-7.2532,-7.2532,-7.2496,-7.2422,-7.1434,-7.0471,-7.0135,-6.9744,-6.9215,-6.9005,-6.9374,-6.9737,-4.5246,-4.5181,-4.5125,-4.4924,-4.4712,-4.4699,-4.4537,-4.452,-4.52,-4.5913,-4.6665,-4.766,-4.8163,-4.8234,-4.8196,-4.8306,-4.8287,-4.8246,-4.8187,-4.8148,-4.8088,-4.7988,-4.7907,-4.7881,-4.784,-4.7699,-4.7593,-4.7428,-4.7276,-4.712,-4.6939,-4.6661,-4.6566,-4.6228,-4.5879,-4.5546,-4.5123,-4.4714,-4.4293,-4.4097,-4.3894,-4.3717,-4.3628,-4.3598,-4.3509,-4.3386,-4.3419,-4.3363,-4.3662,-4.4375,-4.4704,-4.5063,-4.5654,-4.6379,-4.6909,-4.7074,-4.7536,-4.78,-4.7997,-4.819,-4.8483,-4.8748,-4.9246,-5.0079,-5.1017,-5.176,-5.2503,-5.3112,-5.3416,-5.3484,-5.3518,-5.3551,-5.3754,-5.4837,-5.6055,-5.7476,-5.8863,-6.0351,-6.1467,-6.1975,-6.1569,-6.0588,-5.981,-5.9133,-5.866,-5.8019,-5.8687,-5.9109,-6.0601,-6.1849,-6.3062,-6.4517,-6.5204,-6.5736,-6.6213,-6.6542,-6.6903,-6.7578,-6.8726,-6.9462,-6.9921,-7.1068,-7.2438,-7.2504,-7.2504,-7.2504,-7.2304,-7.1315,-7.0581,-7.0306,-6.9843,-6.9225,-6.9138,-6.9498,-6.9796,-4.5224,-4.5136,-4.5114,-4.4998,-4.4827,-4.4738,-4.4879,-4.5215,-4.5888,-4.6834,-4.7806,-4.8346,-4.8495,-4.8344,-4.8287,-4.8267,-4.8209,-4.8226,-4.8128,-4.8008,-4.7963,-4.7866,-4.7819,-4.7777,-4.7699,-4.7593,-4.7428,-4.732,-4.7223,-4.6985,-4.6731,-4.6518,-4.6315,-4.602,-4.5666,-4.5257,-4.4769,-4.4378,-4.4126,-4.3952,-4.3628,-4.3539,-4.3419,-4.3295,-4.3265,-4.3497,-4.3795,-4.3832,-4.4258,-4.4847,-4.5338,-4.5763,-4.6222,-4.6946,-4.7275,-4.7374,-4.7803,-4.7935,-4.8034,-4.8262,-4.8556,-4.9153,-4.9586,-5.0288,-5.1494,-5.2067,-5.264,-5.3146,-5.3484,-5.3484,-5.3518,-5.3551,-5.3923,-5.5209,-5.663,-5.8118,-5.9505,-6.0994,-6.1603,-6.2009,-6.1197,-6.0148,-5.9438,-5.8727,-5.8321,-5.8019,-5.8825,-5.9731,-6.1155,-6.237,-6.3482,-6.4452,-6.5174,-6.5542,-6.6025,-6.6397,-6.6786,-6.7579,-6.8444,-6.9143,-6.9879,-7.1275,-7.2351,-7.238,-7.2475,-7.2532,-7.2169,-7.1259,-7.0692,-7.0428,-6.9831,-6.9162,-6.9289,-6.962,-6.9854,-4.5262,-4.5136,-4.5114,-4.501,-4.4852,-4.5015,-4.5255,-4.5716,-4.6635,-4.7603,-4.8587,-4.8569,-4.8495,-4.8344,-4.8287,-4.8248,-4.8207,-4.8148,-4.8065,-4.7963,-4.7861,-4.7798,-4.7699,-4.7657,-4.7593,-4.7472,-4.732,-4.7245,-4.7111,-4.6883,-4.6613,-4.6374,-4.6094,-4.5794,-4.552,-4.4988,-4.4497,-4.4126,-4.3923,-4.3776,-4.3388,-4.3295,-4.3495,-4.3408,-4.3475,-4.3804,-4.4231,-4.4396,-4.4755,-4.5407,-4.593,-4.6389,-4.6815,-4.7209,-4.7572,-4.7671,-4.7803,-4.7902,-4.8001,-4.8365,-4.8761,-4.9324,-5.0092,-5.0827,-5.1665,-5.2203,-5.2808,-5.3213,-5.3382,-5.345,-5.3551,-5.3957,-5.4735,-5.6055,-5.778,-5.9268,-6.0283,-6.1501,-6.1704,-6.1907,-6.0892,-6.0013,-5.9471,-5.8832,-5.8366,-5.8233,-5.8962,-6.0008,-6.1398,-6.2544,-6.3519,-6.4421,-6.5178,-6.5513,-6.5804,-6.6213,-6.6644,-6.7155,-6.8057,-6.907,-6.9989,-7.1347,-7.2197,-7.2358,-7.2416,-7.2496,-7.205,-7.1268,-7.086,-7.056,-6.983,-6.9065,-6.9332,-6.962,-6.9835,-4.5246,-4.5192,-4.5163,-4.5,-4.4926,-4.5617,-4.5843,-4.5993,-4.7276,-4.8198,-4.8568,-4.8569,-4.8495,-4.8325,-4.8287,-4.8265,-4.8168,-4.8032,-4.7968,-4.7881,-4.772,-4.7678,-4.7636,-4.7572,-4.7472,-4.7428,-4.7312,-4.7133,-4.6998,-4.6708,-4.6447,-4.6094,-4.5743,-4.5459,-4.5336,-4.4824,-4.4293,-4.386,-4.3717,-4.3446,-4.3204,-4.3178,-4.3541,-4.3773,-4.3972,-4.43,-4.4789,-4.4886,-4.5276,-4.5961,-4.6157,-4.6582,-4.7174,-4.7305,-4.7504,-4.7504,-4.767,-4.7803,-4.7869,-4.863,-4.9294,-4.9693,-5.0559,-5.136,-5.1865,-5.2402,-5.2838,-5.3144,-5.3213,-5.3348,-5.3889,-5.4667,-5.5612,-5.7133,-5.889,-6.0076,-6.1057,-6.1738,-6.1975,-6.1806,-6.0892,-6.0047,-5.9539,-5.9038,-5.8475,-5.8517,-5.9172,-6.025,-6.1606,-6.2753,-6.3694,-6.4286,-6.508,-6.5382,-6.5643,-6.6052,-6.6535,-6.6975,-6.777,-6.8886,-6.9914,-7.1053,-7.1756,-7.213,-7.2321,-7.2372,-7.192,-7.1351,-7.0692,-6.9964,-6.9554,-6.9072,-6.9353,-6.96,-6.9815,-4.5224,-4.5174,-4.5723,-4.5797,-4.5606,-4.5844,-4.6422,-4.7295,-4.8149,-4.8615,-4.8586,-4.8587,-4.8495,-4.8344,-4.8265,-4.8187,-4.8088,-4.7968,-4.7881,-4.7777,-4.7636,-4.7593,-4.7551,-4.7428,-4.7341,-4.729,-4.7133,-4.6975,-4.6847,-4.6518,-4.6193,-4.5844,-4.5302,-4.4872,-4.4708,-4.4406,-4.4039,-4.3717,-4.3539,-4.3328,-4.3056,-4.3385,-4.3778,-4.3976,-4.4334,-4.4854,-4.547,-4.5501,-4.5859,-4.6444,-4.6575,-4.6772,-4.71,-4.7233,-4.7301,-4.7466,-4.7765,-4.8557,-4.9154,-4.9985,-5.0553,-5.0786,-5.1054,-5.1755,-5.2226,-5.2494,-5.2765,-5.2971,-5.3074,-5.3478,-5.4518,-5.4854,-5.5965,-5.8298,-5.9886,-6.0709,-6.1525,-6.2009,-6.2212,-6.1704,-6.096,-6.0042,-5.94,-5.8927,-5.8434,-5.8789,-5.9445,-6.0317,-6.1571,-6.2856,-6.3935,-6.4288,-6.4843,-6.5114,-6.5513,-6.5958,-6.6274,-6.6607,-6.7686,-6.8984,-6.9981,-7.0835,-7.1472,-7.1994,-7.2108,-7.2138,-7.1553,-7.0843,-6.995,-6.9285,-6.9085,-6.9116,-6.9432,-6.9637,-6.9776,-4.5235,-4.519,-4.6016,-4.6404,-4.6474,-4.6711,-4.7513,-4.8402,-4.877,-4.8785,-4.8605,-4.8569,-4.8458,-4.8325,-4.8209,-4.8128,-4.7992,-4.7907,-4.7741,-4.7636,-4.7572,-4.7472,-4.7407,-4.7276,-4.7165,-4.7088,-4.6906,-4.6708,-4.6566,-4.6301,-4.593,-4.5441,-4.479,-4.4401,-4.4207,-4.3948,-4.3776,-4.3545,-4.3432,-4.351,-4.3487,-4.3814,-4.4367,-4.4593,-4.4982,-4.5501,-4.5953,-4.6245,-4.6374,-4.6763,-4.6892,-4.6892,-4.6961,-4.7028,-4.7228,-4.7588,-4.8278,-4.9171,-5.007,-5.0608,-5.1076,-5.1506,-5.1609,-5.1947,-5.2383,-5.2518,-5.2624,-5.2762,-5.3033,-5.3904,-5.4873,-5.5208,-5.7089,-5.9453,-6.0432,-6.1256,-6.1599,-6.2043,-6.2116,-6.1576,-6.1003,-6.0165,-5.9359,-5.8822,-5.8355,-5.9021,-5.9754,-6.0663,-6.1604,-6.2923,-6.4002,-6.4358,-6.4775,-6.5114,-6.5513,-6.5927,-6.6182,-6.6305,-6.7595,-6.9104,-6.975,-7.0531,-7.121,-7.178,-7.1921,-7.1824,-7.1029,-7.0296,-6.9594,-6.916,-6.8996,-6.9138,-6.9474,-6.9637,-6.9756,-4.5305,-4.5278,-4.6066,-4.6771,-4.7343,-4.8018,-4.8672,-4.916,-4.8976,-4.8803,-4.8624,-4.8587,-4.8458,-4.8306,-4.819,-4.8092,-4.7972,-4.7886,-4.772,-4.7572,-4.745,-4.7385,-4.7254,-4.7075,-4.6962,-4.6824,-4.6637,-4.6423,-4.6168,-4.5844,-4.5494,-4.4988,-4.4435,-4.4006,-4.3713,-4.3671,-4.3553,-4.3567,-4.3611,-4.378,-4.3913,-4.4431,-4.4982,-4.5303,-4.5658,-4.6045,-4.6433,-4.6659,-4.6692,-4.6823,-4.6858,-4.6925,-4.6925,-4.6925,-4.741,-4.8096,-4.8949,-4.9782,-5.0546,-5.1056,-5.1394,-5.1894,-5.2233,-5.2371,-5.2442,-5.2577,-5.2782,-5.3119,-5.3523,-5.4362,-5.5202,-5.6842,-5.8446,-5.9828,-6.0866,-6.1381,-6.1616,-6.179,-6.179,-6.1455,-6.0991,-6.0259,-5.9468,-5.8904,-5.8474,-5.8976,-5.9677,-6.0516,-6.1563,-6.3098,-6.4004,-6.4323,-6.474,-6.5182,-6.5578,-6.5895,-6.6146,-6.6305,-6.7842,-6.9279,-6.9787,-7.033,-7.1153,-7.1682,-7.183,-7.1509,-7.0827,-7.0091,-6.9371,-6.9073,-6.8967,-6.916,-6.9495,-6.9637,-6.9776,-4.5691,-4.6167,-4.6927,-4.7669,-4.8321,-4.8865,-4.9165,-4.9176,-4.9064,-4.8892,-4.8587,-4.8587,-4.8495,-4.8287,-4.8131,-4.8052,-4.7911,-4.7747,-4.7578,-4.745,-4.7356,-4.7187,-4.7053,-4.6929,-4.679,-4.6566,-4.6315,-4.6094,-4.5794,-4.5459,-4.4899,-4.4384,-4.4006,-4.3535,-4.3495,-4.3639,-4.3707,-4.3842,-4.3976,-4.4172,-4.4528,-4.5043,-4.5461,-4.5717,-4.6001,-4.6287,-4.6448,-4.6509,-4.6509,-4.6574,-4.6649,-4.6813,-4.7458,-4.7629,-4.8123,-4.9354,-4.9957,-5.0464,-5.112,-5.1467,-5.1743,-5.2145,-5.2584,-5.2597,-5.2636,-5.2837,-5.3138,-5.3639,-5.4372,-5.5343,-5.6478,-5.7981,-5.9352,-6.0431,-6.1165,-6.1339,-6.1547,-6.1588,-6.1588,-6.1454,-6.0953,-6.0525,-5.9739,-5.894,-5.8618,-5.8991,-5.9596,-6.0472,-6.1592,-6.3057,-6.397,-6.4287,-6.474,-6.5182,-6.5513,-6.5863,-6.6083,-6.6546,-6.8017,-6.9176,-6.9605,-7.0221,-7.1127,-7.1573,-7.1636,-7.1252,-7.0669,-6.9984,-6.9372,-6.9131,-6.9042,-6.9262,-6.9495,-6.9657,-6.9834,-4.6153,-4.6631,-4.7662,-4.8492,-4.905,-4.9333,-4.9321,-4.9214,-4.9135,-4.891,-4.8605,-4.8587,-4.8495,-4.8287,-4.8111,-4.7992,-4.7972,-4.7663,-4.7472,-4.7363,-4.7223,-4.7066,-4.6929,-4.6684,-4.6495,-4.6266,-4.602,-4.5743,-4.5459,-4.4927,-4.435,-4.4006,-4.3628,-4.3465,-4.3449,-4.3747,-4.4172,-4.4399,-4.4657,-4.4753,-4.5138,-4.5584,-4.5805,-4.5897,-4.6173,-4.6234,-4.6262,-4.6262,-4.6426,-4.6649,-4.6892,-4.7245,-4.7955,-4.8421,-4.8893,-4.9997,-5.0464,-5.0834,-5.1294,-5.1867,-5.2081,-5.2421,-5.2992,-5.3235,-5.3383,-5.3592,-5.3993,-5.446,-5.5487,-5.6514,-5.774,-5.8933,-6.0008,-6.1086,-6.1193,-6.1301,-6.1383,-6.1424,-6.1424,-6.1358,-6.1132,-6.0765,-6.0071,-5.9243,-5.8863,-5.9309,-5.9814,-6.052,-6.1647,-6.3017,-6.3791,-6.4216,-6.4741,-6.5216,-6.5545,-6.58,-6.6083,-6.6721,-6.8083,-6.9037,-6.9394,-7.0252,-7.1335,-7.1484,-7.1361,-7.1109,-7.0971,-7.0135,-6.9546,-6.9435,-6.9416,-6.9524,-6.9693,-6.9756,-6.9948,-4.6682,-4.6806,-4.831,-4.9237,-4.9617,-4.9476,-4.9321,-4.916,-4.9098,-4.8892,-4.8642,-4.8605,-4.8476,-4.8287,-4.8092,-4.8012,-4.7891,-4.7621,-4.7385,-4.7276,-4.7075,-4.6906,-4.6637,-4.6423,-4.6193,-4.597,-4.5717,-4.5433,-4.5115,-4.4597,-4.4093,-4.3772,-4.349,-4.3415,-4.3747,-4.4075,-4.4592,-4.5138,-4.5359,-4.5516,-4.5677,-4.6019,-4.6262,-4.6266,-4.6262,-4.6259,-4.6259,-4.6386,-4.6646,-4.7093,-4.7513,-4.7764,-4.8551,-4.9304,-4.9913,-5.0251,-5.0778,-5.1172,-5.1502,-5.2005,-5.2406,-5.2878,-5.3476,-5.4093,-5.4448,-5.4637,-5.5043,-5.5648,-5.6647,-5.7707,-5.8866,-5.9628,-6.0564,-6.1036,-6.1136,-6.121,-6.121,-6.1252,-6.1252,-6.1219,-6.1152,-6.0828,-6.047,-5.9645,-5.9203,-5.9655,-5.9924,-6.0495,-6.1702,-6.3009,-6.3684,-6.418,-6.4776,-6.5249,-6.5447,-6.5736,-6.6115,-6.6931,-6.8156,-6.8893,-6.9249,-7.0325,-7.1578,-7.1648,-7.1633,-7.1635,-7.1367,-7.0742,-7.04,-7.0345,-7.0261,-7.0009,-7.0039,-7.0308,-7.0421,-4.7037,-4.7718,-4.9149,-4.9728,-4.9692,-4.9476,-4.9321,-4.9197,-4.903,-4.8803,-4.8624,-4.8532,-4.842,-4.8287,-4.8092,-4.7992,-4.7911,-4.7578,-4.732,-4.7143,-4.6939,-4.6661,-4.6398,-4.6228,-4.5945,-4.5641,-4.5415,-4.5089,-4.468,-4.4207,-4.3805,-4.3608,-4.3539,-4.3811,-4.4042,-4.4494,-4.5266,-4.5677,-4.5824,-4.5946,-4.6077,-4.6067,-4.6184,-4.608,-4.6044,-4.6036,-4.6095,-4.6475,-4.6665,-4.6982,-4.767,-4.8323,-4.9175,-5.0069,-5.0574,-5.0779,-5.1027,-5.1421,-5.1885,-5.2312,-5.2811,-5.3636,-5.4405,-5.5149,-5.5634,-5.5836,-5.6288,-5.6966,-5.7773,-5.8866,-5.9728,-6.0357,-6.0854,-6.0986,-6.1119,-6.1119,-6.1119,-6.1119,-6.1119,-6.1119,-6.1119,-6.0929,-6.0638,-6.0189,-5.9818,-5.9683,-5.9605,-6.0155,-6.1654,-6.2933,-6.3647,-6.4216,-6.4844,-6.5282,-6.5447,-6.5736,-6.6146,-6.6859,-6.7945,-6.8609,-6.914,-7.0526,-7.1775,-7.1957,-7.2043,-7.2078,-7.2066,-7.1935,-7.1626,-7.1418,-7.1175,-7.0976,-7.1369,-7.1712,-7.1577,-4.7716,-4.8498,-4.9518,-4.9824,-4.9648,-4.943,-4.9241,-4.9044,-4.8855,-4.8678,-4.855,-4.8513,-4.8438,-4.8287,-4.8092,-4.7992,-4.7911,-4.75,-4.7298,-4.7133,-4.6801,-4.6495,-4.6253,-4.597,-4.5692,-4.5415,-4.5069,-4.4714,-4.4236,-4.3864,-4.3575,-4.3633,-4.3908,-4.414,-4.443,-4.5264,-4.5674,-4.5856,-4.5992,-4.6084,-4.6116,-4.604,-4.5968,-4.5932,-4.5927,-4.595,-4.6297,-4.6708,-4.715,-4.7719,-4.8561,-4.9127,-4.9789,-5.0262,-5.064,-5.0922,-5.1268,-5.1706,-5.223,-5.2857,-5.3473,-5.4533,-5.5352,-5.6084,-5.6931,-5.72,-5.7796,-5.8444,-5.8826,-5.9794,-6.0324,-6.092,-6.0986,-6.1086,-6.1119,-6.1119,-6.1119,-6.1119,-6.1119,-6.1119,-6.1119,-6.1053,-6.063,-5.9768,-5.9671,-6.0518,-6.0303,-6.0526,-6.1889,-6.2893,-6.3574,-6.4216,-6.4878,-6.5216,-6.5382,-6.5736,-6.6207,-6.6998,-6.7697,-6.8687,-6.9605,-7.0908,-7.1964,-7.2048,-7.2277,-7.2595,-7.2579,-7.2495,-7.2531,-7.232,-7.2149,-7.1924,-7.2507,-7.2984,-7.2868,-4.8504,-4.9158,-4.9669,-4.9792,-4.9574,-4.9352,-4.916,-4.8925,-4.8714,-4.8569,-4.8532,-4.8494,-4.84,-4.8285,-4.8092,-4.8012,-4.7829,-4.7493,-4.7276,-4.6985,-4.6637,-4.6326,-4.5945,-4.5701,-4.5441,-4.5089,-4.4769,-4.4321,-4.3831,-4.3734,-4.3824,-4.3941,-4.4205,-4.4494,-4.5264,-4.5709,-4.5792,-4.5932,-4.6008,-4.5968,-4.5896,-4.5823,-4.5918,-4.5918,-4.6013,-4.6297,-4.6708,-4.7245,-4.7846,-4.8478,-4.9268,-4.9701,-5.0104,-5.0452,-5.0735,-5.1051,-5.1726,-5.223,-5.2896,-5.3848,-5.4729,-5.5604,-5.6316,-5.708,-5.7972,-5.8596,-5.9124,-5.9497,-5.9845,-6.0283,-6.0779,-6.1086,-6.1044,-6.1119,-6.1119,-6.1119,-6.1119,-6.1119,-6.1119,-6.1119,-6.1086,-6.1086,-6.0423,-5.9562,-5.993,-6.0779,-6.1373,-6.1772,-6.2229,-6.2959,-6.3643,-6.4251,-6.4844,-6.5115,-6.5282,-6.5768,-6.6269,-6.6715,-6.7486,-6.8759,-6.9999,-7.1156,-7.1891,-7.2084,-7.2336,-7.2761,-7.2929,-7.2906,-7.2977,-7.3101,-7.315,-7.3057,-7.336,-7.3783,-7.4047,-4.9184,-4.9719,-4.98,-4.9736,-4.9559,-4.9343,-4.9197,-4.9115,-4.8767,-4.8605,-4.8532,-4.8382,-4.8304,-4.8226,-4.8052,-4.7931,-4.7762,-4.7428,-4.712,-4.6824,-4.6542,-4.6119,-4.5743,-4.5407,-4.5123,-4.4769,-4.4435,-4.4064,-4.3787,-4.3943,-4.4092,-4.4072,-4.5012,-4.5296,-4.5454,-4.5795,-4.5996,-4.604,-4.5932,-4.5891,-4.5886,-4.5945,-4.6202,-4.636,-4.6613,-4.7056,-4.7593,-4.8225,-4.8573,-4.9015,-4.9521,-4.9876,-5.0232,-5.0676,-5.0985,-5.1526,-5.2204,-5.3238,-5.4035,-5.4867,-5.5748,-5.6899,-5.7547,-5.8,-5.868,-5.9274,-5.9663,-5.9857,-6.021,-6.0547,-6.0919,-6.1002,-6.1077,-6.1077,-6.1119,-6.1119,-6.1119,-6.1119,-6.1119,-6.1053,-6.102,-6.0755,-6.0258,-5.9801,-5.9897,-6.0572,-6.0805,-6.1307,-6.254,-6.3165,-6.3747,-6.4252,-6.4844,-6.5115,-6.5316,-6.5863,-6.6336,-6.6679,-6.7306,-6.8651,-6.9957,-7.1254,-7.1842,-7.2048,-7.2446,-7.2872,-7.304,-7.3166,-7.3552,-7.3709,-7.4086,-7.4228,-7.4364,-7.4448,-7.4619]},{"header":{"parameterUnit":"m.s-1","parameterCategory":1,"la1":31.0,"la2":29.5877,"lo1":-88.7671,"lo2":-86.6584,"dy":0.0162,"dx":0.0185,"nx":115,"ny":88,"refTime":"2024-03-02T18:00:00:Z","depth":0,"parameterNumber":3,"parameterNumberName":"V-component_of_WINDS"},"data":[0.0,0.0,0.0,0.0,0.0,0.0,0.0,0.0,0.0,0.0,0.0,0.0,0.0,0.0,0.0,0.0,0.0,0.0,0.0,0.0,0.0,0.0,0.0,0.0,0.0,0.0,0.0,0.0,0.0,0.0,0.0,0.0,0.0,0.0,0.0,0.0,0.0,0.0,0.0,0.0,0.0,0.0,0.0,0.0,0.0,0.0,0.0,0.0,0.0,0.0,0.0,0.0,0.0,0.0,0.0,0.0,0.0,0.0,0.0,0.0,0.0,0.0,0.0,0.0,0.0,0.0,0.0,0.0,0.0,0.0,0.0,0.0,0.0,0.0,0.0,0.0,0.0,0.0,0.0,0.0,0.0,0.0,0.0,0.0,0.0,0.0,0.0,0.0,0.0,0.0,0.0,0.0,0.0,0.0,0.0,0.0,0.0,0.0,0.0,0.0,0.0,0.0,0.0,0.0,0.0,0.0,0.0,0.0,0.0,0.0,0.0,0.0,0.0,0.0,0.0,0.0,0.0,0.0,0.0,0.0,0.0,0.0,0.0,0.0,0.0,0.0,0.0,0.0,0.0,0.0,0.0,0.0,0.0,0.0,0.0,0.0,0.0,0.0,0.0,0.0,0.0,0.0,0.0,0.0,0.0,0.0,0.0,0.0,0.0,0.0,0.0,0.0,0.0,0.0,0.0,0.0,0.0,0.0,0.0,0.0,0.0,0.0,0.0,0.0,0.0,0.0,0.0,0.0,0.0,0.0,0.0,0.0,0.0,0.0,0.0,0.0,0.0,0.0,0.0,0.0,0.0,0.0,0.0,0.0,0.0,0.0,0.0,0.0,0.0,0.0,0.0,0.0,0.0,0.0,0.0,0.0,0.0,0.0,0.0,0.0,0.0,0.0,0.0,0.0,0.0,0.0,0.0,0.0,0.0,0.0,0.0,0.0,0.0,0.0,0.0,0.0,0.0,0.0,0.0,0.0,0.0,0.0,0.0,0.0,0.0,0.0,0.0,0.0,0.0,0.0,0.0,0.0,0.0,0.0,0.0,0.0,0.0,0.0,0.0,0.0,0.0,0.0,0.0,0.0,0.0,0.0,0.0,0.0,0.0,0.0,0.0,0.0,0.0,0.0,0.0,0.0,0.0,0.0,0.0,0.0,0.0,0.0,0.0,0.0,0.0,0.0,0.0,0.0,0.0,0.0,0.0,0.0,0.0,0.0,0.0,0.0,0.0,0.0,0.0,0.0,0.0,0.0,0.0,0.0,0.0,0.0,0.0,0.0,0.0,0.0,0.0,0.0,0.0,0.0,0.0,0.0,0.0,0.0,0.0,0.0,0.0,0.0,0.0,0.0,0.0,0.0,0.0,0.0,0.0,0.0,0.0,0.0,0.0,0.0,0.0,0.0,0.0,0.0,0.0,0.0,0.0,0.0,0.0,0.0,0.0,0.0,0.0,0.0,0.0,0.0,0.0,0.0,0.0,0.0,0.0,0.0,0.0,0.0,0.0,0.0,0.0,0.0,0.0,0.0,0.0,0.0,0.0,0.0,0.0,0.0,0.0,0.0,0.0,0.0,0.0,0.0,0.0,0.0,0.0,0.0,0.0,0.0,0.0,0.0,0.0,0.0,0.0,0.0,0.0,0.0,0.0,0.0,0.0,0.0,0.0,0.0,0.0,0.0,0.0,0.0,0.0,0.0,0.0,0.0,0.0,0.0,0.0,0.0,0.0,0.0,0.0,0.0,0.0,0.0,0.0,0.0,0.0,0.0,0.0,0.0,0.0,0.0,0.0,0.0,0.0,0.0,0.0,0.0,0.0,0.0,0.0,0.0,0.0,0.0,0.0,0.0,0.0,0.0,0.0,0.0,0.0,0.0,0.0,0.0,0.0,0.0,0.0,0.0,0.0,0.0,0.0,0.0,0.0,0.0,0.0,0.0,0.0,0.0,0.0,0.0,0.0,0.0,0.0,0.0,0.0,0.0,0.0,0.0,0.0,0.0,0.0,0.0,0.0,0.0,0.0,0.0,0.0,0.0,0.0,0.0,0.0,0.0,0.0,0.0,0.0,0.0,0.0,0.0,0.0,0.0,0.0,0.0,0.0,0.0,0.0,0.0,0.0,0.0,0.0,0.0,0.0,0.0,0.0,0.0,0.0,0.0,0.0,0.0,0.0,0.0,0.0,0.0,0.0,0.0,0.0,0.0,0.0,0.0,0.0,0.0,0.0,0.0,0.0,0.0,0.0,0.0,0.0,0.0,0.0,0.0,0.0,0.0,0.0,0.0,0.0,0.0,0.0,0.0,0.0,0.0,0.0,0.0,0.0,0.0,0.0,0.0,0.0,0.0,0.0,0.0,0.0,0.0,0.0,0.0,0.0,0.0,0.0,0.0,0.0,0.0,0.0,0.0,0.0,0.0,0.0,0.0,0.0,0.0,0.0,0.0,0.0,0.0,0.0,0.0,0.0,0.0,0.0,0.0,0.0,0.0,0.0,0.0,0.0,0.0,0.0,0.0,0.0,0.0,0.0,0.0,0.0,0.0,0.0,0.0,0.0,0.0,0.0,0.0,0.0,0.0,0.0,0.0,0.0,0.0,0.0,0.0,0.0,0.0,0.0,0.0,0.0,0.0,0.0,0.0,0.0,0.0,0.0,0.0,0.0,0.0,0.0,0.0,0.0,0.0,0.0,0.0,0.0,0.0,0.0,0.0,0.0,0.0,0.0,0.0,0.0,0.0,0.0,0.0,0.0,0.0,0.0,0.0,0.0,0.0,0.0,0.0,0.0,0.0,0.0,0.0,0.0,0.0,0.0,0.0,0.0,0.0,0.0,0.0,0.0,0.0,0.0,0.0,0.0,0.0,0.0,0.0,0.0,0.0,0.0,0.0,0.0,0.0,0.0,0.0,0.0,0.0,0.0,0.0,0.0,0.0,0.0,0.0,0.0,0.0,0.0,0.0,0.0,0.0,0.0,0.0,0.0,0.0,0.0,0.0,0.0,0.0,0.0,0.0,0.0,0.0,0.0,0.0,0.0,0.0,0.0,0.0,0.0,0.0,0.0,0.0,0.0,0.0,0.0,0.0,0.0,0.0,0.0,0.0,0.0,0.0,0.0,0.0,0.0,0.0,0.0,0.0,0.0,0.0,0.0,0.0,0.0,0.0,0.0,0.0,0.0,0.0,0.0,0.0,0.0,0.0,0.0,0.0,0.0,0.0,0.0,0.0,0.0,0.0,0.0,0.0,0.0,0.0,0.0,0.0,0.0,0.0,0.0,0.0,0.0,0.0,0.0,0.0,0.0,0.0,0.0,0.0,0.0,0.0,0.0,0.0,0.0,0.0,0.0,0.0,0.0,0.0,0.0,0.0,0.0,0.0,0.0,0.0,0.0,0.0,0.0,0.0,0.0,0.0,0.0,0.0,0.0,0.0,0.0,0.0,0.0,0.0,0.0,0.0,0.0,0.0,0.0,0.0,0.0,0.0,0.0,0.0,0.0,0.0,0.0,0.0,0.0,0.0,0.0,0.0,0.0,0.0,0.0,0.0,0.0,0.0,0.0,0.0,0.0,0.0,0.0,0.0,0.0,0.0,0.0,0.0,0.0,0.0,0.0,0.0,0.0,0.0,0.0,0.0,0.0,0.0,0.0,0.0,0.0,0.0,0.0,0.0,0.0,0.0,0.0,0.0,0.0,0.0,0.0,0.0,0.0,0.0,0.0,0.0,0.0,0.0,0.0,0.0,0.0,0.0,0.0,0.0,0.0,0.0,0.0,0.0,0.0,0.0,0.0,0.0,0.0,0.0,0.0,0.0,0.0,0.0,0.0,0.0,0.0,0.0,0.0,0.0,0.0,0.0,0.0,0.0,0.0,0.0,0.0,0.0,0.0,0.0,0.0,0.0,0.0,0.0,0.0,0.0,0.0,0.0,0.0,0.0,0.0,0.0,0.0,0.0,0.0,0.0,0.0,0.0,0.0,0.0,0.0,0.0,0.0,0.0,0.0,0.0,0.0,0.0,0.0,0.0,0.0,0.0,0.0,0.0,0.0,0.0,0.0,0.0,0.0,0.0,0.0,0.0,0.0,0.0,0.0,0.0,0.0,0.0,0.0,0.0,0.0,0.0,0.0,0.0,0.0,0.0,0.0,0.0,0.0,0.0,0.0,0.0,0.0,0.0,0.0,0.0,0.0,0.0,0.0,0.0,0.0,0.0,0.0,0.0,0.0,0.0,0.0,0.0,0.0,0.0,0.0,0.0,0.0,0.0,0.0,0.0,0.0,0.0,0.0,0.0,-0.4633,0.0,0.0,0.0,0.0,0.0,0.0,0.0,0.0,0.0,0.0,0.0,0.0,0.0,0.0,0.0,0.0,0.0,0.0,0.0,0.0,0.0,0.0,0.0,0.0,0.0,0.0,0.0,0.0,0.0,0.0,0.0,0.0,0.0,0.0,0.0,0.0,0.0,0.0,0.0,0.0,0.0,0.0,0.0,0.0,0.0,0.0,0.0,0.0,0.0,0.0,0.0,0.0,0.0,0.0,0.0,0.0,0.0,0.0,0.0,0.0,0.0,0.0,0.0,0.0,0.0,0.0,0.0,0.0,0.0,0.0,0.0,0.0,0.0,0.0,0.0,0.0,0.0,0.0,0.0,0.0,0.0,0.0,0.0,0.0,0.0,0.0,0.0,0.0,0.0,0.0,0.0,0.0,0.0,0.0,0.0,0.0,0.0,0.0,0.0,0.0,0.0,0.0,0.0,0.0,0.0,0.0,0.0,0.0,0.0,0.0,-0.4985,-0.518,-0.5126,-0.499,-0.4703,0.0,0.0,0.0,0.0,0.0,0.0,0.0,0.0,0.0,0.0,0.0,0.0,0.0,0.0,0.0,0.0,0.0,0.0,0.0,0.0,0.0,0.0,0.0,0.0,0.0,0.0,0.0,0.0,0.0,0.0,0.0,0.0,0.0,0.0,0.0,0.0,0.0,0.0,0.0,0.0,0.0,0.0,0.0,0.0,0.0,0.0,0.0,0.0,0.0,0.0,0.0,0.0,0.0,0.0,0.0,0.0,0.0,0.0,0.0,0.0,0.0,0.0,0.0,0.0,0.0,0.0,0.0,0.0,0.0,0.0,0.0,0.0,0.0,0.0,0.0,0.0,0.0,0.0,0.0,0.0,0.0,0.0,0.0,0.0,0.0,0.0,0.0,0.0,0.0,0.0,0.0,0.0,0.0,0.0,0.0,0.0,0.0,0.0,0.0,0.0,0.0,0.0,0.0,0.0,0.0,0.0,0.0,0.0,0.0,0.0,0.0,0.0,-0.5259,-0.5027,-0.4794,0.0,0.0,0.0,0.0,0.0,0.0,0.0,0.0,0.0,0.0,0.0,0.0,0.0,0.0,0.0,0.0,0.0,0.0,0.0,0.0,0.0,0.0,0.0,0.0,0.0,0.0,0.0,0.0,0.0,0.0,0.0,0.0,0.0,0.0,0.0,0.0,0.0,0.0,0.0,0.0,0.0,0.0,0.0,0.0,0.0,0.0,0.0,0.0,0.0,0.0,0.0,0.0,0.0,0.0,0.0,0.0,0.0,0.0,0.0,0.0,0.0,0.0,0.0,0.0,0.0,0.0,0.0,0.0,0.0,0.0,0.0,0.0,0.0,0.0,0.0,0.0,0.0,0.0,0.0,0.0,0.0,0.0,0.0,0.0,0.0,0.0,0.0,0.0,0.0,0.0,0.0,0.0,0.0,0.0,0.0,0.0,0.0,0.0,0.0,0.0,0.0,0.0,0.0,0.0,0.0,0.0,0.0,0.0,0.0,0.0,-0.506,-0.5385,-0.5392,0.0,-0.4794,0.0,0.0,0.0,0.0,0.0,0.0,0.0,0.0,0.0,0.0,0.0,0.0,0.0,0.0,0.0,0.0,0.0,0.0,0.0,0.0,0.0,0.0,0.0,0.0,0.0,0.0,0.0,0.0,0.0,0.0,0.0,0.0,0.0,0.0,0.0,0.0,0.0,0.0,0.0,0.0,0.0,0.0,0.0,0.0,0.0,0.0,0.0,0.0,0.0,0.0,0.0,0.0,0.0,0.0,0.0,0.0,0.0,0.0,0.0,0.0,0.0,0.0,0.0,0.0,0.0,0.0,0.0,0.0,0.0,0.0,0.0,0.0,0.0,0.0,0.0,0.0,0.0,0.0,0.0,0.0,0.0,0.0,0.0,0.0,0.0,0.0,0.0,0.0,0.0,0.0,0.0,0.0,0.0,0.0,0.0,0.0,0.0,0.0,0.0,0.0,0.0,0.0,0.0,0.0,0.0,0.0,0.0,0.0,0.0,0.0,-0.506,-0.5392,-0.516,-0.4927,0.0,0.0,0.0,0.0,0.0,0.0,0.0,0.0,0.0,0.0,0.0,0.0,0.0,0.0,0.0,0.0,0.0,0.0,0.0,0.0,0.0,0.0,0.0,0.0,0.0,0.0,0.0,0.0,0.0,0.0,0.0,0.0,0.0,0.0,0.0,0.0,0.0,0.0,0.0,0.0,0.0,0.0,0.0,0.0,0.0,0.0,0.0,0.0,0.0,0.0,0.0,0.0,0.0,0.0,0.0,0.0,0.0,0.0,0.0,0.0,0.0,0.0,0.0,0.0,0.0,0.0,0.0,0.0,0.0,0.0,0.0,0.0,0.0,0.0,0.0,0.0,0.0,0.0,0.0,0.0,0.0,0.0,0.0,0.0,0.0,0.0,0.0,0.0,0.0,0.0,0.0,0.0,0.0,0.0,0.0,0.0,0.0,0.0,0.0,0.0,0.0,0.0,0.0,0.0,0.0,0.0,0.0,0.0,0.0,0.0,-0.5112,-0.5063,-0.5272,-0.4927,-0.4694,-0.4622,0.0,0.0,0.0,0.0,0.0,0.0,0.0,0.0,0.0,0.0,0.0,0.0,0.0,0.0,0.0,0.0,0.0,0.0,0.0,0.0,0.0,0.0,0.0,0.0,0.0,0.0,0.0,0.0,0.0,0.0,0.0,0.0,0.0,0.0,0.0,0.0,0.0,0.0,0.0,0.0,0.0,0.0,0.0,0.0,0.0,0.0,0.0,0.0,0.0,0.0,0.0,0.0,0.0,0.0,0.0,0.0,0.0,0.0,0.0,0.0,0.0,0.0,0.0,0.0,0.0,0.0,0.0,0.0,0.0,0.0,0.0,0.0,0.0,0.0,0.0,0.0,0.0,0.0,0.0,0.0,0.0,0.0,0.0,0.0,0.0,0.0,0.0,0.0,0.0,0.0,0.0,0.0,0.0,0.0,0.0,0.0,0.0,0.0,0.0,0.0,0.0,0.0,0.0,0.0,0.0,0.0,0.0,0.0,-0.5404,-0.521,-0.5099,-0.5113,-0.4788,-0.4622,0.0,0.0,0.0,0.0,0.0,0.0,0.0,0.0,0.0,0.0,0.0,0.0,0.0,0.0,0.0,0.0,0.0,0.0,0.0,0.0,0.0,0.0,0.0,0.0,0.0,0.0,0.0,0.0,0.0,0.0,0.0,0.0,0.0,0.0,0.0,0.0,0.0,0.0,0.0,0.0,0.0,0.0,0.0,0.0,0.0,0.0,0.0,0.0,0.0,0.0,0.0,0.0,0.0,0.0,0.0,0.0,0.0,0.0,0.0,0.0,0.0,0.0,0.0,0.0,0.0,0.0,0.0,0.0,0.0,0.0,0.0,0.0,0.0,0.0,0.0,0.0,0.0,0.0,0.0,0.0,0.0,0.0,0.0,0.0,0.0,0.0,0.0,0.0,0.0,0.0,0.0,0.0,0.0,0.0,0.0,0.0,0.0,0.0,0.0,0.0,0.0,0.0,0.0,0.0,0.0,0.0,0.0,0.0,0.0,-0.5514,-0.5364,-0.5173,-0.4921,-0.4761,-0.4628,0.0,0.0,0.0,0.0,0.0,0.0,0.0,0.0,0.0,0.0,0.0,0.0,0.0,0.0,0.0,0.0,0.0,0.0,0.0,0.0,0.0,0.0,0.0,0.0,0.0,0.0,0.0,0.0,0.0,0.0,0.0,0.0,0.0,0.0,0.0,0.0,0.0,0.0,0.0,0.0,0.0,0.0,0.0,0.0,0.0,0.0,0.0,0.0,0.0,0.0,0.0,0.0,0.0,0.0,0.0,0.0,0.0,0.0,0.0,0.0,0.0,0.0,0.0,0.0,0.0,0.0,0.0,0.0,0.0,0.0,0.0,0.0,0.0,0.0,0.0,0.0,0.0,0.0,0.0,0.0,0.0,0.0,0.0,0.0,0.0,0.0,0.0,0.0,0.0,0.0,0.0,0.0,0.0,0.0,0.0,0.0,0.0,0.0,0.0,0.0,0.0,0.0,0.0,0.0,0.0,0.0,0.0,0.0,0.0,-0.5654,0.0,-0.5285,-0.4956,-0.4851,-0.4659,0.0,0.0,0.0,0.0,0.0,0.0,0.0,0.0,0.0,0.0,0.0,0.0,0.0,0.0,0.0,0.0,0.0,0.0,0.0,0.0,0.0,0.0,0.0,0.0,0.0,0.0,0.0,0.0,0.0,0.0,0.0,0.0,0.0,0.0,0.0,0.0,0.0,0.0,0.0,0.0,0.0,0.0,0.0,0.0,0.0,0.0,0.0,0.0,0.0,0.0,0.0,0.0,0.0,0.0,0.0,0.0,0.0,0.0,0.0,0.0,0.0,0.0,0.0,0.0,0.0,0.0,0.0,0.0,0.0,0.0,0.0,0.0,0.0,0.0,0.0,0.0,0.0,0.0,0.0,0.0,0.0,0.0,0.0,0.0,0.0,0.0,0.0,0.0,0.0,0.0,0.0,0.0,0.0,0.0,0.0,0.0,0.0,0.0,0.0,0.0,0.0,0.0,0.0,0.0,0.0,0.0,0.0,0.0,-0.5681,-0.5796,-0.57,-0.5489,-0.5219,-0.4962,-0.4723,0.0,0.0,0.0,0.0,0.0,0.0,0.0,0.0,0.0,0.0,0.0,0.0,0.0,0.0,0.0,0.0,0.0,0.0,0.0,0.0,0.0,0.0,0.0,0.0,0.0,0.0,0.0,0.0,0.0,0.0,0.0,0.0,0.0,0.0,0.0,0.0,0.0,0.0,0.0,0.0,0.0,0.0,0.0,0.0,0.0,0.0,0.0,0.0,0.0,0.0,0.0,0.0,0.0,0.0,0.0,0.0,0.0,0.0,0.0,0.0,0.0,0.0,0.0,0.0,0.0,0.0,0.0,0.0,0.0,0.0,0.0,0.0,0.0,0.0,0.0,0.0,0.0,0.0,0.0,0.0,0.0,0.0,0.0,0.0,0.0,0.0,0.0,0.0,0.0,0.0,0.0,0.0,0.0,0.0,0.0,0.0,0.0,0.0,0.0,0.0,0.0,0.0,0.0,0.0,0.0,0.0,0.0,0.0,0.0,-0.6607,-0.6252,-0.6025,-0.5808,-0.5475,-0.5117,0.0,0.0,0.0,0.0,0.0,0.0,0.0,0.0,0.0,0.0,0.0,0.0,0.0,0.0,0.0,0.0,0.0,0.0,0.0,0.0,0.0,0.0,0.0,0.0,0.0,0.0,0.0,0.0,0.0,0.0,0.0,0.0,0.0,0.0,0.0,0.0,0.0,0.0,0.0,0.0,0.0,0.0,0.0,0.0,0.0,0.0,0.0,0.0,0.0,0.0,0.0,0.0,0.0,0.0,0.0,0.0,0.0,0.0,0.0,0.0,0.0,0.0,0.0,0.0,0.0,0.0,0.0,0.0,0.0,0.0,0.0,0.0,0.0,0.0,0.0,0.0,0.0,0.0,0.0,0.0,0.0,0.0,0.0,0.0,0.0,0.0,0.0,0.0,0.0,0.0,0.0,0.0,0.0,0.0,0.0,0.0,0.0,0.0,0.0,0.0,0.0,0.0,0.0,0.0,0.0,0.0,0.0,0.0,0.0,-0.7203,-0.671,-0.6374,-0.6236,-0.5867,-0.5464,-0.5044,0.0,0.0,0.0,0.0,0.0,0.0,0.0,0.0,0.0,0.0,0.0,0.0,0.0,0.0,0.0,0.0,0.0,0.0,0.0,0.0,0.0,0.0,0.0,0.0,0.0,0.0,0.0,0.0,0.0,0.0,0.0,0.0,0.0,0.0,0.0,0.0,0.0,0.0,0.0,0.0,0.0,0.0,0.0,0.0,0.0,0.0,0.0,0.0,0.0,0.0,0.0,0.0,0.0,0.0,0.0,0.0,0.0,0.0,0.0,0.0,0.0,0.0,0.0,0.0,0.0,0.0,0.0,0.0,0.0,0.0,0.0,0.0,0.0,0.0,0.0,0.0,0.0,0.0,0.0,0.0,0.0,0.0,0.0,0.0,0.0,0.0,0.0,0.0,0.0,0.0,0.0,0.0,0.0,0.0,0.0,0.0,0.0,0.0,0.0,0.0,0.0,0.0,0.0,0.0,0.0,0.0,0.0,0.0,-0.7595,-0.7024,-0.6654,-0.6446,-0.6192,-0.5853,0.0,0.0,0.0,0.0,0.0,0.0,0.0,0.0,0.0,0.0,0.0,0.0,0.0,0.0,0.0,0.0,0.0,0.0,0.0,0.0,0.0,0.0,0.0,0.0,0.0,0.0,0.0,0.0,0.0,0.0,0.0,0.0,0.0,0.0,0.0,0.0,0.0,0.0,0.0,0.0,0.0,0.0,0.0,0.0,0.0,0.0,0.0,0.0,0.0,0.0,0.0,0.0,0.0,0.0,0.0,0.0,0.0,0.0,0.0,0.0,0.0,0.0,0.0,0.0,0.0,0.0,0.0,0.0,0.0,0.0,0.0,0.0,0.0,0.0,0.0,0.0,0.0,0.0,0.0,0.0,0.0,0.0,0.0,0.0,0.0,0.0,0.0,0.0,0.0,0.0,0.0,0.0,0.0,0.0,0.0,0.0,0.0,0.0,0.0,0.0,0.0,0.0,0.0,0.0,0.0,0.0,0.0,0.0,0.0,-0.7289,-0.7125,-0.7018,-0.7034,-0.6657,-0.6267,0.0,0.0,0.0,0.0,0.0,0.0,0.0,0.0,0.0,0.0,0.0,0.0,0.0,0.0,0.0,0.0,0.0,0.0,0.0,0.0,0.0,0.0,0.0,0.0,0.0,0.0,0.0,0.0,0.0,0.0,0.0,0.0,0.0,0.0,0.0,0.0,0.0,0.0,0.0,0.0,0.0,0.0,0.0,0.0,0.0,0.0,0.0,0.0,0.0,0.0,0.0,0.0,0.0,0.0,0.0,0.0,0.0,0.0,0.0,0.0,0.0,0.0,0.0,0.0,0.0,0.0,0.0,0.0,0.0,0.0,0.0,0.0,0.0,0.0,0.0,0.0,0.0,0.0,0.0,0.0,0.0,0.0,0.0,0.0,0.0,0.0,0.0,0.0,0.0,0.0,0.0,0.0,0.0,0.0,0.0,0.0,0.0,0.0,0.0,0.0,0.0,0.0,0.0,0.0,0.0,0.0,0.0,0.0,-0.6916,-0.7137,-0.7207,-0.7241,-0.7335,-0.6943,-0.6567,0.0,0.0,0.0,0.0,0.0,0.0,0.0,0.0,0.0,0.0,0.0,0.0,0.0,0.0,0.0,0.0,0.0,0.0,0.0,0.0,0.0,0.0,0.0,0.0,0.0,0.0,0.0,0.0,0.0,0.0,0.0,0.0,0.0,0.0,0.0,0.0,0.0,0.0,0.0,0.0,0.0,0.0,0.0,0.0,0.0,0.0,0.0,0.0,0.0,0.0,0.0,0.0,0.0,0.0,0.0,0.0,0.0,0.0,0.0,0.0,0.0,0.0,0.0,0.0,0.0,0.0,0.0,0.0,0.0,0.0,0.0,0.0,0.0,0.0,0.0,0.0,0.0,0.0,0.0,0.0,0.0,0.0,0.0,0.0,0.0,0.0,0.0,0.0,0.0,0.0,0.0,0.0,0.0,0.0,0.0,0.0,0.0,0.0,0.0,0.0,0.0,0.0,0.0,0.0,0.0,0.0,0.0,0.0,-0.7048,-0.7112,-0.7312,-0.7394,-0.7433,-0.7136,-0.6826,0.0,0.0,0.0,0.0,0.0,0.0,0.0,0.0,0.0,0.0,0.0,0.0,0.0,0.0,0.0,0.0,0.0,0.0,0.0,0.0,0.0,0.0,0.0,0.0,0.0,0.0,0.0,0.0,0.0,0.0,0.0,0.0,0.0,0.0,0.0,0.0,0.0,0.0,0.0,0.0,0.0,0.0,0.0,0.0,0.0,0.0,0.0,0.0,0.0,0.0,0.0,0.0,0.0,0.0,0.0,0.0,0.0,0.0,0.0,0.0,0.0,0.0,0.0,0.0,0.0,0.0,0.0,0.0,0.0,0.0,0.0,0.0,0.0,0.0,0.0,0.0,0.0,0.0,0.0,0.0,0.0,0.0,0.0,0.0,0.0,0.0,0.0,0.0,0.0,0.0,0.0,0.0,0.0,0.0,0.0,0.0,0.0,0.0,0.0,0.0,0.0,0.0,0.0,0.0,0.0,0.0,0.0,0.0,-0.7173,-0.7319,-0.7468,-0.755,-0.755,-0.7489,-0.728,0.0,0.0,0.0,0.0,0.0,0.0,0.0,0.0,0.0,0.0,0.0,0.0,0.0,0.0,0.0,0.0,0.0,0.0,0.0,0.0,0.0,0.0,0.0,0.0,0.0,0.0,0.0,0.0,0.0,0.0,0.0,0.0,0.0,0.0,0.0,0.0,0.0,0.0,0.0,0.0,0.0,0.0,0.0,0.0,0.0,0.0,0.0,0.0,-0.3415,0.0,0.0,0.0,0.0,0.0,0.0,0.0,0.0,0.0,0.0,0.0,0.0,0.0,0.0,0.0,0.0,0.0,0.0,0.0,0.0,0.0,0.0,0.0,0.0,0.0,0.0,0.0,0.0,0.0,0.0,0.0,0.0,0.0,0.0,0.0,0.0,0.0,0.0,0.0,0.0,0.0,0.0,0.0,0.0,0.0,0.0,0.0,0.0,0.0,0.0,0.0,0.0,0.0,0.0,0.0,0.0,0.0,0.0,0.0,-0.744,-0.7692,-0.7966,-0.808,-0.8087,-0.808,-0.7755,0.0,0.0,0.0,0.0,0.0,0.0,0.0,0.0,0.0,0.0,0.0,0.0,0.0,0.0,0.0,0.0,0.0,0.0,0.0,0.0,0.0,0.0,0.0,0.0,0.0,0.0,0.0,0.0,0.0,0.0,0.0,0.0,0.0,0.0,0.0,0.0,0.0,0.0,0.0,0.0,0.0,0.0,0.0,0.0,0.0,0.0,0.0,0.0,0.0,0.0,0.0,0.0,0.0,0.0,0.0,0.0,0.0,0.0,0.0,0.0,0.0,0.0,0.0,0.0,0.0,0.0,0.0,0.0,0.0,0.0,0.0,0.0,0.0,0.0,0.0,0.0,0.0,0.0,0.0,0.0,0.0,0.0,0.0,0.0,0.0,0.0,0.0,0.0,0.0,0.0,0.0,0.0,0.0,0.0,0.0,0.0,0.0,0.0,0.0,0.0,0.0,0.0,0.0,0.0,0.0,0.0,0.0,-0.7454,-0.7818,-0.8192,-0.8507,-0.8728,-0.8728,-0.8698,-0.8237,-0.7358,0.0,0.0,0.0,0.0,0.0,0.0,0.0,0.0,0.0,0.0,0.0,0.0,0.0,0.0,0.0,0.0,0.0,0.0,0.0,0.0,0.0,0.0,0.0,0.0,0.0,0.0,0.0,0.0,0.0,0.0,0.0,0.0,0.0,0.0,0.0,0.0,0.0,0.0,-0.4751,-0.4682,0.0,0.0,0.0,0.0,0.0,0.0,0.0,0.0,-0.3929,0.0,0.0,0.0,0.0,0.0,0.0,0.0,0.0,0.0,0.0,0.0,0.0,0.0,0.0,0.0,0.0,0.0,0.0,0.0,0.0,0.0,0.0,0.0,0.0,0.0,0.0,0.0,0.0,0.0,0.0,0.0,0.0,0.0,0.0,0.0,0.0,0.0,0.0,0.0,0.0,0.0,0.0,0.0,0.0,0.0,0.0,0.0,0.0,0.0,0.0,0.0,0.0,0.0,0.0,0.0,0.0,-0.7368,-0.7893,-0.832,-0.8583,-0.8914,-0.919,-0.9436,-0.9098,-0.8767,-0.8436,0.0,0.0,0.0,0.0,0.0,0.0,0.0,0.0,0.0,0.0,0.0,0.0,0.0,0.0,0.0,0.0,0.0,0.0,0.0,0.0,0.0,0.0,0.0,0.0,0.0,0.0,0.0,0.0,0.0,0.0,0.0,0.0,0.0,0.0,0.0,0.0,0.0,0.0,0.0,-0.5356,-0.5334,0.0,0.0,0.0,0.0,0.0,0.0,0.0,0.0,-0.4089,0.0,0.0,0.0,0.0,0.0,0.0,0.0,0.0,0.0,0.0,0.0,0.0,0.0,0.0,0.0,0.0,0.0,0.0,0.0,0.0,0.0,0.0,0.0,0.0,0.0,0.0,0.0,0.0,0.0,0.0,0.0,0.0,0.0,0.0,0.0,0.0,0.0,0.0,0.0,0.0,0.0,0.0,0.0,0.0,0.0,0.0,0.0,0.0,0.0,0.0,0.0,0.0,0.0,0.0,0.0,-0.8082,-0.8641,-0.9041,-0.9283,-0.9631,-0.9871,-1.0019,-0.9736,-0.9368,0.0,0.0,0.0,0.0,0.0,0.0,0.0,0.0,0.0,0.0,0.0,0.0,0.0,0.0,0.0,0.0,0.0,0.0,0.0,0.0,0.0,0.0,0.0,0.0,0.0,0.0,0.0,0.0,0.0,0.0,0.0,0.0,0.0,0.0,0.0,0.0,0.0,0.0,0.0,0.0,-0.5761,-0.5682,-0.5877,0.0,0.0,0.0,0.0,0.0,0.0,-0.4709,-0.4331,0.0,0.0,0.0,0.0,0.0,0.0,0.0,0.0,0.0,0.0,0.0,0.0,0.0,0.0,0.0,0.0,0.0,0.0,0.0,0.0,0.0,0.0,0.0,0.0,0.0,0.0,0.0,0.0,0.0,0.0,0.0,0.0,0.0,0.0,0.0,0.0,0.0,0.0,0.0,0.0,0.0,0.0,0.0,0.0,0.0,0.0,0.0,0.0,0.0,0.0,0.0,0.0,0.0,0.0,0.0,-0.8743,-0.9285,-0.9655,-0.9897,-1.0259,-1.0511,-1.0551,-1.0316,-0.9938,0.0,0.0,0.0,0.0,0.0,0.0,0.0,0.0,0.0,0.0,0.0,0.0,0.0,0.0,0.0,0.0,0.0,0.0,0.0,0.0,0.0,0.0,0.0,0.0,0.0,0.0,0.0,0.0,0.0,0.0,0.0,0.0,0.0,0.0,0.0,0.0,0.0,0.0,0.0,0.0,0.0,-0.6114,-0.6296,-0.6059,0.0,0.0,0.0,0.0,-0.5178,-0.4989,0.0,0.0,0.0,0.0,0.0,0.0,0.0,0.0,0.0,0.0,0.0,0.0,0.0,0.0,0.0,0.0,0.0,0.0,0.0,0.0,0.0,0.0,0.0,0.0,0.0,0.0,0.0,0.0,0.0,0.0,0.0,0.0,0.0,0.0,0.0,0.0,0.0,0.0,0.0,0.0,0.0,0.0,0.0,0.0,0.0,0.0,0.0,0.0,0.0,0.0,0.0,0.0,0.0,0.0,0.0,0.0,-0.897,-0.948,-0.9879,-1.0176,-1.0548,-1.0855,-1.1091,-1.0663,-1.0323,0.0,0.0,0.0,0.0,0.0,0.0,0.0,0.0,0.0,0.0,0.0,0.0,0.0,0.0,0.0,0.0,0.0,0.0,0.0,0.0,0.0,0.0,0.0,0.0,0.0,0.0,0.0,0.0,0.0,0.0,0.0,0.0,0.0,0.0,0.0,0.0,0.0,0.0,0.0,0.0,0.0,-0.6945,-0.706,-0.7001,-0.6811,0.0,0.0,-0.6349,-0.5721,-0.56,0.0,0.0,0.0,0.0,0.0,0.0,0.0,0.0,0.0,0.0,0.0,0.0,0.0,0.0,0.0,0.0,0.0,0.0,0.0,0.0,0.0,0.0,0.0,0.0,0.0,0.0,0.0,0.0,0.0,0.0,0.0,0.0,0.0,0.0,0.0,0.0,0.0,0.0,0.0,0.0,0.0,0.0,0.0,0.0,0.0,0.0,0.0,0.0,0.0,0.0,0.0,0.0,0.0,0.0,0.0,-0.9094,-0.9714,-1.0208,-1.0565,-1.0815,-1.1125,-1.1385,-1.1629,-1.1288,-1.092,0.0,0.0,0.0,0.0,0.0,0.0,0.0,0.0,0.0,0.0,0.0,0.0,0.0,0.0,0.0,0.0,0.0,0.0,0.0,0.0,0.0,0.0,0.0,0.0,0.0,0.0,0.0,0.0,0.0,0.0,0.0,0.0,0.0,0.0,0.0,0.0,0.0,0.0,0.0,0.0,0.0,0.0,-0.7983,-0.78,0.0,0.0,0.0,-0.6927,-0.6526,0.0,0.0,0.0,0.0,0.0,0.0,0.0,0.0,0.0,0.0,0.0,0.0,0.0,0.0,0.0,0.0,0.0,0.0,0.0,0.0,0.0,0.0,0.0,0.0,0.0,0.0,0.0,0.0,0.0,0.0,0.0,0.0,0.0,0.0,0.0,0.0,0.0,0.0,0.0,0.0,0.0,0.0,0.0,0.0,0.0,0.0,0.0,0.0,0.0,0.0,0.0,0.0,0.0,0.0,0.0,0.0,0.0,-1.0393,-1.0776,-1.1073,-1.1323,-1.1557,-1.1785,-1.198,-1.1707,0.0,0.0,0.0,0.0,0.0,0.0,0.0,0.0,0.0,0.0,0.0,0.0,0.0,0.0,0.0,0.0,0.0,0.0,0.0,0.0,0.0,0.0,0.0,0.0,0.0,0.0,0.0,-0.9723,0.0,0.0,0.0,0.0,0.0,0.0,0.0,0.0,0.0,0.0,0.0,0.0,0.0,0.0,-0.8473,-0.8933,-0.8768,-0.8615,0.0,0.0,-0.7817,-0.7441,-0.6849,-0.6285,0.0,0.0,0.0,0.0,0.0,0.0,0.0,0.0,0.0,0.0,0.0,0.0,0.0,0.0,0.0,0.0,0.0,0.0,0.0,0.0,0.0,0.0,0.0,0.0,0.0,0.0,0.0,0.0,0.0,0.0,0.0,0.0,0.0,0.0,0.0,0.0,0.0,0.0,0.0,0.0,0.0,0.0,0.0,0.0,0.0,0.0,0.0,0.0,0.0,0.0,0.0,0.0,0.0,0.0,-0.9989,-1.0649,-1.1071,-1.1303,-1.1323,-1.1748,-1.198,-1.197,-1.1556,-1.1303,0.0,0.0,0.0,0.0,0.0,0.0,0.0,0.0,0.0,0.0,0.0,0.0,0.0,0.0,0.0,0.0,0.0,0.0,0.0,0.0,0.0,0.0,0.0,0.0,0.0,0.0,0.0,0.0,0.0,0.0,0.0,0.0,0.0,0.0,0.0,0.0,0.0,0.0,0.0,0.0,0.0,-0.9485,-0.9923,-1.0098,-1.0055,0.0,-0.9617,-0.9238,-0.8584,-0.8189,-0.7683,-0.692,0.0,0.0,0.0,0.0,0.0,0.0,0.0,0.0,0.0,0.0,0.0,0.0,0.0,0.0,0.0,0.0,0.0,0.0,0.0,0.0,0.0,0.0,0.0,0.0,0.0,0.0,0.0,0.0,0.0,0.0,0.0,0.0,0.0,0.0,0.0,0.0,0.0,0.0,0.0,0.0,0.0,0.0,0.0,0.0,0.0,0.0,0.0,0.0,0.0,0.0,0.0,0.0,0.0,-1.0621,-1.1279,-1.1469,-1.1698,-1.1947,-1.2166,-1.2322,-1.2516,-1.2062,-1.1748,0.0,0.0,0.0,0.0,0.0,0.0,0.0,0.0,0.0,0.0,0.0,0.0,0.0,0.0,0.0,0.0,0.0,0.0,0.0,0.0,0.0,0.0,0.0,0.0,0.0,0.0,0.0,0.0,-1.3362,-1.3136,-1.2947,0.0,0.0,0.0,0.0,0.0,0.0,0.0,0.0,0.0,0.0,-1.0929,-1.1143,-1.1266,0.0,0.0,-1.0751,-1.0645,-1.0175,-0.9838,-0.9443,-0.8571,-0.7822,0.0,0.0,0.0,0.0,0.0,0.0,0.0,0.0,0.0,0.0,0.0,0.0,0.0,0.0,0.0,0.0,0.0,0.0,0.0,0.0,0.0,0.0,0.0,0.0,0.0,0.0,0.0,0.0,0.0,0.0,0.0,0.0,0.0,0.0,0.0,0.0,0.0,0.0,0.0,0.0,0.0,0.0,0.0,0.0,0.0,0.0,0.0,0.0,0.0,0.0,0.0,0.0,-1.1191,-1.1915,-1.2021,-1.2213,-1.2639,-1.2689,-1.2807,-1.299,-1.2642,-1.2369,0.0,0.0,0.0,0.0,0.0,0.0,0.0,0.0,0.0,0.0,0.0,0.0,0.0,0.0,0.0,0.0,0.0,0.0,0.0,0.0,0.0,0.0,0.0,0.0,0.0,0.0,0.0,0.0,-1.4696,-1.4244,-1.3711,0.0,0.0,0.0,0.0,0.0,0.0,0.0,0.0,0.0,0.0,-1.2395,-1.251,-1.2483,-1.2386,-1.1946,-1.194,-1.1827,-1.1471,-1.1221,-1.0773,-0.9918,0.0,0.0,0.0,0.0,0.0,0.0,0.0,0.0,0.0,0.0,0.0,0.0,0.0,0.0,0.0,0.0,0.0,0.0,0.0,0.0,0.0,0.0,0.0,0.0,0.0,0.0,0.0,-0.551,0.0,0.0,-0.5937,0.0,0.0,0.0,0.0,0.0,0.0,0.0,0.0,0.0,0.0,0.0,0.0,0.0,0.0,0.0,0.0,0.0,0.0,0.0,0.0,0.0,0.0,-1.1649,-1.2403,-1.2654,-1.2905,-1.3157,-1.336,-1.3485,-1.3485,-1.3282,-1.302,-1.2757,0.0,0.0,0.0,0.0,0.0,0.0,0.0,0.0,0.0,0.0,0.0,0.0,0.0,0.0,0.0,0.0,0.0,0.0,0.0,0.0,0.0,0.0,0.0,0.0,0.0,0.0,-1.6402,-1.6104,-1.5545,0.0,0.0,0.0,0.0,0.0,0.0,0.0,0.0,0.0,-1.3886,-1.3779,-1.377,-1.3998,-1.3786,-1.3613,-1.357,-1.3293,-1.2887,-1.2376,-1.1993,-1.151,0.0,0.0,0.0,0.0,0.0,0.0,0.0,0.0,0.0,0.0,0.0,0.0,0.0,0.0,0.0,0.0,0.0,0.0,0.0,0.0,0.0,0.0,0.0,0.0,0.0,0.0,0.0,-0.6036,-0.6437,0.0,0.0,0.0,0.0,0.0,0.0,0.0,0.0,0.0,0.0,0.0,-1.1257,-1.1268,0.0,0.0,0.0,0.0,0.0,0.0,0.0,0.0,0.0,0.0,0.0,0.0,-1.2548,-1.3114,-1.3245,-1.3402,-1.3671,-1.3728,-1.3678,-1.3485,-1.333,-1.3101,-1.282,0.0,0.0,0.0,0.0,0.0,0.0,0.0,0.0,0.0,0.0,0.0,0.0,0.0,0.0,0.0,0.0,0.0,0.0,0.0,0.0,0.0,0.0,0.0,0.0,0.0,-1.5395,0.0,0.0,0.0,0.0,0.0,0.0,0.0,0.0,0.0,0.0,-1.5067,-1.532,-1.5104,-1.5206,-1.519,-1.4836,-1.492,-1.495,0.0,0.0,0.0,0.0,0.0,0.0,0.0,0.0,0.0,0.0,0.0,0.0,0.0,-0.6437,-0.5653,-0.4368,-0.3927,-0.3532,-0.2651,0.0,0.0,0.0,0.0,0.0,0.0,0.0,0.0,0.0,0.0,0.0,0.0,0.0,0.0,-0.6512,-0.703,-0.7175,0.0,0.0,0.0,0.0,0.0,0.0,0.0,0.0,-1.1078,-1.1577,-1.1987,-1.2069,-1.2204,-1.2314,-1.2572,-1.2305,0.0,0.0,0.0,0.0,0.0,0.0,0.0,0.0,-1.3274,-1.3878,-1.3915,-1.4043,-1.428,-1.4304,-1.4256,-1.4064,-1.385,-1.3597,-1.3311,-1.339,-1.314,0.0,0.0,0.0,0.0,0.0,0.0,0.0,0.0,0.0,0.0,0.0,0.0,0.0,0.0,0.0,0.0,0.0,0.0,0.0,0.0,0.0,0.0,0.0,-1.6497,0.0,0.0,0.0,0.0,0.0,0.0,0.0,0.0,0.0,-1.6621,-1.6874,-1.7078,-1.6857,-1.6852,-1.6678,-1.619,0.0,0.0,0.0,0.0,0.0,0.0,0.0,-1.4778,-1.3734,-1.3037,-1.2216,-1.1125,-0.985,-0.8782,-0.8236,0.0,0.0,-0.5496,-0.5027,-0.4609,-0.3539,-0.3358,-0.3237,-0.2769,-0.2572,-0.2459,0.0,0.0,0.0,0.0,-0.5939,0.0,0.0,0.0,-0.6456,-0.6819,0.0,-0.7344,0.0,0.0,0.0,0.0,-0.913,-0.9379,0.0,0.0,-1.1815,-1.2248,-1.2687,-1.2966,-1.3107,-1.3107,-1.3332,-1.3417,-1.3379,-1.2924,0.0,0.0,0.0,0.0,0.0,0.0,-1.3868,-1.4692,-1.4684,-1.4825,-1.507,-1.5083,-1.5083,-1.507,-1.485,-1.4557,-1.4244,-1.4216,-1.3827,-1.3077,-1.2959,0.0,0.0,0.0,0.0,0.0,0.0,0.0,0.0,0.0,0.0,0.0,0.0,0.0,0.0,0.0,0.0,0.0,0.0,0.0,0.0,-1.7689,0.0,0.0,0.0,0.0,0.0,0.0,0.0,0.0,0.0,-1.932,-1.8991,-1.8968,-1.9042,-1.9187,0.0,0.0,0.0,0.0,-1.7376,-1.7208,-1.736,-1.7323,-1.6836,-1.6442,-1.5806,-1.4662,0.0,0.0,-1.1891,-1.0486,-0.9654,-1.0001,-0.9173,-0.7951,-0.6481,-0.6183,-0.5813,-0.4774,-0.4542,-0.4384,-0.3712,-0.3231,-0.3049,-0.5989,0.0,0.0,0.0,0.0,-0.6702,-0.696,-0.74,-0.7558,-0.799,-0.8599,-0.8722,0.0,0.0,0.0,0.0,0.0,0.0,-1.1172,-1.1827,-1.2295,-1.2681,-1.3021,-1.325,-1.3467,-1.361,-1.4019,-1.4255,-1.4242,-1.4274,-1.3903,-1.3089,0.0,0.0,0.0,0.0,-1.4757,-1.518,-1.5206,-1.5258,-1.5391,-1.5356,-1.5309,-1.5131,-1.4978,-1.4877,-1.4753,-1.4555,-1.4312,-1.4097,-1.3609,0.0,0.0,0.0,0.0,0.0,0.0,0.0,0.0,0.0,0.0,0.0,0.0,0.0,0.0,0.0,0.0,0.0,0.0,0.0,-1.8009,-1.9031,-1.9691,0.0,0.0,0.0,0.0,0.0,0.0,0.0,0.0,0.0,-2.0836,-2.0695,-2.0435,0.0,0.0,-1.9559,-1.9431,-1.9041,-1.8831,-1.8936,-1.8509,0.0,-1.7931,-1.6946,-1.5966,-1.539,-1.4202,-1.3019,-1.1839,-1.1264,-1.0766,-1.0126,-0.9778,-0.9318,-0.8275,-0.7365,-0.6505,-0.5759,-0.5388,-0.4992,-0.4265,-0.3982,-0.3855,-0.6809,-0.7074,-0.6859,-0.6935,-0.7205,-0.7401,-0.7723,-0.8102,-0.8302,-0.8751,-0.9378,-0.9379,-0.9617,-1.0019,-0.9905,0.0,0.0,0.0,-1.1748,-1.2176,-1.2626,-1.2924,-1.3119,-1.3554,-1.3855,-1.3999,-1.4505,-1.4739,-1.4739,-1.5038,-1.4815,-1.4221,0.0,-1.4744,-1.4691,-1.4998,-1.5271,-1.5551,-1.5565,-1.5564,-1.5629,-1.5642,-1.5547,-1.5404,-1.5329,-1.5278,-1.516,-1.4953,-1.4816,-1.4696,-1.4242,-1.3826,0.0,0.0,0.0,0.0,0.0,0.0,0.0,0.0,0.0,0.0,0.0,-1.2725,-1.413,0.0,0.0,0.0,-1.7565,-1.8572,-2.0118,-2.0491,0.0,0.0,0.0,0.0,0.0,0.0,0.0,-2.0704,-2.1309,-2.186,-2.22,-2.2291,-2.2086,-2.1327,-2.08,-2.0502,-2.0592,0.0,-1.9819,-2.0083,-1.9657,-1.9203,-1.8924,-1.8002,-1.6946,-1.5957,-1.4537,-1.3396,-1.2681,-1.2223,-1.1694,-1.091,-1.0645,-1.0373,-0.9637,-0.8716,-0.7817,-0.6951,-0.6495,-0.6015,-0.541,-0.4897,-0.4463,-0.7502,-0.8105,-0.766,-0.7542,-0.7675,-0.8107,-0.8424,-0.8654,-0.8818,-0.9272,-0.9847,-0.9644,-0.9802,-1.0233,-1.0214,0.0,-1.1441,-1.1608,-1.1996,-1.2497,-1.2924,-1.3094,-1.3192,-1.3883,-1.4244,-1.43,-1.4794,-1.5075,-1.5057,-1.5311,-1.5431,-1.5418,-1.5209,-1.5164,-1.5418,-1.5431,-1.5565,-1.5818,-1.5818,-1.5832,-1.5832,-1.5832,-1.5832,-1.5832,-1.5832,-1.5651,-1.5444,-1.5404,-1.5271,-1.5048,-1.471,-1.4429,-1.4162,0.0,0.0,0.0,0.0,0.0,0.0,0.0,0.0,0.0,0.0,0.0,0.0,0.0,0.0,-1.795,-1.9704,0.0,-2.2102,-2.1974,0.0,0.0,0.0,-2.214,-2.2589,-2.2634,-2.2581,-2.2332,0.0,0.0,-2.3211,-2.3764,-2.3666,-2.2355,-2.1677,-2.1356,-2.1601,-2.0965,-2.0647,-2.0879,-2.0784,-2.0445,-1.975,-1.9122,-1.8223,-1.6603,-1.5044,-1.4189,-1.3937,-1.3256,-1.2554,-1.1997,-1.175,-1.1326,-1.0583,-1.0067,-0.9513,-0.837,-0.7811,-0.7322,-0.6868,-0.5984,-0.5245,-0.8034,-0.8376,-0.8673,-0.8882,-0.8935,-0.9065,-0.9306,-0.9647,-0.9836,-1.014,-1.0491,-1.0752,-1.1003,-1.1258,-1.1013,-1.1271,-1.1857,-1.1898,-1.229,-1.2912,-1.3052,-1.3264,-1.3587,-1.4208,-1.462,-1.4852,-1.5378,-1.5584,-1.5631,-1.5685,-1.5678,-1.5678,-1.5658,-1.5658,-1.5678,-1.5678,-1.5704,-1.5832,-1.5832,-1.5832,-1.5832,-1.5832,-1.5832,-1.5832,-1.5832,-1.5758,-1.5678,-1.5511,-1.5364,-1.5297,-1.5017,-1.4874,-1.4807,-1.4202,0.0,0.0,0.0,0.0,0.0,0.0,0.0,0.0,0.0,-1.5607,-1.6772,0.0,-1.8746,0.0,-2.1499,-2.2629,-2.3097,-2.3098,0.0,0.0,-2.3684,-2.3617,-2.3754,-2.4046,-2.4085,-2.3817,-2.4171,-2.4349,-2.3925,-2.4223,-2.4177,-2.3355,-2.2856,-2.2616,-2.2623,-2.199,-2.1632,-2.1829,-2.1239,-2.0665,-2.0388,-1.9343,-1.8223,-1.7228,-1.624,-1.5515,-1.5021,-1.4357,-1.3629,-1.3015,-1.2496,-1.1983,-1.1466,-1.0892,-1.038,-1.0047,-0.9246,-0.8196,-0.7497,-0.7123,-0.6666,-0.8393,-0.8689,-0.9265,-0.9672,-0.9969,-0.9715,-0.9924,-1.0429,-1.0409,-1.0625,-1.0955,-1.1294,-1.1547,-1.1762,-1.1706,-1.1993,-1.2481,-1.2493,-1.2734,-1.3222,-1.3307,-1.3476,-1.3714,-1.4463,-1.4874,-1.5022,-1.5551,-1.5832,-1.5832,-1.5832,-1.5832,-1.5832,-1.5832,-1.5832,-1.5832,-1.5832,-1.5832,-1.5832,-1.5832,-1.5832,-1.5832,-1.5832,-1.5832,-1.5832,-1.5832,-1.5832,-1.5832,-1.5671,-1.5591,-1.5578,-1.5311,-1.5196,-1.5196,-1.4723,-1.4507,0.0,0.0,0.0,0.0,0.0,0.0,0.0,0.0,0.0,0.0,0.0,-2.0118,-2.1776,-2.2955,-2.3885,-2.4559,-2.4507,-2.4598,-2.5035,-2.4754,-2.4632,-2.4862,-2.5019,-2.5081,-2.4833,-2.5091,-2.5185,-2.4831,-2.4958,-2.4857,-2.4363,-2.4113,-2.3818,-2.3241,-2.2504,-2.2045,-2.2479,-2.176,-2.1081,-2.0735,-1.9413,-1.8293,-1.7791,-1.6885,-1.6102,-1.5867,-1.5258,-1.4645,-1.4074,-1.371,-1.3137,-1.2303,-1.1741,-1.1383,-1.0774,-1.0185,-0.9349,-0.86,-0.7946,-0.7213,-0.8706,-0.9083,-0.9559,-1.0133,-1.0669,-1.0234,-1.0396,-1.0919,-1.0808,-1.0954,-1.137,-1.1572,-1.1851,-1.2147,-1.2276,-1.2617,-1.3087,-1.3087,-1.3239,-1.3434,-1.3603,-1.373,-1.3812,-1.4595,-1.5008,-1.5035,-1.5551,-1.5832,-1.5832,-1.5832,-1.5832,-1.5832,-1.5832,-1.5832,-1.5832,-1.5832,-1.5832,-1.5832,-1.5832,-1.5832,-1.5832,-1.5832,-1.5832,-1.5832,-1.5832,-1.5832,-1.5832,-1.5832,-1.5832,-1.5771,-1.5591,-1.5458,-1.5491,-1.5281,-1.5236,0.0,-1.5662,0.0,0.0,0.0,0.0,0.0,0.0,0.0,0.0,-1.9621,-2.1246,-2.3494,-2.4181,-2.4918,-2.5947,-2.5789,-2.5792,-2.6118,-2.5613,-2.5379,-2.5735,-2.5842,-2.5854,-2.5678,-2.5944,-2.609,-2.5827,-2.5797,-2.5672,-2.5197,-2.5078,-2.4774,-2.3933,-2.3004,-2.2591,-2.2997,-2.2379,-2.1553,-2.0873,-1.9552,-1.8573,-1.8433,-1.742,-1.6506,-1.6644,-1.6122,-1.558,-1.5085,-1.4931,-1.4414,-1.3042,-1.267,-1.2193,-1.1312,-1.0841,-1.0319,-0.9603,-0.8609,-0.7764,-0.9024,-0.9287,-0.9928,-1.0389,-1.0712,-1.0784,-1.0941,-1.1222,-1.1344,-1.1663,-1.2075,-1.2158,-1.24,-1.2795,-1.2622,-1.2725,-1.3019,-1.3019,-1.3259,-1.3646,-1.3688,-1.3828,-1.4037,-1.4683,-1.5008,-1.5048,-1.5551,-1.5832,-1.5832,-1.5832,-1.5832,-1.5832,-1.5832,-1.5832,-1.5832,0.0,0.0,0.0,-1.5832,-1.5832,-1.5832,-1.5832,-1.5832,-1.5832,-1.5832,0.0,-1.5832,-1.5832,-1.5832,-1.5832,-1.5778,0.0,0.0,0.0,0.0,0.0,0.0,0.0,0.0,0.0,0.0,0.0,-1.9856,-2.0019,-2.026,-2.1479,-2.2871,-2.443,-2.4966,-2.5402,-2.5966,-2.5968,-2.6079,-2.6463,-2.6098,-2.6025,-2.6373,-2.6682,-2.6935,-2.6936,-2.7254,-2.7352,-2.6884,-2.6796,-2.6466,-2.5704,-2.5545,-2.5454,-2.5221,-2.4502,-2.3999,-2.3814,-2.2859,-2.1966,-2.1207,-2.0098,-1.9332,-1.9214,-1.8241,-1.7498,-1.7491,-1.6906,-1.6439,-1.6326,-1.5633,-1.4968,-1.4507,-1.353,-1.2646,-1.2476,-1.1592,-1.0572,-0.9803,-0.9321,-0.8774,-0.9208,-0.9393,-1.0168,-1.0559,0.0,-1.1251,-1.1469,-1.1472,-1.1553,-1.1875,-1.2294,-1.2416,-1.2654,-1.3013,-1.2832,-1.3003,-1.3355,-1.3355,-1.3558,-1.3857,-1.3913,-1.3955,-1.4108,-1.4727,-1.5008,-1.5035,-1.5551,-1.5832,-1.5832,-1.5832,-1.5832,-1.5832,-1.5832,-1.5832,-1.5832,-1.5832,-1.5832,-1.5832,-1.5832,-1.5832,-1.5832,-1.5832,-1.5832,-1.5832,-1.5832,0.0,0.0,0.0,0.0,0.0,0.0,0.0,0.0,-1.6958,0.0,-1.8225,-1.8233,-1.8752,-1.9925,-1.9859,-2.0209,-2.1179,-2.1747,-2.1884,-2.1567,-2.247,-2.3543,-2.4772,-2.5304,-2.5829,-2.6456,-2.6637,-2.6766,-2.6971,-2.6821,-2.6805,-2.7031,-2.7271,-2.7473,-2.7564,-2.7777,-2.7812,-2.7564,-2.7418,-2.7141,-2.67,-2.6599,-2.6518,-2.6149,-2.5257,-2.4419,-2.376,-2.2928,-2.2104,-2.1553,-2.0584,-1.9761,-1.9494,-1.8829,-1.8217,-1.7935,-1.7492,-1.703,-1.6837,-1.6118,-1.553,-1.509,-1.4165,-1.3275,-1.305,-1.2243,-1.1269,-1.0423,-0.9835,-0.9241,-0.9305,-0.9393,-1.0289,-1.0733,-1.0776,-1.1607,-1.1954,-1.1862,-1.1822,0.0,0.0,-1.2692,-1.2967,-1.3185,-1.3185,-1.3397,-1.3773,-1.3786,-1.387,-1.4082,-1.4082,-1.4122,-1.4188,-1.4754,-1.499,-1.5115,-1.5578,-1.5832,-1.5832,-1.5832,-1.5832,-1.5832,-1.5832,-1.5832,-1.5832,-1.5832,-1.5811,-1.5851,-1.5858,-1.5811,-1.5851,-1.5912,-1.5939,-1.5992,-1.6027,-1.6027,-1.604,-1.6279,-1.6594,-1.6842,-1.7134,-1.7491,-1.803,-1.8143,-1.8568,-1.9352,-1.9662,-2.0183,-2.0947,-2.0985,-2.1453,-2.261,-2.3139,-2.3206,-2.2624,-2.3139,-2.3958,-2.5115,-2.5696,-2.6312,-2.7023,-2.726,-2.7422,-2.7422,-2.7422,-2.7429,-2.7659,-2.7753,-2.792,-2.8107,-2.825,-2.8237,-2.8206,-2.803,-2.7791,-2.7693,-2.773,-2.758,-2.6741,-2.5601,-2.4491,-2.3692,-2.2928,-2.231,-2.176,-2.0804,-2.0052,-1.9702,-1.92,-1.8712,-1.8216,-1.7922,-1.7594,-1.715,-1.6653,-1.6129,-1.5507,-1.4798,-1.406,-1.3524,-1.2802,-1.2093,-1.1296,-1.0352,-0.9641,-0.9305,-0.9393,-1.0289,-1.0733,-1.0776,-1.1639,-1.2357,-1.285,-1.2675,-1.2757,-1.3192,-1.3425,-1.3681,-1.3944,-1.3944,-1.3971,-1.4039,-1.4039,-1.4082,-1.4082,-1.4082,-1.4229,-1.4469,-1.4803,-1.5142,-1.5351,-1.5671,-1.5832,-1.5832,-1.5832,-1.5832,-1.5832,-1.5832,-1.5832,-1.5832,-1.5832,-1.5952,-1.6192,-1.5965,-1.5952,-1.6254,-1.6206,-1.6326,-1.6567,-1.6779,-1.6891,-1.6941,-1.7238,-1.745,-1.7492,-1.7739,-1.8001,-1.8242,-1.875,-1.9413,-2.019,-2.0702,-2.1329,-2.2197,-2.2412,-2.2927,-2.3759,-2.3706,-2.3523,-2.3438,-2.4139,-2.4997,-2.5928,-2.639,-2.6877,-2.7311,-2.7368,-2.7441,-2.7441,-2.7441,-2.7557,-2.7973,-2.8332,-2.8653,-2.9028,-2.9444,-2.9356,-2.8975,-2.907,-2.8864,-2.8324,-2.83,-2.8075,-2.6994,-2.5987,-2.5061,-2.4088,-2.327,-2.2585,-2.1829,-2.0873,-2.0192,-1.9838,-1.9421,-1.9071,-1.879,-1.8336,-1.7967,-1.7864,-1.7188,-1.6658,-1.6303,-1.5768,-1.4978,-1.4356,-1.3514,-1.2682,-1.2147,-1.1136,-1.0186,-0.9174,-0.9384,-1.0168,-1.0603,-1.0776,-1.165,-1.2466,-1.3209,-1.3138,-1.3255,-1.3506,-1.3805,-1.3955,-1.4082,-1.4082,-1.4082,-1.4082,-1.4082,-1.4082,-1.4082,-1.4082,-1.4242,-1.4522,-1.4874,-1.5156,-1.5404,-1.5698,-1.5832,-1.5832,-1.5832,-1.5832,-1.5832,-1.5832,-1.5832,-1.5832,-1.5992,-1.6139,-1.6308,-1.6139,-1.6206,-1.65,-1.6662,-1.6779,-1.6914,-1.7213,-1.7377,-1.7363,-1.7761,-1.8046,-1.8254,-1.877,-1.9295,-1.9679,-2.0131,-2.0712,-2.1461,-2.1779,-2.2297,-2.312,-2.3538,-2.3894,-2.4182,-2.4249,-2.4365,-2.4511,-2.4958,-2.5515,-2.6134,-2.6726,-2.7252,-2.7653,-2.7799,-2.7872,-2.7926,-2.8099,-2.8317,-2.8628,-2.9049,-2.9413,-2.962,-2.9789,-2.9804,-2.9509,-2.9702,-2.9672,-2.8968,-2.8754,-2.8179,-2.7352,-2.6465,-2.539,-2.4238,-2.3543,-2.2791,-2.1979,-2.122,-2.0635,-2.0309,-1.9991,-1.9584,-1.9308,-1.8717,-1.8309,-1.8025,-1.734,-1.6857,-1.6651,-1.6002,-1.5297,-1.469,-1.3908,-1.3137,-1.2362,-1.1373,-1.0448,-0.9043,-0.9349,-1.0038,-1.0559,-1.1035,-1.1693,-1.2552,-1.3349,-1.3392,-1.3519,-1.3828,-1.3997,-1.4082,-1.4082,-1.4082,-1.4082,-1.4082,-1.4082,-1.4082,-1.4095,-1.4148,-1.4335,-1.4629,-1.4923,-1.5217,-1.5484,-1.5678,-1.5832,-1.5832,-1.5832,-1.5832,-1.5832,-1.5832,-1.5858,-1.5939,-1.6249,-1.6437,-1.6608,-1.667,-1.6779,-1.6908,-1.7173,-1.7351,-1.742,-1.7773,-1.7974,-1.8024,-1.8475,-1.8829,-1.9182,-1.9856,-2.0487,-2.1046,-2.1369,-2.1878,-2.2535,-2.2769,-2.3188,-2.3985,-2.4381,-2.4545,-2.4554,-2.48,-2.5126,-2.5506,-2.5772,-2.6034,-2.6378,-2.7083,-2.7685,-2.7956,-2.8174,-2.8301,-2.832,-2.8672,-2.8953,-2.9176,-2.9621,-2.9988,-3.0081,-3.0098,-3.0136,-3.0111,-3.0193,-3.0174,-2.9753,-2.9021,-2.8296,-2.7716,-2.6867,-2.5727,-2.4578,-2.3761,-2.2996,-2.1966,-2.1427,-2.1008,-2.0651,-2.0529,-2.0213,-1.9807,-1.9296,-1.8699,-1.8263,-1.7626,-1.7171,-1.6853,-1.635,-1.5699,-1.519,-1.4364,-1.3408,-1.235,-1.1487,-1.0609,-0.9043,-0.9393,-0.9994,-1.0906,-1.1823,-1.1952,-1.2552,-1.3362,-1.3404,-1.3659,-1.4039,-1.4082,-1.4082,-1.4082,-1.4082,-1.4082,-1.4082,-1.4082,-1.4095,-1.4135,-1.4362,-1.4629,-1.4981,-1.5217,-1.5511,-1.5752,-1.5818,-1.5832,-1.5832,-1.5832,-1.5832,-1.5832,-1.5832,-1.5965,-1.6254,-1.6516,-1.6949,-1.7469,-1.7738,-1.7752,-1.7524,-1.7779,-1.8058,-1.8286,-1.8806,-1.9132,-1.9155,-1.9634,-2.0061,-2.0364,-2.0656,-2.1081,-2.1573,-2.2131,-2.2535,-2.287,-2.3538,-2.4233,-2.4726,-2.4824,-2.4952,-2.5197,-2.5246,-2.5555,-2.617,-2.6598,-2.6851,-2.7046,-2.7721,-2.8169,-2.8228,-2.8301,-2.8301,-2.8379,-2.8711,-2.9082,-2.9495,-2.9941,-3.0333,-3.0762,-3.0762,-3.0741,-3.0515,-3.0709,-3.0736,-3.0298,-2.9392,-2.8527,-2.7849,-2.7118,-2.6197,-2.5105,-2.4088,-2.3065,-2.2104,-2.1496,-2.1233,-2.0935,-2.0861,-2.0658,-2.0396,-1.9951,-1.9466,-1.8577,-1.8268,-1.7844,-1.7432,-1.7066,-1.6606,-1.5763,-1.4858,-1.375,-1.2402,-1.1597,-1.1005,-0.8955,-0.934,-0.9907,-1.0819,-1.1909,-1.1995,-1.2552,-1.3362,-1.3404,-1.3659,-1.4082,-1.4082,-1.4082,-1.4082,-1.4082,-1.4082,-1.4082,-1.4082,-1.4188,-1.4335,-1.4469,-1.4763,-1.5204,-1.5337,-1.5551,-1.5758,-1.5832,-1.5832,-1.5832,-1.5832,-1.5832,-1.5798,-1.5992,-1.6263,-1.6543,-1.6982,-1.7434,-1.7807,-1.8311,-1.8565,-1.8617,-1.872,-1.883,-1.8997,-1.948,-1.9776,-1.9828,-2.0292,-2.0617,-2.0771,-2.142,-2.1928,-2.2182,-2.2736,-2.3188,-2.3569,-2.4233,-2.4745,-2.5137,-2.5137,-2.5235,-2.5528,-2.5547,-2.5771,-2.6348,-2.6758,-2.7109,-2.7422,-2.7949,-2.8301,-2.8301,-2.8301,-2.8379,-2.8652,-2.9043,-2.9473,-2.9902,-3.0332,-3.0703,-3.0879,-3.0898,-3.0878,-3.0847,-3.0827,-3.0736,-3.0384,-2.9643,-2.8856,-2.8114,-2.7467,-2.6599,-2.5524,-2.4631,-2.3679,-2.2667,-2.2064,-2.1745,-2.1581,-2.1317,-2.1052,-2.086,-2.0221,-1.9542,-1.8805,-1.8548,-1.8125,-1.745,-1.7412,-1.7126,-1.6138,-1.4858,-1.349,-1.2485,-1.196,-1.1426,-0.8911,-0.9393,-0.9994,-1.0949,-1.1995,-1.208,-1.2583,-1.3362,-1.3404,-1.3659,-1.4082,-1.4082,-1.4082,-1.4082,-1.4082,-1.4122,-1.4202,-1.4202,-1.4362,-1.4629,-1.4723,-1.499,-1.5378,-1.5484,-1.5618,-1.5744,-1.5832,-1.5832,-1.5832,-1.5832,-1.5872,-1.6074,-1.6263,-1.6598,-1.7048,-1.7576,-1.7965,-1.8371,-1.8858,-1.9286,-1.948,-1.9583,-1.9583,-1.9583,-1.9931,-2.0241,-2.0344,-2.0755,-2.1113,-2.1369,-2.208,-2.2636,-2.2887,-2.3338,-2.3836,-2.4381,-2.4775,-2.5137,-2.5401,-2.543,-2.5479,-2.5693,-2.5674,-2.5977,-2.6484,-2.6836,-2.7266,-2.7845,-2.8105,-2.8301,-2.8301,-2.8301,-2.8476,-2.8887,-2.9316,-2.9726,-3.0137,-3.0605,-3.0879,-3.0898,-3.1016,-3.1111,-3.1172,-3.0953,-3.0701,-3.0502,-2.9905,-2.925,-2.8593,-2.7865,-2.6985,-2.6063,-2.5172,-2.4156,-2.316,-2.2462,-2.221,-2.2001,-2.1667,-2.1417,-2.1302,-2.0586,-1.9984,-1.9527,-1.8936,-1.8446,-1.8135,-1.7923,-1.7333,-1.6056,-1.4789,-1.3641,-1.2795,-1.2283,-1.177,-0.9043,-0.948,-1.0463,-1.1338,-1.1995,-1.2283,-1.2753,-1.3404,-1.3404,-1.3701,-1.4082,-1.4082,-1.4082,-1.4108,-1.4122,-1.4242,-1.4469,-1.4496,-1.4656,-1.495,-1.5204,-1.5364,-1.5404,-1.5671,-1.5805,-1.5832,-1.5832,-1.5832,-1.5832,-1.5845,-1.6122,-1.6586,-1.6703,-1.7125,-1.7871,-1.8215,-1.8642,-1.9199,-1.9502,-1.9776,-2.0034,-2.0308,-2.0308,-2.0138,-2.0359,-2.0617,-2.0873,-2.1113,-2.1623,-2.2367,-2.2485,-2.2887,-2.3655,-2.3935,-2.443,-2.5088,-2.5235,-2.5382,-2.5645,-2.5674,-2.5674,-2.5693,-2.5732,-2.6044,-2.6836,-2.7031,-2.7402,-2.8164,-2.8262,-2.8301,-2.8301,-2.8301,-2.8496,-2.8926,-2.9316,-2.9726,-3.0176,-3.0644,-3.0859,-3.0957,-3.1191,-3.1416,-3.1669,-3.123,-3.0964,-3.0732,-3.0213,-2.9626,-2.9119,-2.8312,-2.7451,-2.6599,-2.5659,-2.4495,-2.3242,-2.2763,-2.2403,-2.2085,-2.2007,-2.1822,-2.1617,-2.132,-2.0743,-2.0211,-1.9564,-1.9163,-1.8855,-1.8229,-1.7315,-1.6224,-1.5136,-1.4166,-1.3261,-1.2437,-1.1926,-0.9297,-0.9994,-1.0722,-1.1381,-1.2037,-1.2412,-1.2881,-1.3392,-1.3519,-1.3773,-1.4039,-1.4082,-1.4188,-1.4376,-1.4362,-1.4416,-1.4536,-1.471,-1.4963,-1.5231,-1.5351,-1.5498,-1.5671,-1.5792,-1.5832,-1.5832,-1.5832,-1.5832,-1.5858,-1.6163,-1.647,-1.6779,-1.7272,-1.7865,-1.8484,-1.8803,-1.9258,-1.9761,-1.9931,-2.0086,-2.0359,-2.0462,-2.0617,-2.0858,-2.096,-2.1027,-2.113,-2.1725,-2.2232,-2.2485,-2.2987,-2.3538,-2.3985,-2.4529,-2.499,-2.5284,-2.5479,-2.5596,-2.5693,-2.5674,-2.5674,-2.5713,-2.6016,-2.6367,-2.6914,-2.7285,-2.7676,-2.8144,-2.8301,-2.8301,-2.8301,-2.8301,-2.8574,-2.9199,-2.9473,-2.9863,-3.0469,-3.0801,-3.0898,-3.0937,-3.1127,-3.1375,-3.1658,-3.1458,-3.112,-3.0944,-3.049,-2.9952,-2.9382,-2.8576,-2.7716,-2.6867,-2.5928,-2.5057,-2.4094,-2.3464,-2.3106,-2.2629,-2.236,-2.2116,-2.1873,-2.1447,-2.0925,-2.0484,-1.9958,-1.948,-1.9144,-1.8422,-1.7396,-1.6667,-1.5584,-1.4569,-1.3726,-1.2979,-1.2487,-0.9559,-1.0429,-1.0895,-1.1467,-1.2037,-1.2583,-1.3052,-1.3404,-1.3707,-1.4002,-1.4199,-1.4322,-1.4482,-1.4656,-1.4763,-1.4803,-1.4816,-1.5017,-1.5257,-1.5511,-1.5538,-1.5645,-1.5758,-1.5832,-1.5832,-1.5845,-1.5925,-1.6027,-1.6149,-1.6579,-1.6966,-1.7301,-1.7944,-1.8542,-1.9067,-1.9428,-1.9791,-2.0138,-2.0241,-2.0411,-2.0719,-2.0771,-2.0976,-2.1369,-2.1522,-2.1573,-2.1573,-2.2182,-2.2636,-2.2887,-2.3488,-2.4084,-2.448,-2.499,-2.5333,-2.543,-2.5596,-2.5674,-2.5674,-2.5674,-2.5674,-2.5713,-2.6133,-2.6562,-2.6992,-2.7422,-2.7885,-2.8184,-2.8301,-2.8301,-2.832,-2.8418,-2.8789,-2.9509,-2.9687,-3.0059,-3.0762,-3.0879,-3.1035,-3.1288,-3.1315,-3.1503,-3.1847,-3.1705,-3.1423,-3.112,-3.0685,-3.0165,-2.9709,-2.8856,-2.8048,-2.7118,-2.6331,-2.547,-2.4661,-2.419,-2.3509,-2.3058,-2.2704,-2.2447,-2.2035,-2.1585,-2.1197,-2.0769,-2.0312,-1.9837,-1.9164,-1.8469,-1.7764,-1.7093,-1.6115,-1.4979,-1.422,-1.3513,-1.2977,-0.982,-1.0689,-1.1122,-1.1575,-1.2126,-1.2826,-1.3259,-1.3506,-1.397,-1.4348,-1.4549,-1.4847,-1.4941,-1.5062,-1.519,-1.5351,-1.5364,-1.5391,-1.5538,-1.5765,-1.5792,-1.5792,-1.5832,-1.5832,-1.5858,-1.5885,-1.6174,-1.6405,-1.669,-1.7026,-1.7552,-1.826,-1.8622,-1.9118,-1.9709,-1.9916,-2.0189,-2.0462,-2.0514,-2.0771,-2.1216,-2.1267,-2.142,-2.1725,-2.1979,-2.208,-2.2114,-2.2434,-2.2837,-2.3338,-2.3836,-2.448,-2.5088,-2.5284,-2.543,-2.5645,-2.5693,-2.5693,-2.5674,-2.5674,-2.5674,-2.5752,-2.6152,-2.6621,-2.6992,-2.7461,-2.7891,-2.8203,-2.8301,-2.8301,-2.8359,-2.8672,-2.9082,-2.9531,-2.9883,-3.0332,-3.0742,-3.0898,-3.1211,-3.1815,-3.1783,-3.1841,-3.2137,-3.2019,-3.1717,-3.1313,-3.0815,-3.0378,-3.0118,-2.9119,-2.818,-2.7584,-2.6682,-2.5741,-2.5201,-2.4736,-2.3991,-2.3344,-2.3075,-2.2781,-2.2259,-2.1834,-2.1679,-2.132,-2.0876,-2.0321,-1.9524,-1.8851,-1.8105,-1.7306,-1.6333,-1.5453,-1.468,-1.3998,-1.3369,-0.982,-1.0699,-1.1291,-1.185,-1.2411,-1.339,-1.392,-1.4008,-1.4523,-1.4785,-1.4843,-1.4968,-1.5115,-1.5244,-1.5364,-1.5511,-1.5685,-1.5651,-1.5691,-1.5818,-1.5832,-1.5832,-1.5832,-1.5832,-1.5939,-1.6174,-1.6427,-1.6736,-1.7054,-1.7644,-1.826,-1.8702,-1.9162,-1.9722,-2.0205,-2.0359,-2.0514,-2.0771,-2.096,-2.1181,-2.1318,-2.1471,-2.1776,-2.2232,-2.2316,-2.2535,-2.2937,-2.3088,-2.3338,-2.3836,-2.4183,-2.4677,-2.5186,-2.5479,-2.5596,-2.5674,-2.5674,-2.5674,-2.5674,-2.5693,-2.5693,-2.583,-2.6406,-2.6816,-2.707,-2.7676,-2.8125,-2.8281,-2.8301,-2.8301,-2.8418,-2.8965,-2.9394,-2.9551,-2.9941,-3.0391,-3.0801,-3.0898,-3.1289,-3.1973,-3.1844,-3.186,-3.2175,-3.2102,-3.1782,-3.1442,-3.0879,-3.0443,-3.0183,-2.9185,-2.8196,-2.7716,-2.678,-2.602,-2.5582,-2.5059,-2.4399,-2.3739,-2.3324,-2.2856,-2.2408,-2.2142,-2.2065,-2.1777,-2.1333,-2.0767,-1.9978,-1.9157,-1.8428,-1.775,-1.6872,-1.6015,-1.5126,-1.4423,-1.3838,-0.9999,-1.0899,-1.1534,-1.2092,-1.2652,-1.3673,-1.4141,-1.4276,-1.4754,-1.5078,-1.5137,-1.5244,-1.5378,-1.5524,-1.5551,-1.5658,-1.5818,-1.5832,-1.5832,-1.5832,-1.5832,-1.5832,-1.5858,-1.5952,-1.6152,-1.6455,-1.6851,-1.715,-1.7493,-1.8193,-1.8774,-1.9162,-1.9634,-2.0034,-2.0514,-2.0719,-2.0873,-2.1062,-2.1318,-2.1522,-2.1623,-2.1878,-2.2232,-2.2636,-2.2787,-2.3088,-2.3506,-2.3605,-2.3786,-2.4134,-2.4529,-2.499,-2.543,-2.5577,-2.5674,-2.5674,-2.5674,-2.5674,-2.5674,-2.5674,-2.5771,-2.6005,-2.6621,-2.709,-2.7324,-2.793,-2.8281,-2.8301,-2.8301,-2.8359,-2.8594,-2.9121,-2.959,-2.9805,-3.0215,-3.0566,-3.0859,-3.1035,-3.1406,-3.2012,-3.2121,-3.2219,-3.2403,-3.2294,-3.1974,-3.1589,-3.0879,-3.0378,-3.0118,-2.9185,-2.8461,-2.7781,-2.6972,-2.6383,-2.59,-2.5328,-2.4679,-2.4123,-2.3635,-2.3005,-2.2483,-2.234,-2.2253,-2.2027,-2.1612,-2.1023,-2.0292,-1.9632,-1.8875,-1.8154,-1.7399,-1.6555,-1.5795,-1.4907,-1.4222,-1.038,-1.1303,-1.183,-1.2334,-1.2894,-1.3638,-1.4118,-1.4345,-1.4825,-1.5186,-1.5425,-1.5645,-1.5731,-1.5805,-1.5731,-1.5805,-1.5832,-1.5832,-1.5858,-1.5885,-1.5851,-1.5912,-1.5957,-1.6206,-1.6446,-1.6777,-1.7336,-1.7742,-1.8016,-1.8617,-1.9234,-1.9642,-1.9968,-2.0241,-2.0565,-2.1027,-2.1267,-2.1267,-2.1573,-2.1827,-2.208,-2.2384,-2.2686,-2.3055,-2.3306,-2.3538,-2.3854,-2.4084,-2.4183,-2.4282,-2.4941,-2.5382,-2.5645,-2.5674,-2.5674,-2.5674,-2.5674,-2.5674,-2.5674,-2.5674,-2.5869,-2.6309,-2.6738,-2.7207,-2.7598,-2.8008,-2.8301,-2.8301,-2.8301,-2.8457,-2.8848,-2.9297,-2.9726,-3.0195,-3.0586,-3.082,-3.0918,-3.123,-3.166,-3.209,-3.2519,-3.2825,-3.2854,-3.2549,-3.223,-3.1782,-3.1073,-3.0573,-3.0183,-2.9382,-2.8527,-2.783,-2.7154,-2.6611,-2.6154,-2.5755,-2.5122,-2.4436,-2.397,-2.3377,-2.2718,-2.26,-2.2548,-2.2232,-2.1871,-2.1281,-2.0709,-2.0049,-1.9302,-1.8589,-1.7807,-1.7102,-1.6251,-1.5325,-1.457,-1.038,-1.1323,-1.1859,-1.2494,-1.3182,-1.3908,-1.4465,-1.4854,-1.5188,-1.545,-1.5691,-1.5744,-1.5832,-1.5832,-1.5832,-1.5832,-1.5832,-1.5845,-1.5965,-1.6139,-1.6152,-1.6286,-1.6433,-1.6553,-1.674,-1.7109,-1.764,-1.8035,-1.8348,-1.9057,-1.9635,-1.9983,-2.0256,-2.0514,-2.0822,-2.1181,-2.1267,-2.1369,-2.1776,-2.2131,-2.2384,-2.2736,-2.3105,-2.3555,-2.3786,-2.4035,-2.4332,-2.4745,-2.499,-2.499,-2.5333,-2.5645,-2.5693,-2.5674,-2.5674,-2.5674,-2.5674,-2.5674,-2.5674,-2.5674,-2.5937,-2.6367,-2.6797,-2.7207,-2.7637,-2.8047,-2.8262,-2.8301,-2.8301,-2.8476,-2.8887,-2.9355,-2.9902,-3.0566,-3.082,-3.0898,-3.0957,-3.1269,-3.168,-3.2109,-3.2539,-3.2801,-3.2859,-3.2613,-3.2294,-3.191,-3.1331,-3.0638,-3.023,-2.9513,-2.8642,-2.8029,-2.7403,-2.6863,-2.6379,-2.5997,-2.548,-2.4796,-2.4267,-2.3835,-2.3254,-2.2885,-2.2829,-2.2686,-2.2385,-2.1911,-2.1276,-2.0709,-1.9824,-1.8996,-1.8327,-1.7576,-1.6534,-1.5514,-1.4817,-1.0735,-1.1643,-1.2252,-1.283,-1.3376,-1.404,-1.4544,-1.4927,-1.5213,-1.5452,-1.5642,-1.5784,-1.5832,-1.5832,-1.5832,-1.5832,-1.5798,-1.5965,-1.6112,-1.6286,-1.6576,-1.6777,-1.686,-1.6901,-1.7099,-1.7405,-1.7898,-1.8202,-1.8551,-1.9257,-1.9828,-2.0138,-2.0514,-2.0822,-2.1078,-2.1471,-2.1623,-2.1725,-2.2182,-2.2585,-2.2736,-2.3088,-2.3488,-2.3886,-2.4134,-2.443,-2.4843,-2.5137,-2.5333,-2.545,-2.5645,-2.5674,-2.5674,-2.5674,-2.5674,-2.5674,-2.5674,-2.5674,-2.5674,-2.5693,-2.5986,-2.6543,-2.6914,-2.7324,-2.7812,-2.8164,-2.8301,-2.8301,-2.8301,-2.8594,-2.916,-2.9746,-3.0312,-3.0762,-3.0898,-3.0898,-3.0898,-3.1445,-3.1836,-3.2226,-3.2676,-3.3062,-3.3082,-3.2785,-3.2485,-3.2102,-3.1589,-3.0944,-3.0426,-2.9561,-2.8807,-2.8262,-2.7816,-2.7307,-2.6879,-2.6484,-2.5998,-2.5231,-2.4414,-2.4058,-2.3782,-2.3285,-2.3152,-2.3084,-2.283,-2.2406,-2.1842,-2.1141,-2.0286,-1.9512,-1.8838,-1.7977,-1.6911,-1.5974,-1.5281,-1.1247,-1.2078,-1.271,-1.3195,-1.3522,-1.4016,-1.44,-1.4736,-1.4975,-1.5261,-1.5499,-1.5689,-1.5784,-1.5832,-1.5832,-1.5845,-1.5899,-1.6126,-1.6313,-1.6603,-1.6938,-1.7233,-1.7233,-1.7246,-1.7367,-1.762,-1.8146,-1.8356,-1.8632,-1.9309,-1.9828,-2.0138,-2.0601,-2.1027,-2.1318,-2.1827,-2.208,-2.2232,-2.2736,-2.3088,-2.3238,-2.3637,-2.3985,-2.4233,-2.448,-2.4843,-2.5186,-2.5382,-2.543,-2.5674,-2.5674,-2.5674,-2.5674,-2.5674,-2.5674,-2.5674,-2.5674,-2.5674,-2.5713,-2.5771,-2.6103,-2.6816,-2.7051,-2.7422,-2.8047,-2.8281,-2.8301,-2.8301,-2.834,-2.8809,-2.9551,-3.0371,-3.0742,-3.0898,-3.0898,-3.0898,-3.1094,-3.168,-3.2229,-3.2226,-3.291,-3.332,-3.3292,-3.3102,-3.2804,-3.2485,-3.191,-3.1267,-3.062,-2.9822,-2.9121,-2.8511,-2.8148,-2.784,-2.7467,-2.7075,-2.6475,-2.58,-2.471,-2.421,-2.4137,-2.3816,-2.3634,-2.3428,-2.3288,-2.2889,-2.2326,-2.157,-2.0777,-2.0089,-1.9419,-1.8514,-1.7558,-1.669,-1.5863,-1.11,-1.2029,-1.2175,-1.271,-1.3448,-1.363,-1.4064,-1.4688,-1.4736,-1.507,-1.5452,-1.5547,-1.5689,-1.5832,-1.5811,-1.5952,-1.6152,-1.6299,-1.6536,-1.7045,-1.7367,-1.7527,-1.7541,-1.7475,-1.7515,-1.774,-1.816,-1.837,-1.8632,-1.9205,-1.9828,-2.0138,-2.0652,-2.1027,-2.1369,-2.203,-2.2417,-2.2518,-2.3138,-2.3637,-2.3836,-2.4134,-2.443,-2.4677,-2.499,-2.5284,-2.5547,-2.5645,-2.5625,-2.5693,-2.5674,-2.5674,-2.5674,-2.5674,-2.5674,-2.5674,-2.5693,-2.5693,-2.5752,-2.6074,-2.6465,-2.6973,-2.7344,-2.7787,-2.8203,-2.8301,-2.8301,-2.8359,-2.8594,-2.9121,-2.9922,-3.0547,-3.084,-3.0898,-3.0898,-3.1016,-3.1367,-3.1836,-3.2129,-3.2363,-3.2891,-3.3418,-3.3355,-3.3102,-3.2931,-3.274,-3.223,-3.1525,-3.0879,-3.0148,-2.9502,-2.8926,-2.8533,-2.8212,-2.77,-2.7206,-2.6474,-2.5915,-2.5059,-2.4539,-2.4468,-2.4469,-2.4321,-2.4086,-2.3896,-2.3371,-2.2878,-2.2166,-2.1392,-2.0723,-1.9975,-1.9017,-1.8028,-1.7253,-1.6433,-1.1042,-1.1834,-1.2224,-1.271,-1.3292,-1.3593,-1.3968,-1.4448,-1.464,-1.4927,-1.5261,-1.5452,-1.5629,-1.5798,-1.5979,-1.6139,-1.6326,-1.658,-1.6965,-1.7353,-1.7581,-1.7582,-1.7582,-1.7582,-1.7635,-1.7635,-1.8003,-1.8265,-1.8579,-1.9101,-1.9739,-2.0138,-2.0755,-2.1216,-2.1573,-2.2333,-2.2686,-2.2887,-2.3488,-2.3985,-2.4134,-2.448,-2.4843,-2.5088,-2.5333,-2.5596,-2.5693,-2.5674,-2.5674,-2.5674,-2.5674,-2.5674,-2.5674,-2.5674,-2.5674,-2.5674,-2.5693,-2.581,-2.6055,-2.6269,-2.666,-2.7266,-2.7539,-2.7871,-2.8164,-2.8301,-2.8301,-2.8379,-2.8711,-2.9258,-3.0098,-3.0605,-3.0859,-3.0898,-3.0898,-3.1074,-3.1484,-3.1894,-3.2266,-3.25,-3.3027,-3.332,-3.3292,-3.3165,-3.3038,-3.2867,-3.2549,-3.1846,-3.1202,-3.0508,-2.9983,-2.9478,-2.9003,-2.8553,-2.7919,-2.7179,-2.6299,-2.5884,-2.5316,-2.5037,-2.5017,-2.5048,-2.5037,-2.473,-2.4412,-2.4,-2.3428,-2.2705,-2.1986,-2.1199,-2.028,-1.9363,-1.8422,-1.754,-1.673,-1.1051,-1.1639,-1.237,-1.2807,-1.3098,-1.3582,-1.3968,-1.4256,-1.4544,-1.4736,-1.5035,-1.5309,-1.5499,-1.579,-1.6126,-1.6335,-1.6603,-1.6978,-1.7393,-1.7515,-1.7569,-1.7582,-1.7582,-1.7582,-1.7582,-1.7635,-1.7911,-1.8122,-1.8475,-1.8959,-1.9532,-2.0138,-2.0755,-2.1267,-2.1776,-2.2535,-2.2987,-2.3155,-2.3836,-2.4233,-2.4381,-2.4775,-2.5186,-2.5333,-2.5547,-2.5693,-2.5693,-2.5693,-2.5742,-2.5742,-2.5723,-2.5723,-2.5723,-2.5693,-2.5674,-2.5674,-2.5674,-2.5888,-2.625,-2.6484,-2.6855,-2.7669,-2.7806,-2.7982,-2.8203,-2.832,-2.8359,-2.8594,-2.8926,-2.9551,-3.0215,-3.0644,-3.0859,-3.0898,-3.0898,-3.1152,-3.1621,-3.2012,-3.2305,-3.2715,-3.3086,-3.3379,-3.3418,-3.3292,-3.3165,-3.2975,-3.2613,-3.223,-3.1589,-3.0905,-3.0316,-2.9881,-2.9392,-2.8745,-2.8104,-2.6951,-2.6137,-2.5824,-2.537,-2.5308,-2.5388,-2.5487,-2.5413,-2.5268,-2.4878,-2.4559,-2.4007,-2.3329,-2.2551,-2.1614,-2.0681,-1.986,-1.8861,-1.774,-1.6968,-1.0748,-1.1296,-1.1883,-1.2419,-1.2905,-1.3352,-1.3738,-1.3979,-1.4256,-1.4544,-1.4783,-1.507,-1.5309,-1.5639,-1.6091,-1.6576,-1.7005,-1.7367,-1.7515,-1.7582,-1.7582,-1.7582,-1.7582,-1.7582,-1.7635,-1.7687,-1.7859,-1.8122,-1.8422,-1.8803,-1.9376,-2.0034,-2.0514,-2.0976,-2.1776,-2.2485,-2.3088,-2.3406,-2.4183,-2.4627,-2.4794,-2.5235,-2.5528,-2.5625,-2.5742,-2.5791,-2.5742,-2.5742,-2.5791,-2.5965,-2.582,-2.582,-2.5917,-2.582,-2.5742,-2.5693,-2.5732,-2.6016,-2.6406,-2.6758,-2.7129,-2.7617,-2.7949,-2.8144,-2.8281,-2.832,-2.8476,-2.8926,-2.9473,-3.0176,-3.0703,-3.084,-3.0879,-3.0898,-3.0996,-3.1367,-3.2168,-3.2422,-3.2519,-3.3008,-3.3281,-3.3418,-3.3418,-3.3418,-3.3292,-3.3038,-3.2676,-3.2358,-3.1891,-3.1219,-3.0535,-3.0068,-2.9696,-2.8943,-2.8177,-2.6866,-2.58,-2.575,-2.5486,-2.5348,-2.5491,-2.5758,-2.5778,-2.5648,-2.5514,-2.5276,-2.4685,-2.397,-2.3267,-2.2369,-2.1431,-2.0353,-1.9288,-1.8253,-1.7264,-1.0511,-1.1042,-1.1443,-1.198,-1.2613,-1.3098,-1.3545,-1.3931,-1.4208,-1.4448,-1.4736,-1.4987,-1.5351,-1.5761,-1.6268,-1.682,-1.734,-1.7541,-1.7582,-1.7582,-1.7582,-1.7582,-1.7635,-1.7635,-1.7687,-1.7806,-1.7964,-1.8174,-1.837,-1.8527,-1.9205,-1.9931,-2.0359,-2.0925,-2.1674,-2.2485,-2.3038,-2.3555,-2.435,-2.4892,-2.499,-2.5577,-2.5868,-2.5917,-2.6014,-2.611,-2.611,-2.611,-2.6159,-2.6255,-2.6207,-2.6207,-2.6207,-2.6179,-2.5985,-2.583,-2.5937,-2.625,-2.6699,-2.7109,-2.7559,-2.793,-2.8203,-2.8281,-2.8301,-2.834,-2.8613,-2.9219,-2.9746,-3.0391,-3.082,-3.0879,-3.0898,-3.0937,-3.1074,-3.1699,-3.2461,-3.2734,-3.3125,-3.3457,-3.3535,-3.3555,-3.3418,-3.3418,-3.3418,-3.3165,-3.2785,-3.2466,-3.2147,-3.1421,-3.0624,-3.0325,-2.9912,-2.9033,-2.8125,-2.6852,-2.5873,-2.5736,-2.5568,-2.5429,-2.5558,-2.5852,-2.6092,-2.6096,-2.599,-2.5832,-2.5359,-2.4551,-2.3909,-2.3109,-2.1865,-2.0613,-1.9681,-1.8709,-1.7721,-1.0265,-1.0757,-1.11,-1.1639,-1.2322,-1.2856,-1.334,-1.3775,-1.4112,-1.4388,-1.4726,-1.504,-1.5422,-1.5924,-1.6537,-1.7074,-1.7569,-1.7635,-1.7582,-1.7582,-1.7582,-1.7635,-1.7687,-1.7687,-1.7793,-1.8069,-1.8122,-1.8265,-1.8579,-1.8684,-1.9257,-2.0086,-2.0514,-2.1027,-2.1878,-2.2585,-2.3038,-2.3687,-2.4399,-2.4892,-2.5265,-2.58,-2.6187,-2.6187,-2.64,-2.6448,-2.6448,-2.64,-2.6496,-2.6544,-2.6496,-2.6496,-2.6564,-2.6625,-2.6443,-2.6162,-2.629,-2.6702,-2.7192,-2.7402,-2.7773,-2.8184,-2.8262,-2.8301,-2.8398,-2.8555,-2.8926,-2.959,-3.0117,-3.0488,-3.082,-3.0898,-3.0898,-3.0976,-3.1289,-3.1855,-3.2676,-3.3242,-3.3789,-3.3965,-3.3867,-3.3769,-3.3691,-3.3418,-3.3418,-3.3228,-3.2848,-3.2549,-3.214,-3.14,-3.0768,-3.0532,-3.0004,-2.9059,-2.8042,-2.6794,-2.6019,-2.5754,-2.5623,-2.5501,-2.5692,-2.5972,-2.6186,-2.6307,-2.6307,-2.6122,-2.5623,-2.5114,-2.4301,-2.3307,-2.2018,-2.0902,-2.0016,-1.9012,-1.7949,-1.0167,-1.0511,-1.1002,-1.1541,-1.2078,-1.2613,-1.3109,-1.3545,-1.3846,-1.4218,-1.4728,-1.5207,-1.5592,-1.6123,-1.6815,-1.7288,-1.7502,-1.7582,-1.7635,-1.7635,-1.7635,-1.774,-1.7911,-1.7964,-1.8122,-1.8331,-1.837,-1.8698,-1.9063,-1.9168,-1.9739,-2.0565,-2.0822,-2.1318,-2.2232,-2.2719,-2.327,-2.3985,-2.4627,-2.5284,-2.5868,-2.6255,-2.6448,-2.6496,-2.6544,-2.6592,-2.6592,-2.6592,-2.664,-2.6805,-2.6661,-2.6661,-2.6818,-2.6996,-2.7109,-2.6952,-2.6904,-2.7051,-2.7744,-2.7885,-2.7924,-2.8276,-2.8281,-2.8301,-2.8496,-2.8965,-2.9492,-3.0059,-3.0508,-3.0742,-3.0859,-3.0898,-3.0898,-3.1094,-3.1387,-3.2187,-3.3027,-3.3828,-3.4375,-3.4609,-3.457,-3.4277,-3.4082,-3.3711,-3.3355,-3.3165,-3.2912,-3.2613,-3.2169,-3.1462,-3.0781,-3.0512,-2.9959,-2.9059,-2.8057,-2.675,-2.6093,-2.58,-2.5664,-2.5518,-2.5705,-2.5945,-2.6239,-2.6386,-2.64,-2.6373,-2.603,-2.5401,-2.4572,-2.3476,-2.2257,-2.1325,-2.0447,-1.9315,-1.8111,-1.0019,-1.0413,-1.0659,-1.1247,-1.2029,-1.2419,-1.2964,-1.3519,-1.3938,-1.436,-1.4788,-1.5432,-1.6035,-1.6624,-1.721,-1.7448,-1.7569,-1.7635,-1.7701,-1.7806,-1.7859,-1.795,-1.816,-1.8265,-1.837,-1.8646,-1.8907,-1.9205,-1.9532,-1.9583,-1.9843,-2.0771,-2.0976,-2.142,-2.2518,-2.2937,-2.3488,-2.4134,-2.4922,-2.5654,-2.6235,-2.6592,-2.6688,-2.6709,-2.688,-2.6928,-2.6928,-2.6976,-2.6976,-2.7181,-2.716,-2.7344,-2.7516,-2.7774,-2.8052,-2.8359,-2.8127,-2.8106,-2.8273,-2.8291,-2.8351,-2.8382,-2.8427,-2.8398,-2.8691,-2.9199,-2.9766,-3.0156,-3.0625,-3.0859,-3.0898,-3.0898,-3.0898,-3.1094,-3.1641,-3.2461,-3.3359,-3.4277,-3.4883,-3.5078,-3.5176,-3.4746,-3.4355,-3.4004,-3.3569,-3.3228,-3.2886,-3.2542,-3.219,-3.1774,-3.1059,-3.0393,-2.978,-2.9066,-2.7985,-2.6823,-2.6166,-2.581,-2.5657,-2.5568,-2.5638,-2.5879,-2.6226,-2.64,-2.64,-2.6373,-2.6254,-2.5453,-2.4406,-2.3451,-2.2545,-2.1586,-2.0522,-1.9315,-1.8035,-0.9871,-1.0314,-1.0364,-1.1002,-1.198,-1.2224,-1.2759,-1.3519,-1.3993,-1.4404,-1.4946,-1.5707,-1.6549,-1.7196,-1.7462,-1.7569,-1.7582,-1.7687,-1.7806,-1.7964,-1.8122,-1.8279,-1.8436,-1.8541,-1.8698,-1.9026,-1.9272,-1.9583,-1.9828,-1.9998,-2.0308,-2.1062,-2.1267,-2.1827,-2.2636,-2.3288,-2.3886,-2.4658,-2.546,-2.6091,-2.6544,-2.688,-2.6976,-2.7092,-2.7214,-2.7404,-2.7404,-2.7452,-2.7478,-2.7627,-2.7814,-2.7973,-2.8082,-2.8425,-2.8776,-2.9064,-2.8962,-2.9023,-2.8978,-2.8878,-2.8794,-2.8747,-2.8745,-2.88,-2.9062,-2.9473,-2.9922,-3.0391,-3.0664,-3.0859,-3.0898,-3.0898,-3.0996,-3.1406,-3.2031,-3.2812,-3.3613,-3.4531,-3.5234,-3.5469,-3.541,-3.4961,-3.459,-3.4277,-3.3906,-3.3408,-3.295,-3.2452,-3.2097,-3.1745,-3.1216,-3.0439,-2.9949,-2.9154,-2.813,-2.7114,-2.6385,-2.588,-2.58,-2.5693,-2.5828,-2.5996,-2.6306,-2.64,-2.64,-2.6386,-2.636,-2.5296,-2.4265,-2.3552,-2.2745,-2.1575,-2.0522,-1.9239,-1.8035,-0.9772,-1.0068,-1.0314,-1.0993,-1.198,-1.2029,-1.2613,-1.3505,-1.3819,-1.4421,-1.5275,-1.612,-1.6937,-1.7437,-1.7542,-1.7582,-1.7635,-1.7859,-1.8016,-1.8122,-1.8279,-1.8541,-1.875,-1.8921,-1.9026,-1.9272,-1.9532,-1.9828,-2.0189,-2.055,-2.096,-2.1573,-2.1776,-2.2485,-2.3188,-2.3836,-2.4627,-2.5362,-2.6091,-2.6496,-2.6832,-2.7119,-2.7262,-2.7309,-2.7452,-2.7573,-2.7594,-2.7826,-2.8084,-2.8202,-2.8411,-2.8502,-2.8736,-2.9051,-2.9383,-2.9487,-2.9632,-2.9652,-2.9629,-2.9315,-2.9132,-2.9146,-2.9226,-2.9352,-2.9603,-2.9959,-3.0389,-3.0741,-3.084,-3.0879,-3.0898,-3.0918,-3.1035,-3.166,-3.2363,-3.3184,-3.3984,-3.4844,-3.5488,-3.5781,-3.5547,-3.498,-3.4531,-3.4141,-3.3867,-3.3413,-3.295,-3.2512,-3.1968,-3.1598,-3.1184,-3.06,-3.0146,-2.9354,-2.8362,-2.7478,-2.6692,-2.6365,-2.621,-2.6143,-2.6142,-2.6307,-2.6544,-2.6479,-2.6479,-2.6479,-2.6227,-2.5166,-2.4303,-2.378,-2.2946,-2.1412,-2.007,-1.8785,-1.7645,-0.9871,-1.0265,-1.0364,-1.0855,-1.1541,-1.1883,-1.2552,-1.3501,-1.3975,-1.4879,-1.6054,-1.6529,-1.7054,-1.7477,-1.7635,-1.7687,-1.7845,-1.7911,-1.8174,-1.8489,-1.8712,-1.8855,-1.9078,-1.9182,-1.9272,-1.9532,-1.9828,-2.0086,-2.0411,-2.0858,-2.142,-2.1878,-2.2215,-2.282,-2.352,-2.4381,-2.5265,-2.5945,-2.6448,-2.6736,-2.7262,-2.7404,-2.7594,-2.7715,-2.7762,-2.7978,-2.8238,-2.8397,-2.8673,-2.8985,-2.9232,-2.9366,-2.9446,-2.9764,-2.9901,-2.9891,-3.0016,-3.0026,-3.0015,-2.9647,-2.9465,-2.9534,-2.9647,-2.9844,-3.0181,-3.0441,-3.0622,-3.0839,-3.0957,-3.0957,-3.0898,-3.0918,-3.1133,-3.1875,-3.2695,-3.3555,-3.4355,-3.5215,-3.5566,-3.5801,-3.5332,-3.4726,-3.4316,-3.3906,-3.3672,-3.3413,-3.2944,-3.2516,-3.192,-3.1608,-3.1306,-3.0828,-3.0305,-2.9783,-2.8794,-2.7928,-2.6983,-2.679,-2.6616,-2.6542,-2.6475,-2.6649,-2.6781,-2.6702,-2.6558,-2.64,-2.5911,-2.4972,-2.4341,-2.3907,-2.2605,-2.0815,-1.9542,-1.8329,-1.7416,-0.9879,-1.0265,-1.0364,-1.0806,-1.1443,-1.1904,-1.2657,-1.3596,-1.4202,-1.5295,-1.667,-1.6723,-1.7054,-1.7477,-1.7635,-1.774,-1.7964,-1.8122,-1.845,-1.8712,-1.8974,-1.913,-1.9272,-1.9376,-1.9532,-1.9724,-2.0086,-2.0359,-2.0668,-2.1181,-2.1674,-2.2182,-2.2669,-2.327,-2.3886,-2.4873,-2.582,-2.6448,-2.6784,-2.7023,-2.7641,-2.7715,-2.791,-2.8189,-2.8301,-2.8583,-2.893,-2.9176,-2.9412,-2.97,-2.997,-3.0197,-3.033,-3.0439,-3.0526,-3.0443,-3.0308,-3.0151,-3.0067,-3.0075,-2.9954,-2.9931,-3.0322,-3.054,-3.0737,-3.0903,-3.1106,-3.1033,-3.1054,-3.1015,-3.0996,-3.1152,-3.1601,-3.2363,-3.3359,-3.4219,-3.4805,-3.5508,-3.5625,-3.5742,-3.5156,-3.4648,-3.4336,-3.3881,-3.3359,-3.3198,-3.302,-3.2497,-3.1877,-3.161,-3.1583,-3.1073,-3.048,-2.9942,-2.9298,-2.8362,-2.7435,-2.7218,-2.7066,-2.6947,-2.6954,-2.712,-2.7083,-2.6874,-2.6716,-2.6386,-2.578,-2.5063,-2.4572,-2.4124,-2.2353,-2.0458,-1.939,-1.8329,-1.7493,-0.9772,-1.0019,-1.0323,-1.1012,-1.1933,-1.2223,-1.2875,-1.3897,-1.451,-1.5486,-1.6605,-1.6723,-1.7054,-1.7529,-1.7635,-1.7806,-1.8069,-1.8318,-1.8593,-1.8921,-1.922,-1.9324,-1.9428,-1.9583,-1.9724,-1.9828,-2.0205,-2.0617,-2.0925,-2.1471,-2.203,-2.2669,-2.337,-2.3917,-2.4233,-2.5167,-2.6091,-2.6812,-2.7119,-2.7478,-2.7857,-2.804,-2.8343,-2.8631,-2.8967,-2.9322,-2.9715,-2.9921,-3.0181,-3.0493,-3.0551,-3.0686,-3.0781,-3.0794,-3.0776,-3.0776,-3.0589,-3.0454,-3.0423,-3.0609,-3.0578,-3.0526,-3.0982,-3.132,-3.124,-3.1408,-3.1592,-3.1383,-3.1267,-3.1268,-3.1348,-3.1642,-3.227,-3.3152,-3.4171,-3.4773,-3.534,-3.5644,-3.5781,-3.5684,-3.5156,-3.4668,-3.4375,-3.3914,-3.3168,-3.2855,-3.2884,-3.2458,-3.1814,-3.1888,-3.2018,-3.1441,-3.0781,-3.0228,-2.9656,-2.8635,-2.7901,-2.7656,-2.7467,-2.7309,-2.7364,-2.7453,-2.7365,-2.7148,-2.686,-2.661,-2.5911,-2.5179,-2.4341,-2.3325,-2.193,-2.0296,-1.9315,-1.8405,-1.7569,-0.9871,-1.0274,-1.0503,-1.1206,-1.2114,-1.2284,-1.2983,-1.4178,-1.5124,-1.5972,-1.6552,-1.667,-1.7054,-1.7477,-1.7806,-1.8016,-1.8279,-1.8593,-1.8921,-1.9182,-1.9428,-1.9532,-1.9635,-1.9828,-2.0034,-2.0256,-2.0617,-2.0976,-2.1165,-2.1878,-2.2467,-2.317,-2.4214,-2.5001,-2.5294,-2.5897,-2.6592,-2.7119,-2.7404,-2.7736,-2.8228,-2.858,-2.8907,-2.9245,-2.9623,-3.0041,-3.0454,-3.0619,-3.0787,-3.1106,-3.1121,-3.1178,-3.1249,-3.1189,-3.1086,-3.112,-3.1019,-3.1233,-3.1314,-3.1462,-3.1512,-3.1581,-3.1593,-3.1871,-3.1926,-3.2011,-3.194,-3.175,-3.1654,-3.1816,-3.2435,-3.2635,-3.3213,-3.4255,-3.51,-3.5316,-3.5701,-3.5801,-3.5918,-3.5625,-3.5195,-3.4753,-3.4381,-3.4107,-3.3398,-3.3008,-3.3036,-3.2664,-3.2052,-3.246,-3.2752,-3.1965,-3.1277,-3.071,-2.9942,-2.8851,-2.8217,-2.7931,-2.7777,-2.7696,-2.7831,-2.7903,-2.7884,-2.7726,-2.7319,-2.6792,-2.5778,-2.474,-2.349,-2.2262,-2.1204,-2.0145,-1.9174,-1.8415,-1.7883,-0.9821,-1.0381,-1.0624,-1.1355,-1.2344,-1.2516,-1.3288,-1.4567,-1.5494,-1.6205,-1.6617,-1.6723,-1.7041,-1.7529,-1.7845,-1.8174,-1.8422,-1.875,-1.9168,-1.9428,-1.9583,-1.9724,-1.9879,-2.0189,-2.0447,-2.0719,-2.113,-2.1471,-2.1776,-2.2333,-2.3088,-2.4035,-2.5148,-2.5829,-2.6235,-2.6668,-2.7023,-2.7541,-2.7936,-2.8391,-2.8852,-2.9206,-2.9645,-3.0008,-3.0341,-3.0619,-3.0996,-3.1192,-3.128,-3.1542,-3.1629,-3.1629,-3.1527,-3.1497,-3.1408,-3.1573,-3.1804,-3.2009,-3.2129,-3.2086,-3.2149,-3.2419,-3.2327,-3.2303,-3.2416,-3.242,-3.2248,-3.2096,-3.2102,-3.2549,-3.3134,-3.3336,-3.4302,-3.5371,-3.5864,-3.6083,-3.6194,-3.6364,-3.6316,-3.6,-3.5665,-3.5087,-3.453,-3.4132,-3.3691,-3.3392,-3.3122,-3.2681,-3.2326,-3.2669,-3.2963,-3.2263,-3.1418,-3.071,-2.9942,-2.8923,-2.8434,-2.8145,-2.7999,-2.792,-2.8093,-2.8139,-2.823,-2.8275,-2.7698,-2.6854,-2.5502,-2.4291,-2.3201,-2.2138,-2.1094,-2.007,-1.9022,-1.8415,-1.7959,-0.9682,-1.0349,-1.0582,-1.1499,-1.2575,-1.2923,-1.3784,-1.503,-1.5618,-1.6152,-1.6683,-1.667,-1.7041,-1.7582,-1.7898,-1.816,-1.8475,-1.8803,-1.922,-1.9583,-1.9776,-1.9931,-2.0241,-2.0652,-2.0909,-2.1216,-2.1623,-2.208,-2.2518,-2.317,-2.3935,-2.4873,-2.5849,-2.6572,-2.7051,-2.7488,-2.7746,-2.8158,-2.8593,-2.9046,-2.948,-2.9969,-3.0341,-3.0702,-3.1014,-3.1278,-3.1541,-3.1695,-3.1717,-3.1732,-3.168,-3.1651,-3.1651,-3.1651,-3.1979,-3.2289,-3.263,-3.2716,-3.2904,-3.2762,-3.2742,-3.2901,-3.2877,-3.2804,-3.269,-3.2695,-3.2662,-3.2711,-3.2799,-3.315,-3.3497,-3.4408,-3.5379,-3.6037,-3.6662,-3.679,-3.6931,-3.6944,-3.6944,-3.6743,-3.6376,-3.585,-3.5117,-3.4611,-3.4187,-3.3708,-3.3421,-3.3115,-3.282,-3.2672,-3.2788,-3.2333,-3.1489,-3.0655,-2.9799,-2.8995,-2.8418,-2.8145,-2.8014,-2.7903,-2.8107,-2.8326,-2.8477,-2.8417,-2.7933,-2.6914,-2.5255,-2.4049,-2.3127,-2.2027,-2.0921,-1.9995,-1.8946,-1.8415,-1.7883,-0.9556,-1.0129,-1.0672,-1.1444,-1.2384,-1.338,-1.433,-1.4976,-1.547,-1.6004,-1.667,-1.667,-1.7054,-1.7635,-1.8055,-1.8265,-1.8632,-1.9049,-1.9465,-1.9776,-2.0101,-2.0395,-2.0704,-2.1078,-2.1385,-2.1776,-2.2215,-2.2669,-2.327,-2.3917,-2.4952,-2.6014,-2.6572,-2.7336,-2.791,-2.8407,-2.8588,-2.8881,-2.9315,-2.9654,-3.0105,-3.0668,-3.1026,-3.1274,-3.1689,-3.1961,-3.2072,-3.219,-3.219,-3.2234,-3.1986,-3.2024,-3.2465,-3.2353,-3.2459,-3.3289,-3.3301,-3.3243,-3.3596,-3.3423,-3.3283,-3.338,-3.3419,-3.3106,-3.297,-3.3016,-3.3124,-3.3355,-3.3729,-3.4164,-3.478,-3.5618,-3.6371,-3.6851,-3.7299,-3.7313,-3.7348,-3.728,-3.728,-3.7199,-3.6896,-3.6547,-3.5806,-3.524,-3.4788,-3.423,-3.3804,-3.352,-3.3181,-3.3088,-3.277,-3.2403,-3.1489,-3.0655,-2.9942,-2.9066,-2.8563,-2.8076,-2.8,-2.7949,-2.8034,-2.8282,-2.8647,-2.8374,-2.7678,-2.6374,-2.4765,-2.3756,-2.2876,-2.1714,-2.0533,-1.9779,-1.8946,-1.8339,-1.7655,-0.9442,-1.0018,-1.0785,-1.1698,-1.2685,-1.3739,-1.4493,-1.4987,-1.5374,-1.5951,-1.6617,-1.667,-1.7054,-1.7635,-1.8108,-1.8422,-1.8475,-1.9257,-1.9724,-1.9983,-2.0411,-2.0771,-2.1078,-2.1522,-2.1928,-2.2316,-2.282,-2.337,-2.3917,-2.4903,-2.5994,-2.6572,-2.7262,-2.7957,-2.8554,-2.9024,-2.9515,-2.9877,-3.0193,-3.04,-3.0806,-3.1329,-3.1628,-3.184,-3.2331,-3.2448,-3.2544,-3.2544,-3.2583,-3.274,-3.253,-3.2775,-3.319,-3.3201,-3.3134,-3.3803,-3.3878,-3.3886,-3.4112,-3.4167,-3.3983,-3.3961,-3.4086,-3.3996,-3.3763,-3.3651,-3.382,-3.4031,-3.4672,-3.5314,-3.608,-3.6825,-3.7315,-3.7801,-3.7775,-3.775,-3.7616,-3.7549,-3.7549,-3.7508,-3.7278,-3.7055,-3.6542,-3.5949,-3.5369,-3.4848,-3.4446,-3.4154,-3.3733,-3.3331,-3.3031,-3.2631,-3.1576,-3.0584,-2.9871,-2.921,-2.8563,-2.8064,-2.794,-2.7981,-2.8037,-2.8206,-2.855,-2.8068,-2.7304,-2.597,-2.4611,-2.3552,-2.2597,-2.1394,-2.0233,-1.9281,-1.8511,-1.7959,-1.7197,-0.9391,-0.9949,-1.0931,-1.2105,-1.3295,-1.3954,-1.4493,-1.503,-1.5363,-1.6004,-1.663,-1.6736,-1.7107,-1.7635,-1.816,-1.837,-1.8684,-1.9361,-1.9931,-2.0189,-2.0652,-2.113,-2.1623,-2.208,-2.2467,-2.292,-2.342,-2.3967,-2.4559,-2.5489,-2.6428,-2.6955,-2.7773,-2.8464,-2.9024,-2.9659,-3.0219,-3.0806,-3.1174,-3.1429,-3.154,-3.2074,-3.2544,-3.2471,-3.2544,-3.2617,-3.2617,-3.2707,-3.2814,-3.3128,-3.3346,-3.36,-3.3838,-3.4124,-3.4065,-3.4054,-3.425,-3.4435,-3.4575,-3.4666,-3.4769,-3.4833,-3.5061,-3.5045,-3.4854,-3.4557,-3.4646,-3.4857,-3.5397,-3.6059,-3.6784,-3.726,-3.7753,-3.7955,-3.8017,-3.7971,-3.7971,-3.7904,-3.7904,-3.7883,-3.7842,-3.755,-3.7237,-3.664,-3.6014,-3.5491,-3.5034,-3.4751,-3.4202,-3.3679,-3.3152,-3.2701,-3.1506,-3.0513,-3.0085,-2.9354,-2.8491,-2.8067,-2.797,-2.7922,-2.7978,-2.8235,-2.8466,-2.7862,-2.7139,-2.5896,-2.4661,-2.3584,-2.2366,-2.1088,-1.9981,-1.8841,-1.8113,-1.753,-1.6907,-0.941,-0.998,-1.1291,-1.2398,-1.3315,-1.3954,-1.4493,-1.5041,-1.5577,-1.6152,-1.6683,-1.6948,-1.7265,-1.7635,-1.816,-1.8422,-1.8632,-1.9465,-2.0086,-2.0498,-2.096,-2.1573,-2.2131,-2.2485,-2.297,-2.3569,-2.4084,-2.4609,-2.5343,-2.6235,-2.6976,-2.7514,-2.8274,-2.8998,-2.9567,-3.0224,-3.0965,-3.154,-3.2012,-3.2247,-3.2264,-3.2482,-3.2791,-3.2869,-3.2919,-3.3065,-3.3183,-3.3457,-3.3594,-3.3823,-3.4003,-3.423,-3.4513,-3.4734,-3.4759,-3.4736,-3.458,-3.4765,-3.4915,-3.5119,-3.5287,-3.567,-3.5924,-3.6071,-3.6043,-3.5657,-3.5601,-3.577,-3.6101,-3.6784,-3.7322,-3.7715,-3.8026,-3.8109,-3.8191,-3.8191,-3.8191,-3.8191,-3.8191,-3.8191,-3.8191,-3.798,-3.7707,-3.7246,-3.6656,-3.6127,-3.5726,-3.5258,-3.4528,-3.3904,-3.3309,-3.2631,-3.1364,-3.0442,-3.0085,-2.9354,-2.8418,-2.8036,-2.797,-2.7894,-2.7934,-2.8048,-2.8182,-2.7712,-2.6936,-2.5701,-2.4551,-2.346,-2.2241,-2.0901,-1.9906,-1.8852,-1.796,-1.7382,-1.6772,-0.96,-1.0253,-1.1603,-1.2654,-1.3478,-1.4116,-1.4761,-1.5405,-1.5992,-1.6524,-1.6895,-1.712,-1.7331,-1.7635,-1.816,-1.8422,-1.8632,-1.9554,-2.0138,-2.0617,-2.1267,-2.1928,-2.2434,-2.292,-2.347,-2.4084,-2.4726,-2.5362,-2.6187,-2.688,-2.7494,-2.8201,-2.8993,-2.9633,-3.018,-3.1037,-3.1612,-3.2034,-3.2655,-3.2796,-3.2818,-3.2992,-3.3092,-3.3142,-3.3215,-3.3384,-3.3637,-3.3935,-3.4257,-3.467,-3.5039,-3.5123,-3.5269,-3.5276,-3.5212,-3.508,-3.4989,-3.5041,-3.5312,-3.5569,-3.5983,-3.6438,-3.6898,-3.7209,-3.7415,-3.7146,-3.7087,-3.7233,-3.6848,-3.7363,-3.7695,-3.8067,-3.8109,-3.8171,-3.8191,-3.8191,-3.8191,-3.8191,-3.8191,-3.8191,-3.8191,-3.815,-3.7794,-3.7257,-3.6746,-3.6633,-3.6234,-3.5475,-3.4748,-3.4059,-3.3448,-3.2631,-3.1294,-3.0584,-3.0228,-2.9354,-2.8274,-2.8009,-2.7955,-2.8013,-2.8034,-2.7931,-2.7805,-2.7476,-2.6754,-2.5529,-2.4373,-2.338,-2.2089,-2.0737,-1.9755,-1.8936,-1.8078,-1.727,-1.6739,-1.0034,-1.0898,-1.1982,-1.2935,-1.3748,-1.4385,-1.503,-1.5779,-1.6418,-1.6842,-1.7067,-1.7173,-1.7437,-1.7753,-1.816,-1.837,-1.884,-1.9672,-2.0189,-2.0858,-2.1623,-2.2283,-2.297,-2.3538,-2.4035,-2.4609,-2.5265,-2.6042,-2.686,-2.7461,-2.8121,-2.9015,-2.9676,-3.0224,-3.1037,-3.1562,-3.199,-3.2537,-3.2969,-3.3092,-3.3192,-3.3292,-3.3361,-3.3361,-3.343,-3.3637,-3.3935,-3.4326,-3.4762,-3.5221,-3.5795,-3.5862,-3.5904,-3.5821,-3.569,-3.558,-3.5634,-3.5729,-3.5931,-3.6406,-3.6915,-3.7505,-3.7986,-3.832,-3.8462,-3.8509,-3.8487,-3.827,-3.7942,-3.776,-3.8071,-3.8171,-3.8237,-3.8191,-3.8191,-3.8191,-3.8191,-3.8191,-3.8191,-3.8191,-3.8171,-3.8171,-3.7757,-3.7218,-3.6996,-3.6881,-3.6423,-3.5664,-3.4939,-3.4184,-3.3484,-3.2561,-3.1364,-3.0797,-3.0442,-2.9282,-2.813,-2.7976,-2.7954,-2.8043,-2.8104,-2.794,-2.7776,-2.749,-2.6596,-2.5409,-2.4313,-2.325,-2.1964,-2.0703,-1.9943,-1.9234,-1.8206,-1.7458,-1.684,-1.096,-1.2109,-1.259,-1.3152,-1.3802,-1.4557,-1.5041,-1.5309,-1.6258,-1.6736,-1.6948,-1.7371,-1.7701,-1.7911,-1.8265,-1.8579,-1.9116,-1.9828,-2.055,-2.1216,-2.1827,-2.2619,-2.337,-2.4016,-2.4627,-2.5265,-2.5849,-2.6476,-2.7228,-2.786,-2.8497,-2.9171,-3.0504,-3.1059,-3.1313,-3.1917,-3.2582,-3.2992,-3.3142,-3.3265,-3.3338,-3.3457,-3.3568,-3.3683,-3.3866,-3.4188,-3.4578,-3.5037,-3.529,-3.5611,-3.5979,-3.6154,-3.6329,-3.6314,-3.6284,-3.6331,-3.6384,-3.6675,-3.6964,-3.727,-3.778,-3.8379,-3.8816,-3.9122,-3.9301,-3.9325,-3.9303,-3.915,-3.8821,-3.8294,-3.8437,-3.8304,-3.8258,-3.8258,-3.8191,-3.8191,-3.8191,-3.8191,-3.8191,-3.815,-3.8129,-3.7964,-3.7653,-3.7277,-3.6975,-3.6846,-3.6535,-3.5843,-3.5024,-3.4296,-3.3539,-3.2474,-3.1364,-3.0797,-3.037,-2.9066,-2.8072,-2.7961,-2.7879,-2.7998,-2.7998,-2.7799,-2.7577,-2.7476,-2.6637,-2.5448,-2.435,-2.3333,-2.2224,-2.1136,-2.0372,-1.9543,-1.8541,-1.7702,-1.7141]}]]